[[{"header":{"parameterUnit":"m.s-1","parameterCategory":1,"la1":30.6,"la2":29.2853,"lo1":-89.7004,"lo2":-87.6739,"dy":0.0162,"dx":0.0183,"nx":112,"ny":82,"refTime":"2023-08-11T18:00:00:Z","depth":0,"parameterNumber":2,"parameterNumberName":"U-component_of_WINDS"},"data":[0.0,0.0,0.0,0.0,0.0,0.0,0.0,0.0,0.0,0.0,0.0,0.0,0.0,0.0,0.0,0.0,0.0,0.0,0.0,0.0,0.0,0.0,0.0,0.0,0.0,0.0,0.0,0.0,0.0,0.0,0.0,0.0,0.0,0.0,0.0,0.0,0.0,0.0,0.0,0.0,0.0,0.0,0.0,0.0,0.0,0.0,0.0,0.0,0.0,0.0,0.0,0.0,0.0,0.0,0.0,0.0,0.0,0.0,0.0,0.0,0.0,0.0,0.0,0.0,0.0,0.0,0.0,0.0,0.0,0.0,0.0,0.0,0.0,0.0,0.0,0.0,0.0,0.0,0.0,0.0,0.0,0.0,0.0,0.0,0.0,0.0,0.0,0.0,0.0,0.0,0.0,1.6324,1.5903,1.548,1.5284,1.4768,1.433,1.4122,0.0,0.0,0.0,0.0,0.0,0.0,0.0,0.0,0.0,0.0,0.0,0.0,0.0,0.0,0.0,0.0,0.0,0.0,0.0,0.0,0.0,0.0,0.0,0.0,0.0,0.0,0.0,0.0,0.0,0.0,0.0,0.0,0.0,0.0,0.0,0.0,0.0,0.0,0.0,0.0,0.0,0.0,0.0,0.0,0.0,0.0,0.0,0.0,0.0,0.0,0.0,0.0,0.0,0.0,0.0,0.0,0.0,0.0,0.0,0.0,0.0,0.0,0.0,0.0,0.0,0.0,0.0,0.0,0.0,0.0,0.0,0.0,0.0,0.0,0.0,0.0,0.0,0.0,0.0,0.0,0.0,0.0,0.0,0.0,0.0,0.0,0.0,0.0,0.0,0.0,0.0,0.0,0.0,0.0,0.0,0.0,0.0,0.0,0.0,0.0,0.0,0.0,0.0,0.0,1.5762,1.5188,1.4768,1.4489,1.4346,1.392,1.3484,1.3112,0.0,0.0,0.0,0.0,0.0,0.0,0.0,0.0,0.0,0.0,0.0,0.0,0.0,0.0,0.0,0.0,0.0,0.0,0.0,0.0,0.0,0.0,0.0,0.0,0.0,0.0,0.0,0.0,0.0,0.0,0.0,0.0,0.0,0.0,0.0,0.0,0.0,0.0,0.0,0.0,0.0,0.0,0.0,0.0,0.0,0.0,0.0,0.0,0.0,0.0,0.0,0.0,0.0,0.0,0.0,0.0,0.0,0.0,0.0,0.0,0.0,0.0,0.0,0.0,0.0,0.0,0.0,0.0,0.0,0.0,0.0,0.0,0.0,0.0,0.0,0.0,0.0,0.0,0.0,0.0,0.0,0.0,0.0,0.0,0.0,0.0,0.0,0.0,0.0,0.0,0.0,0.0,0.0,0.0,0.0,0.0,0.0,0.0,0.0,0.0,0.0,0.0,0.0,1.5054,1.484,1.4482,1.4129,1.3775,1.363,1.3112,1.2746,1.2452,1.2157,0.0,0.0,0.0,0.0,0.0,0.0,0.0,0.0,0.0,0.0,0.0,0.0,0.0,0.0,0.0,0.0,0.0,0.0,0.0,0.0,0.0,0.0,0.0,0.0,0.0,0.0,0.0,0.0,0.0,0.0,0.0,0.0,0.0,0.0,0.0,0.0,0.0,0.0,0.0,0.0,0.0,0.0,0.0,0.0,0.0,0.0,0.0,0.0,0.0,0.0,0.0,0.0,0.0,0.0,0.0,0.0,0.0,0.0,0.0,0.0,0.0,0.0,0.0,0.0,0.0,0.0,0.0,0.0,0.0,0.0,0.0,0.0,0.0,0.0,0.0,0.0,0.0,0.0,0.0,0.0,0.0,0.0,0.0,0.0,0.0,0.0,0.0,0.0,0.0,0.0,0.0,0.0,0.0,0.0,0.0,0.0,0.0,0.0,0.0,0.0,0.0,0.0,1.3985,1.3833,1.3768,1.3411,1.3046,1.2893,1.2378,1.2003,1.1706,1.1186,0.0,0.0,0.0,0.0,0.0,0.0,0.0,0.0,0.0,0.0,0.0,0.0,0.0,0.0,0.0,0.0,0.0,0.0,0.0,0.0,0.0,0.0,0.0,0.0,0.0,0.0,0.0,0.0,0.0,0.0,0.0,0.0,0.0,0.0,0.0,0.0,0.0,0.0,0.0,0.0,0.0,0.0,0.0,0.0,0.0,0.0,0.0,0.0,0.0,0.0,0.0,0.0,0.0,0.0,0.0,0.0,0.0,0.0,0.0,0.0,0.0,0.0,0.0,0.0,0.0,0.0,0.0,0.0,0.0,0.0,0.0,0.0,0.0,0.0,0.0,0.0,0.0,0.0,0.0,0.0,0.0,0.0,0.0,0.0,0.0,0.0,0.0,0.0,0.0,0.0,0.0,0.0,0.0,0.0,0.0,0.0,0.0,0.0,0.0,0.0,0.0,0.0,1.2966,1.2746,1.2673,1.2378,1.2003,1.1855,1.1632,1.1335,1.0887,1.0513,0.0,0.0,0.0,0.0,0.0,0.0,0.0,0.0,0.0,0.0,0.0,0.0,0.0,0.0,0.0,0.0,0.0,0.0,0.0,0.0,0.0,0.0,0.0,0.0,0.0,0.0,0.0,0.0,0.0,0.0,0.0,0.0,0.0,0.0,0.0,0.0,0.0,0.0,0.0,0.0,0.0,0.0,0.0,0.0,0.0,0.0,0.0,0.0,0.0,0.0,0.0,0.0,0.0,0.0,0.0,0.0,0.0,0.0,0.0,0.0,0.0,0.0,0.0,0.0,0.0,0.0,0.0,0.0,0.0,0.0,0.0,0.0,0.0,0.0,0.0,0.0,0.0,0.0,0.0,0.0,0.0,0.0,0.0,0.0,0.0,0.0,0.0,0.0,0.0,0.0,0.0,0.0,0.0,0.0,0.0,0.0,0.0,0.0,0.0,0.0,0.0,0.0,1.1929,1.1855,0.0,1.1632,1.1409,1.1335,1.1037,1.0582,1.0051,0.0,0.0,0.0,0.0,0.0,0.0,0.0,0.0,0.0,0.0,0.0,0.0,0.0,0.0,0.0,0.0,0.0,0.0,0.0,0.0,0.0,0.0,0.0,0.0,0.0,0.0,0.0,0.0,0.0,0.0,0.0,0.0,0.0,0.0,0.0,0.0,0.0,0.0,0.0,0.0,0.0,0.0,0.0,0.0,0.0,0.0,0.0,0.0,0.0,0.0,0.0,0.0,0.0,0.0,0.0,0.0,0.0,0.0,0.0,0.0,0.0,0.0,0.0,0.0,0.0,0.0,0.0,0.0,0.0,0.0,0.0,0.0,0.0,0.0,0.0,0.0,0.0,0.0,0.0,0.0,0.0,0.0,0.0,0.0,0.0,0.0,0.0,0.0,0.0,0.0,0.0,0.0,0.0,0.0,0.0,0.0,0.0,0.0,0.0,0.0,0.0,0.0,1.0994,1.093,1.0889,0.0,1.0829,1.0676,1.0676,1.0291,0.979,0.9326,0.0,0.0,0.0,0.0,0.0,0.0,0.0,0.0,0.0,0.0,0.0,0.0,0.0,0.0,0.0,0.0,0.0,0.0,0.0,0.0,0.0,0.0,0.0,0.0,0.0,0.0,0.0,0.0,0.0,0.0,0.0,0.0,0.0,0.0,0.0,0.0,0.0,0.0,0.0,0.0,0.0,0.0,0.0,0.0,0.0,0.0,0.0,0.0,0.0,0.0,0.0,0.0,0.0,0.0,0.0,0.0,0.0,0.0,0.0,0.0,0.0,0.0,0.0,0.0,0.0,0.0,0.0,0.0,0.0,0.0,0.0,0.0,0.0,0.0,0.0,0.0,0.0,0.0,0.0,0.0,0.0,0.0,0.0,0.0,0.0,0.0,0.0,0.0,0.0,0.0,0.0,0.0,0.0,0.0,0.0,0.0,0.0,0.0,0.0,0.0,0.0,0.0,1.0078,0.9802,0.981,1.0439,1.006,0.9816,0.9816,0.9288,0.8927,0.0,0.0,0.0,0.0,0.0,0.0,0.0,0.0,0.0,0.0,0.0,0.0,0.0,0.0,0.0,0.0,0.0,0.0,0.0,0.0,0.0,0.0,0.0,0.0,0.0,0.0,0.0,0.0,0.0,0.0,0.0,0.0,0.0,0.0,0.0,0.0,0.0,0.0,0.0,0.0,0.0,0.0,0.0,0.0,0.0,0.0,0.0,0.0,0.0,0.0,0.0,0.0,0.0,0.0,0.0,0.0,0.0,0.0,0.0,0.0,0.0,0.0,0.0,0.0,0.0,0.0,0.0,0.0,0.0,0.0,0.0,0.0,0.0,0.0,0.0,0.0,0.0,0.0,0.0,0.0,0.0,0.0,0.0,0.0,0.0,0.0,0.0,0.0,0.0,0.0,0.0,0.0,0.0,0.0,0.0,0.0,0.0,0.0,0.0,0.0,0.0,0.0,0.0,0.8963,0.8905,0.8846,0.8901,0.8742,0.8578,0.8418,0.8122,0.7768,0.7438,0.0,0.0,0.0,0.0,0.0,0.0,0.0,0.0,0.0,0.0,0.0,0.0,0.0,0.0,0.0,0.0,0.0,0.0,0.0,0.0,0.0,0.0,0.0,0.0,0.0,0.0,0.0,0.0,0.0,0.0,0.0,0.0,0.0,0.0,0.0,0.0,0.0,0.0,0.0,0.0,0.0,0.0,0.0,0.0,0.0,0.0,0.0,0.0,0.0,0.0,0.0,0.0,0.0,0.0,0.0,0.0,0.0,0.0,0.0,0.0,0.0,0.0,0.0,0.0,0.0,0.0,0.0,0.0,0.0,0.0,0.0,0.0,0.0,0.0,0.0,0.0,0.0,0.0,0.0,0.0,0.0,0.0,0.0,0.0,0.0,0.0,0.0,0.0,0.0,0.0,0.0,0.0,0.0,0.0,0.0,0.0,0.0,0.0,0.0,0.0,0.0,0.0,0.7844,0.7867,0.7891,0.7954,0.7797,0.7712,0.7543,0.7319,0.7035,0.6783,0.0,0.0,0.0,0.0,0.0,0.0,0.0,0.0,0.0,0.0,0.0,0.0,0.0,0.0,0.0,0.0,0.0,0.0,0.0,0.0,0.0,0.0,0.0,0.0,0.0,0.0,0.0,0.0,0.0,0.0,0.0,0.0,0.0,0.0,0.0,0.0,0.0,0.0,0.0,0.0,0.0,0.0,0.0,0.0,0.0,0.0,0.0,0.0,0.0,0.0,0.0,0.0,0.0,0.0,0.0,0.0,0.0,0.0,0.0,0.0,0.0,0.0,0.0,0.0,0.0,0.0,0.0,0.0,0.0,0.0,0.0,0.0,0.0,0.0,0.0,0.0,0.0,0.0,0.0,0.0,0.0,0.0,0.0,0.0,0.0,0.0,0.0,0.0,0.0,0.0,0.0,0.0,0.0,0.0,0.0,0.0,0.0,0.0,0.0,0.0,0.0,0.0,0.6741,0.6761,0.6897,0.7295,0.7139,0.6962,0.6874,0.667,0.6423,0.6423,0.0,0.0,0.0,0.0,0.0,0.0,0.0,0.0,0.0,0.0,0.0,0.0,0.0,0.0,0.0,0.0,0.0,0.0,0.0,0.0,0.0,0.0,0.0,0.0,0.0,0.0,0.0,0.0,0.0,0.0,0.0,0.0,0.0,0.0,0.0,0.0,0.0,0.0,0.0,0.0,0.0,0.0,0.0,0.0,0.0,0.0,0.0,0.0,0.0,0.0,0.0,0.0,0.0,0.0,0.0,0.0,0.0,0.0,0.0,0.0,1.4498,0.0,0.0,0.0,0.0,0.0,0.0,0.0,0.0,0.0,0.0,0.0,0.0,0.0,0.0,0.0,0.0,0.0,0.0,0.0,0.0,0.0,0.0,0.0,0.0,0.0,0.0,0.0,0.0,0.0,0.0,0.0,0.0,0.0,0.0,0.0,0.0,0.0,0.0,0.0,0.0,0.0,0.5662,0.5855,0.5957,0.6071,0.5902,0.5636,0.5455,0.5343,0.5331,0.5331,0.5398,0.0,0.0,0.0,0.0,0.0,0.0,0.0,0.0,0.0,0.0,0.0,0.0,0.0,0.0,0.0,0.0,0.0,0.0,0.0,0.0,0.0,0.0,0.0,0.0,0.0,0.0,0.0,0.0,0.0,0.0,0.0,0.0,0.0,0.0,0.0,0.0,0.0,0.0,0.0,0.0,0.0,0.0,0.0,0.0,0.0,0.0,0.0,0.0,0.0,0.0,0.0,0.0,0.0,0.0,0.0,0.0,0.0,0.0,0.0,0.0,1.264,0.0,0.0,0.0,0.0,0.0,0.0,0.0,0.0,0.0,0.0,0.0,0.0,0.0,0.0,0.0,0.0,0.0,0.0,0.0,0.0,0.0,0.0,0.0,0.0,0.0,0.0,0.0,0.0,0.0,0.0,0.0,0.0,0.0,0.0,0.0,0.0,0.0,0.0,0.0,0.0,0.4556,0.4741,0.483,0.483,0.4743,0.4654,0.4474,0.4474,0.4563,0.4654,0.4926,0.0,0.0,0.0,0.0,0.0,0.0,0.0,0.0,0.0,0.0,0.0,0.0,0.0,0.0,0.0,0.0,0.0,0.0,0.0,0.0,0.0,0.0,0.0,0.0,0.0,0.0,0.0,0.0,0.0,0.0,0.0,0.0,0.0,0.0,0.0,0.0,0.0,0.0,0.0,0.0,0.0,0.0,0.0,0.0,0.0,0.0,0.0,0.0,0.0,0.0,0.0,0.0,0.0,1.5808,1.4943,1.4026,1.3105,1.2154,1.1244,1.1124,1.0977,1.0707,0.0,0.0,0.0,0.0,0.0,0.0,0.0,0.0,0.0,0.0,0.0,0.0,0.0,0.0,0.0,0.0,0.0,0.0,0.0,0.0,0.0,0.0,0.0,0.0,0.0,-0.0255,-0.0,0.0,0.0,0.0,0.0,0.0,0.0,0.0,0.0,0.0,0.0,0.0,0.0,0.3406,0.3685,0.3871,0.3961,0.3794,0.3706,0.3692,0.378,0.3866,0.4032,0.4302,0.448,0.0,0.0,0.0,0.0,0.0,0.0,0.0,0.0,0.0,0.0,0.0,0.0,0.0,0.0,0.0,0.0,0.0,0.0,0.0,0.0,0.0,0.0,0.0,0.0,0.0,0.0,0.0,0.0,0.0,0.0,0.0,0.0,2.6375,2.6,0.0,0.0,0.0,0.0,0.0,0.0,0.0,0.0,0.0,0.0,0.0,0.0,0.0,1.8993,1.8075,1.8043,1.7418,1.6229,1.5615,1.4712,1.3427,1.2226,1.1215,1.0282,0.9166,0.0,0.9356,0.8539,0.0,0.0,0.0,0.0,0.0,0.0,0.0,0.0,0.0,0.0,0.0,0.0,0.0,0.0,0.0,0.0,0.0,0.0,0.0,0.0,0.0,0.0,-0.2487,-0.2487,-0.2487,-0.2322,0.0,-0.0701,0.0254,0.0345,0.0346,0.0,0.0,0.0,0.0,0.0,0.0,0.0,0.2059,0.3004,0.3777,0.424,0.3555,0.3003,0.3042,0.3408,0.3472,0.3139,0.3317,0.3496,0.3406,0.376,0.0,0.0,0.0,0.0,0.0,0.0,0.0,0.0,0.0,0.0,0.0,0.0,0.0,0.0,0.0,0.0,0.0,0.0,0.0,0.0,0.0,0.0,0.0,0.0,0.0,0.0,0.0,0.0,0.0,2.5932,2.537,2.4908,2.4711,2.4483,0.0,0.0,0.0,0.0,0.0,0.0,0.0,0.0,0.0,1.9373,1.8643,1.788,1.7137,1.6807,1.6209,1.5366,1.4584,1.3815,1.2862,1.1548,1.046,0.9578,0.8578,0.7842,0.7476,0.6967,0.6266,0.5556,0.0,0.0,0.0,0.0,0.2017,0.2214,0.2216,0.2145,0.0,0.1985,0.0,0.0,0.0,0.0,0.0,0.0,0.0,0.0,0.0,0.0,-0.3706,-0.3706,-0.3798,-0.3809,-0.3468,-0.276,-0.1992,0.0,-0.11,-0.1287,-0.1298,0.0,0.0,0.0,0.0,0.0186,0.0742,0.1309,0.1787,0.1787,0.1422,0.1139,0.1034,0.1316,0.1592,0.1669,0.2225,0.2597,0.2783,0.3121,0.3285,0.0,0.0,0.0,0.0,0.0,0.0,0.0,0.0,0.0,0.0,0.0,0.0,0.0,0.0,0.0,0.0,0.0,0.0,0.0,0.0,0.0,0.0,0.0,0.0,0.0,0.0,0.0,0.0,2.4991,2.4603,2.4164,2.3914,2.3726,0.0,0.0,0.0,0.0,0.0,0.0,2.1505,2.0532,1.9673,1.881,1.7884,1.7114,1.6503,1.599,1.5403,1.4677,1.3957,1.3136,1.2343,1.1038,0.9859,0.8856,0.7909,0.686,0.5742,0.5573,0.5287,0.4637,0.2821,0.1275,0.0091,0.0182,0.0276,0.0372,-0.0093,-0.0188,-0.038,-0.1142,0.0,-0.1997,-0.2474,0.0,0.0,0.0,0.0,-0.466,-0.4851,-0.4942,-0.5032,-0.5032,-0.5128,-0.523,-0.4875,-0.4691,-0.4017,0.0,-0.2192,-0.2384,-0.2384,0.0,0.0,0.0,0.0,-0.1144,-0.0668,-0.0479,-0.048,-0.0673,-0.0772,-0.0965,-0.1152,-0.096,-0.0575,0.0286,0.0857,0.1428,0.1905,0.235,0.2519,0.2516,0.0,0.0,0.0,0.0,0.0,0.0,0.0,0.0,0.0,0.0,0.0,0.0,0.0,0.0,0.0,0.0,0.0,0.0,0.0,0.0,0.0,0.0,0.0,0.0,0.0,0.0,0.0,0.0,0.0,2.4187,2.4053,0.0,0.0,0.0,0.0,2.2115,2.1574,2.0885,2.0114,1.9548,1.8902,1.81,1.762,1.712,1.6507,1.6199,1.5613,1.4692,1.4302,1.3311,1.1927,1.0687,0.9402,0.8214,0.6726,0.5504,0.4553,0.4735,0.4547,0.3794,0.1805,0.019,-0.1046,-0.1046,-0.1045,-0.1235,-0.1521,-0.1996,-0.2757,-0.41,-0.4771,-0.4957,-0.4381,-0.4759,0.0,0.0,-0.5894,-0.6458,-0.6461,-0.6646,-0.6832,-0.6832,-0.6832,-0.6771,-0.6316,-0.6149,-0.563,0.0,-0.3046,-0.2667,-0.2667,0.0,-0.2291,-0.229,-0.2099,-0.2004,-0.2004,-0.2134,-0.2256,-0.2256,-0.2691,-0.3099,-0.3048,-0.3044,-0.2434,-0.105,-0.0763,-0.0286,0.0381,0.1143,0.1428,0.1428,0.2189,0.0,0.0,0.0,0.0,0.0,0.0,0.0,0.0,0.0,0.0,0.0,0.0,0.0,0.0,0.0,0.0,0.0,0.0,0.0,0.0,0.0,0.0,0.0,0.0,0.0,0.0,0.0,0.0,2.4072,2.3632,0.0,0.0,2.2286,2.1867,2.175,2.1218,2.0769,2.0381,1.9631,1.8784,1.7856,1.7111,1.6451,1.5807,1.5548,1.5028,1.4263,1.3585,1.2541,1.1369,0.9692,0.8232,0.6929,0.5679,0.4653,0.3885,0.3046,0.2531,0.2191,0.0763,-0.0572,-0.1812,-0.2001,-0.2305,-0.2619,-0.3198,-0.371,-0.4245,-0.5237,-0.5728,-0.602,-0.6116,-0.6505,-0.6896,-0.7,-0.7293,-0.7488,-0.7488,-0.768,-0.7872,-0.7872,-0.8067,-0.808,-0.7743,-0.7559,-0.715,-0.6309,-0.5029,-0.3852,-0.3359,-0.3165,-0.297,-0.2672,-0.2573,-0.2473,-0.2276,-0.2389,-0.2499,-0.2599,-0.3017,-0.3222,-0.3203,-0.32,-0.2992,-0.2474,-0.1978,-0.1483,-0.0988,-0.0685,-0.0291,0.0388,0.0862,0.1237,0.0,0.0,0.0,0.0,0.0,0.0,0.0,0.0,0.0,0.0,0.0,0.0,0.0,0.0,0.0,0.0,0.0,0.0,0.0,0.0,0.0,0.0,0.0,0.0,0.0,0.0,2.4521,2.3953,2.3358,2.2822,2.2432,2.1826,2.1449,2.1449,2.1043,2.0569,2.0157,1.9589,1.877,1.7639,1.6925,1.6224,1.5468,1.4977,1.4379,1.3686,1.2768,1.178,1.0758,0.8942,0.7442,0.62,0.511,0.4058,0.2976,0.1515,0.0702,0.0294,-0.039,-0.1555,-0.2916,-0.3205,-0.3621,-0.4155,-0.5036,-0.5475,-0.5834,-0.6439,-0.6839,-0.7036,-0.7338,-0.7633,-0.7932,-0.8233,-0.8435,-0.8535,-0.8634,-0.8829,-0.9027,-0.9027,-0.9221,-0.9221,-0.9027,-0.8829,-0.8531,-0.8127,-0.6531,-0.5133,-0.4431,-0.4133,-0.3833,-0.3328,-0.3229,-0.3127,-0.2925,-0.2925,-0.3026,-0.3229,-0.333,-0.3432,-0.3432,-0.3432,-0.343,-0.333,-0.2925,-0.2521,-0.2118,-0.2195,-0.1882,-0.1187,-0.0879,-0.0484,0.0096,0.0,0.0,0.0,0.0,0.0,0.0,0.0,0.0,0.0,0.0,0.0,0.0,0.0,0.0,0.0,0.0,0.0,0.0,0.0,0.0,0.0,0.0,0.0,2.532,2.4613,2.4153,2.3908,2.3197,2.2694,2.2681,2.2122,2.1609,2.1245,2.0848,2.0215,1.9338,1.9218,1.868,1.7508,1.7148,1.6529,1.5562,1.4578,1.3683,1.2968,1.1906,1.0967,0.9931,0.8543,0.7226,0.5934,0.5146,0.3737,0.1821,0.0412,-0.083,-0.1761,-0.1729,-0.2727,-0.4343,-0.4438,-0.5041,-0.5847,-0.6948,-0.7447,-0.7743,-0.8048,-0.8052,-0.8052,-0.8151,-0.8251,-0.8546,-0.884,-0.924,-0.9743,-0.9937,-1.0233,-1.043,-1.043,-1.043,-1.0332,-1.0134,-1.0036,-0.9838,-0.9038,-0.7643,-0.6345,-0.5737,-0.5138,-0.4638,-0.4137,-0.4038,0.0,-0.4036,-0.4036,-0.4036,-0.4033,-0.4033,-0.4033,-0.4033,-0.4033,-0.3932,-0.3629,-0.3629,-0.353,-0.323,-0.323,-0.323,-0.323,-0.2927,-0.2399,-0.1667,0.0,0.0,0.0,0.0,0.0,0.0,0.0,0.0,0.0,0.0,0.0,0.0,0.0,0.0,0.0,0.0,0.0,0.0,0.0,0.0,0.0,0.0,2.5853,2.5704,2.5063,2.4355,2.372,2.2941,2.2456,2.2464,2.1825,2.1341,2.1413,2.0841,2.0163,1.9415,1.8922,1.8128,1.7179,1.658,1.5747,1.4482,1.4049,1.3316,1.2192,1.1384,1.032,0.9049,0.7707,0.6274,0.4928,0.4323,0.2903,0.084,-0.0422,-0.1902,-0.3487,-0.3787,-0.4196,-0.4719,-0.5654,-0.6799,-0.8147,-0.8663,-0.9278,-0.9891,-0.9895,-1.01,-1.0305,-1.0506,-1.0608,-1.0612,-1.0723,-1.083,-1.0937,-1.0728,-1.0728,-1.083,-1.083,-1.083,-1.083,-1.0728,-1.0728,-1.0625,-1.042,-0.9697,-0.8491,-0.6564,-0.5698,-0.5033,-0.4521,-0.4266,0.0,-0.4123,-0.4116,-0.4094,-0.4039,-0.4135,-0.4236,-0.4033,-0.4135,-0.4135,-0.3932,-0.3932,-0.3831,-0.3833,-0.3732,-0.3731,-0.353,-0.3229,-0.2919,0.0,0.0,0.0,0.0,0.0,0.0,0.0,0.0,0.0,0.0,0.0,0.0,0.0,0.0,0.0,0.0,0.0,0.0,0.0,0.0,0.0,0.0,2.6,2.5443,2.5241,2.4644,2.4089,2.3563,2.2766,2.2252,2.216,2.1556,2.1183,2.1089,2.0512,1.9827,1.905,1.8597,1.7801,1.6736,1.6252,1.5311,1.4007,1.3514,1.2634,1.1389,1.0529,0.9426,0.8327,0.7068,0.5695,0.0,0.3356,0.1899,0.0213,-0.1502,-0.3121,0.0,0.0,0.0,0.0,0.0,-0.858,-0.9739,-1.0144,-1.0768,-1.1385,-1.1493,-1.1803,-1.201,-1.201,-1.2113,-1.2216,-1.2014,-1.2019,-1.1916,-1.161,-1.1507,-1.1507,-1.1403,-1.1403,-1.1507,-1.1507,-1.161,-1.1615,-1.1408,-1.0884,0.0,-0.7939,-0.695,-0.6167,-0.5441,-0.5177,-0.4984,-0.4932,-0.4926,-0.4906,-0.4852,-0.4916,-0.4894,-0.479,-0.4859,0.0,0.0,0.0,-0.4634,-0.4634,-0.4634,0.0,0.0,0.0,-0.4133,-0.4034,0.0,0.0,0.0,-0.2418,-0.1717,0.0,0.0,0.0,0.0,0.0,0.0,0.0,0.0,0.0,0.0,0.0,0.0,0.0,0.0,0.0,0.0,2.5313,2.4783,2.4355,2.3891,2.3468,2.327,2.2542,2.201,2.1802,2.1425,2.0932,2.0368,1.9968,1.9368,1.8406,0.0,0.0,0.0,0.0,1.507,1.3756,1.2791,1.1732,1.0677,0.9536,0.8487,0.7567,0.633,0.5218,0.406,0.235,0.0962,-0.0322,-0.2723,-0.4272,-0.5247,-0.5165,-0.5982,-0.7467,-0.905,-1.0108,-1.095,-1.1557,0.0,0.0,-1.3117,-1.3431,-1.3534,-1.3323,-1.3328,-1.3426,-1.3013,-1.291,-1.2807,-1.2511,-1.2412,-1.2309,-1.1992,-1.22,-1.2412,-1.2412,-1.262,-1.262,-1.2101,-1.158,-1.0736,-0.9688,-0.8513,-0.7449,-0.6606,-0.6194,-0.5989,-0.5974,-0.5974,-0.597,-0.5958,0.0,0.0,-0.5916,-0.5817,-0.5754,-0.5754,-0.5644,-0.5636,-0.5636,-0.5636,-0.5636,-0.5636,-0.5636,-0.5436,-0.524,-0.5037,-0.4736,-0.4537,-0.3669,-0.3019,0.0,0.0,0.0,0.0,0.0,0.0,0.0,0.0,0.0,0.0,0.0,0.0,0.0,0.0,0.0,2.5587,2.4934,2.443,2.4303,2.3662,2.3165,2.3179,2.2382,2.1812,2.1703,2.1151,2.0595,2.0009,1.9602,1.8977,1.8164,1.7565,1.6858,1.5934,1.5032,1.4007,1.2824,1.2029,1.1015,0.9951,0.0,0.0,0.655,0.5627,0.4614,0.3485,0.2176,0.0658,-0.1111,-0.3232,-0.5236,-0.7111,-0.7532,-0.8507,-0.9712,-1.0474,-1.1661,-1.2842,-1.3362,-1.4327,-1.5305,-1.5505,-1.5822,-1.5933,-1.5716,-1.5611,0.0,-1.4562,-1.4243,-1.4035,-1.3291,-1.3081,-1.3081,-1.3076,-1.3081,-1.3081,-1.3081,-1.3189,-1.3081,-1.2754,-1.2215,-1.1562,-1.0586,-0.8953,-0.7585,-0.6948,-0.6486,-0.6182,-0.6096,-0.6084,-0.6051,-0.5965,-0.6145,-0.6235,-0.6235,-0.6445,-0.6484,-0.6484,-0.609,-0.5839,-0.5636,-0.5636,-0.5636,-0.5636,-0.5636,-0.5536,-0.5536,-0.5436,-0.5436,-0.5336,-0.4318,-0.3676,0.0,0.0,0.0,0.0,0.0,0.0,0.0,0.0,0.0,0.0,0.0,2.6339,0.0,0.0,2.5368,2.5298,2.4856,2.4414,2.4083,2.3494,2.3093,2.2928,2.2242,2.1731,2.153,2.0775,2.0061,1.9613,1.8996,1.8357,1.7606,1.6911,1.6128,1.5261,1.4416,1.3452,1.2156,1.1346,1.0265,0.9007,0.813,0.6987,0.5705,0.5114,0.4065,0.2549,0.1329,-0.0111,-0.1905,-0.4589,-0.6705,-0.8367,-0.9254,-0.9919,-1.0582,-1.1236,-1.2432,-1.3614,-1.4471,-1.5441,-1.6418,-1.6836,-1.7153,-1.7265,-1.6842,-1.6736,-1.6524,-1.5351,-1.4922,-1.4606,-1.3748,-1.3532,-1.3423,-1.3315,-1.3423,-1.3532,-1.3532,-1.3532,-1.3423,-1.2989,-1.2332,-1.1568,-1.0692,-0.93,-0.8266,-0.7837,-0.7453,-0.7138,-0.7078,-0.707,-0.7046,-0.6986,-0.7138,-0.7099,-0.7099,-0.7139,-0.7135,-0.7135,-0.681,-0.6539,-0.6437,-0.6437,-0.6437,-0.6437,-0.6437,-0.6337,-0.6239,-0.6239,-0.6039,-0.5739,-0.5238,-0.4812,0.0,0.0,0.0,0.0,0.0,0.0,0.0,0.0,2.6663,2.6089,2.5618,2.5338,2.5265,2.5067,2.4918,2.4791,2.4574,2.4185,2.3731,2.3203,2.2778,2.2532,2.1988,2.1503,2.1042,2.0257,1.9538,1.8904,1.8326,1.7609,1.6848,1.6276,1.5455,1.4459,1.3751,1.2751,1.1557,1.0623,0.9485,0.8246,0.7175,0.6134,0.5156,0.4568,0.3365,0.157,-0.0,-0.1457,-0.3022,-0.5924,-0.7928,-0.9144,-1.0249,-1.0802,-1.1131,-1.2005,-1.3083,-1.4266,-1.5334,-1.6299,-1.7265,-1.7793,-1.8115,-1.8122,-1.7595,-1.7384,-1.7067,-1.5885,-1.5351,-1.4928,-1.4072,-1.3856,-1.3856,-1.364,-1.3748,-1.3856,-1.3856,-1.3748,-1.3423,-1.2881,-1.2114,-1.124,-1.0363,-0.9478,-0.8923,-0.8595,-0.8266,-0.8045,-0.8045,-0.8045,-0.8045,-0.8045,-0.8056,-0.7979,-0.8059,-0.7855,-0.7707,-0.7552,-0.744,-0.7266,-0.7238,-0.7238,-0.7238,-0.7238,-0.7238,-0.7138,-0.6842,-0.6842,-0.6642,-0.6242,-0.6242,-0.6039,2.691,2.6818,2.6752,2.6718,2.662,2.6539,0.0,0.0,2.5252,2.4541,2.4391,2.4209,2.3678,2.3738,2.394,2.4185,2.367,2.3237,2.3229,2.26,2.1985,2.1284,2.1373,2.0935,1.9795,1.9446,1.8812,1.7606,1.7508,1.6994,1.6005,1.5401,1.4743,1.392,1.2617,1.158,1.0911,0.9533,0.8419,0.7659,0.6463,0.5695,0.5254,0.3357,0.1905,0.0897,-0.2017,-0.392,-0.5146,-0.6482,-0.8152,-0.9816,-1.0472,-1.1345,-1.2332,-1.2881,-1.4169,-1.5779,-1.6723,-1.7687,-1.8653,-1.8959,-1.9168,-1.9063,-1.8422,-1.8115,-1.7595,-1.6205,-1.5672,-1.5351,-1.4708,-1.4498,-1.4498,-1.4713,-1.4606,-1.439,-1.4169,-1.3743,-1.3098,-1.2223,-1.1564,-1.0907,-1.0033,-0.9596,-0.9154,-0.8595,-0.8266,-0.8045,-0.8045,-0.8045,-0.8045,-0.8045,-0.8251,-0.852,-0.8612,-0.8572,-0.8335,-0.7869,-0.7837,-0.7668,-0.7241,-0.7238,-0.7238,-0.7238,-0.7238,-0.7138,-0.7138,-0.7138,-0.7138,-0.7039,-0.7039,-0.6537,2.5512,2.5338,0.0,0.0,2.5346,2.5122,2.4755,2.4557,2.4272,2.3448,2.3369,2.3472,2.3205,2.3258,2.3359,0.0,2.3272,2.29,2.2375,2.1872,2.1248,2.0266,2.0088,1.987,1.9379,1.8715,1.8085,1.7428,1.6946,1.6322,1.5613,1.4867,1.4188,1.3341,1.2216,1.1143,1.0023,0.8825,0.7761,0.6816,0.5594,0.4929,0.4597,0.2353,0.0336,-0.1458,-0.3362,-0.4814,-0.604,-0.7374,-0.8816,-1.0143,-1.0911,-1.1787,-1.2767,-1.3098,-1.439,-1.5992,-1.6942,-1.7898,-1.8974,-1.9175,-1.9175,-1.8966,-1.8331,-1.7911,-1.7279,-1.6211,-1.5684,-1.5363,-1.4928,-1.4821,-1.4821,-1.4821,-1.4713,-1.4498,-1.3959,-1.3418,-1.2881,-1.2114,-1.135,-1.0692,-1.0147,-0.9816,-0.9596,-0.9261,-0.8819,-0.8491,-0.8491,-0.8491,-0.8491,-0.8491,-0.8602,-0.8799,-0.8849,-0.876,-0.8655,-0.8424,-0.8334,-0.8117,-0.7873,-0.7867,-0.7828,-0.764,-0.764,-0.764,-0.764,-0.764,-0.754,-0.7444,-0.7444,-0.7138,2.3891,0.0,0.0,2.4059,2.3986,2.3801,2.3483,2.3351,2.3115,2.2457,2.2433,2.2423,2.2422,2.2493,0.0,2.2435,2.2394,2.2041,2.115,2.0701,2.0192,1.9201,1.8793,1.8609,1.855,1.8097,1.7559,1.7079,1.6467,1.5815,1.5089,1.4311,1.3492,1.2525,1.1485,1.0351,0.9027,0.8033,0.7035,0.604,0.4925,0.4258,0.3924,0.1009,-0.1346,-0.303,-0.4033,-0.5148,-0.6374,-0.7928,-0.9368,-1.0472,-1.135,-1.2223,-1.2989,-1.3315,-1.4493,-1.6092,-1.6942,-1.7905,-1.8757,-1.8959,-1.8855,-1.8548,-1.8016,-1.749,-1.6855,-1.6105,-1.569,-1.5374,-1.5041,-1.5041,-1.4928,-1.4713,-1.4606,-1.4277,-1.3748,-1.3098,-1.2441,-1.1782,-1.1021,-1.0472,-1.0257,-0.9926,-0.9816,-0.9816,-0.9375,-0.9158,-0.9158,-0.9158,-0.9158,-0.9158,-0.9158,-0.9158,-0.9158,-0.9054,-0.897,-0.8925,-0.8817,-0.8793,-0.8649,-0.8596,-0.8418,-0.8303,-0.8258,-0.8137,-0.8137,-0.8137,-0.7942,-0.7743,-0.7743,-0.7643,0.0,0.0,2.2478,2.2478,2.2478,2.2444,2.2424,2.2056,2.171,2.1491,2.1221,2.0985,2.0839,2.089,2.0979,2.0718,2.0555,2.0093,1.9338,1.8788,1.8365,1.8213,1.7505,1.7058,0.0,1.7279,1.7086,1.6299,1.5953,1.5383,1.4339,1.3612,1.2758,1.1669,1.0241,0.9027,0.8029,0.6927,0.604,0.5371,0.4482,0.3924,0.3475,-0.0672,-0.2803,-0.3138,-0.4143,-0.5148,-0.6485,-0.8146,-0.9585,-1.0802,-1.1678,-1.255,-1.3315,-1.3645,-1.4809,-1.6405,-1.6961,-1.7694,-1.8422,-1.8422,-1.822,-1.8016,-1.7694,-1.716,-1.6624,-1.6099,-1.569,-1.5374,-1.5041,-1.5041,-1.5041,-1.5035,-1.46,-1.4062,-1.3423,-1.2659,-1.1782,-1.0911,-1.0472,-1.0257,-0.9926,-0.9816,-0.9816,-0.9816,-0.9816,-0.9816,-0.9816,-0.9816,-0.9816,-0.9816,-0.9816,-0.9816,-0.9816,-0.9812,-0.9738,-0.9574,-0.9559,-0.9488,-0.9332,-0.9168,-0.9075,-0.9071,-0.8911,-0.8627,-0.8432,-0.8432,-0.8237,-0.7939,-0.7939,-0.7939,0.0,0.0,2.1312,2.1859,2.1764,2.155,2.1686,2.1598,2.1344,2.0802,2.0703,2.0517,1.9979,1.9802,1.9704,1.9255,1.8972,1.8603,1.8056,1.7769,1.7471,1.6919,1.6799,0.0,0.0,0.0,0.0,1.5766,1.5287,1.4691,1.3939,1.2832,1.1673,1.0676,0.9244,0.8033,0.7154,0.6376,0.5708,0.5041,0.336,0.1904,0.0784,-0.1795,-0.3029,-0.3137,-0.4479,-0.563,-0.6596,-0.8623,-1.0036,-1.1146,-1.1926,-1.2649,-1.3287,-1.3588,-1.4283,-1.5345,-1.6318,-1.7166,-1.7898,-1.7898,-1.7694,-1.7384,-1.7054,-1.6736,-1.6318,-1.5998,-1.569,-1.5482,-1.5374,-1.5041,-1.4713,-1.4493,-1.4175,-1.3635,-1.2876,-1.2332,-1.1787,-1.1126,-1.0802,-1.0582,-1.0472,-1.0363,-1.0363,-1.0363,-1.0033,-0.9816,-0.9816,-0.9816,-0.9816,-0.9816,-0.9816,-0.9816,-0.9816,-0.9816,-0.979,-0.9734,-0.973,-0.9656,-0.9492,-0.9432,-0.9354,-0.9354,-0.9082,-0.8993,-0.8892,-0.8681,-0.863,-0.8531,-0.8531,-0.8531,1.9923,2.0115,2.0454,2.0983,2.0905,2.0787,2.0969,2.0848,2.0544,2.0067,1.9735,1.9347,1.8796,1.8519,1.8141,1.7584,1.7399,1.7188,1.6538,1.6601,1.6433,1.5963,1.5992,0.0,0.0,0.0,0.0,1.5106,1.4613,1.384,1.297,1.1773,1.0566,0.946,0.814,0.7152,0.6379,0.5822,0.4927,0.392,0.2016,0.0336,-0.1121,-0.2581,-0.3265,-0.3393,-0.4745,-0.5812,-0.6704,-0.8879,-1.0315,-1.1327,-1.2352,-1.3091,-1.3521,-1.3825,-1.4323,-1.4954,-1.5743,-1.653,-1.7166,-1.7166,-1.7067,-1.6855,-1.6636,-1.6318,-1.601,-1.5791,-1.547,-1.5154,-1.5041,-1.4611,-1.4175,-1.3846,-1.3527,-1.2989,-1.2332,-1.1891,-1.1564,-1.1017,-1.0802,-1.0692,-1.0582,-1.0586,-1.0586,-1.0586,-1.0363,-1.0253,-1.0253,-1.0253,-1.0363,-1.0472,-1.0363,-1.0253,-1.0253,-1.0143,-1.0143,-1.0143,-1.0143,-1.0096,-0.9985,-0.9923,-0.9842,-0.9738,-0.9565,-0.9476,-0.9373,-0.9263,-0.9075,-0.8914,-0.8914,-0.8881,1.894,1.9309,1.977,1.9816,1.994,2.0054,2.0271,1.9735,1.9215,1.9115,1.8342,1.7505,0.0,0.0,1.6298,1.5818,1.5969,1.5875,1.5103,1.5238,1.5401,0.0,0.0,0.0,0.0,0.0,0.0,1.4385,0.0,1.297,1.1564,1.0566,0.946,0.8029,0.7152,0.6379,0.571,0.5152,0.392,0.2128,0.0672,-0.0673,-0.191,-0.3034,-0.363,-0.3798,-0.4716,-0.5681,-0.681,-0.8904,-1.0304,-1.1364,-1.285,-1.366,-1.4002,-1.4437,-1.4885,-1.5271,-1.5453,-1.5821,-1.6254,-1.6242,-1.6242,-1.6236,-1.6223,-1.5903,-1.5482,-1.5482,-1.5041,-1.4493,-1.4277,-1.3851,-1.3532,-1.2989,-1.255,-1.2223,-1.1678,-1.135,-1.1017,-1.0692,-1.0692,-1.0582,-1.0366,-1.0257,-1.0257,-1.0257,-1.0692,-1.1017,-1.1126,-1.1126,-1.1236,-1.1568,-1.135,-1.1126,-1.1126,-1.0911,-1.0692,-1.0692,-1.0692,-1.0692,-1.0692,-1.0538,-1.0448,-1.0448,-1.027,-1.0072,-0.9867,-0.9859,-0.9557,-0.9195,-0.9195,-0.9004,1.7788,1.8004,1.8297,1.9022,1.9067,1.9057,1.9134,1.8752,1.8317,1.7863,1.7131,1.6473,0.0,0.0,0.0,1.5039,1.4845,0.0,1.4761,1.471,0.0,0.0,0.0,1.4099,1.3413,1.3088,0.0,0.0,1.211,1.1559,1.0351,0.9133,0.8143,0.7043,0.6379,0.571,0.5152,0.4596,0.3361,0.1456,0.0112,-0.1467,-0.3198,-0.3312,-0.3572,-0.421,-0.4907,-0.5892,-0.7288,-0.8943,-1.0432,-1.1725,-1.2998,-1.364,-1.3973,-1.4375,-1.4654,-1.4982,-1.5082,-1.5595,-1.6232,-1.6041,-1.5982,-1.5946,-1.5421,-1.5256,-1.5041,-1.4928,-1.4606,-1.4169,-1.3635,-1.3093,-1.2659,-1.2332,-1.2005,-1.1678,-1.135,-1.1126,-1.0907,-1.0472,-1.0036,-0.9816,-0.9926,-0.9706,-0.9706,-0.9926,-1.0253,-1.0692,-1.1017,-1.135,-1.1459,-1.1568,-1.1568,-1.1459,-1.1459,-1.1459,-1.124,-1.1017,-1.1021,-1.0911,-1.0692,-1.0647,-1.0627,-1.0627,-1.0456,-1.0367,-1.0261,-1.0124,-1.0036,-0.9884,-0.9884,-0.986,1.6975,1.718,1.7518,1.8144,1.8135,1.8026,1.801,1.739,1.6727,1.6075,1.5419,0.0,0.0,0.0,0.0,0.0,0.0,0.0,1.3691,1.3825,1.3656,0.0,1.3229,0.0,1.2223,1.1669,1.1008,0.0,1.0464,1.0241,0.9023,0.8033,0.7041,0.6379,0.571,0.4929,0.392,0.3249,0.2016,0.0224,-0.079,-0.205,-0.3449,-0.3588,-0.3865,-0.428,0.0,-0.599,-0.7286,-0.8606,-1.0098,-1.1503,-1.2834,-1.3509,-1.3849,-1.4544,-1.4845,-1.4961,-1.5198,-1.5544,-1.5926,-1.5578,-1.5528,-1.5476,-1.5007,-1.4611,-1.4396,-1.4067,-1.3743,-1.3305,-1.2876,-1.2441,-1.1891,-1.1568,-1.135,-1.1131,-1.0582,-1.0582,-1.0363,-1.0036,-0.9375,-0.904,-0.9151,-0.9151,-0.904,-0.9368,-0.9812,-1.0257,-1.0692,-1.124,-1.1678,-1.1896,-1.1896,-1.1787,-1.1787,-1.1678,-1.1568,-1.1345,-1.135,-1.1236,-1.1131,-1.0911,-1.0911,-1.0911,-1.0595,-1.055,-1.055,-1.0444,-1.0355,-1.0282,-1.0282,-1.0241,1.6182,1.6613,1.6943,1.7183,1.7113,1.6951,1.6655,1.5792,1.493,1.4166,0.0,1.2635,1.2145,0.0,1.2409,1.2138,0.0,1.2871,1.2476,1.2538,1.255,1.2219,1.2001,1.1564,1.0907,1.0347,0.9467,0.8374,0.8916,0.8913,0.7808,0.7041,0.6267,0.5599,0.5041,0.4033,0.2576,0.1571,0.0337,-0.1125,-0.2058,-0.2884,-0.3355,-0.4105,-0.4403,-0.4471,-0.5072,0.0,-0.7011,-0.8349,-0.9569,-1.091,-1.2479,-1.3324,-1.3688,-1.4639,-1.4997,-1.5116,-1.5359,-1.5477,-1.5371,-1.5074,-1.4939,-1.4856,-1.4505,-1.3986,-1.3532,-1.3207,-1.2767,-1.2219,-1.2005,-1.1678,-1.135,-1.0802,-1.0582,-1.0363,-0.9816,-0.9706,-0.9596,-0.9375,-0.8819,-0.8374,-0.8374,-0.8374,-0.8484,-0.8702,-0.9258,-0.9702,-1.0033,-1.0911,-1.1678,-1.2219,-1.2114,-1.2005,-1.2005,-1.1787,-1.1678,-1.1678,-1.1678,-1.1678,-1.1568,-1.135,-1.1131,-1.1131,-1.0911,-1.0692,-1.0692,-1.0692,-1.0506,-1.0361,-1.0361,-1.0277,1.5144,1.5354,1.5647,1.5752,1.5772,1.5527,1.486,1.4088,0.0,0.0,0.0,1.117,1.1072,1.1047,0.0,1.1218,0.0,0.0,0.0,0.0,1.1673,0.0,0.0,0.0,0.0,0.0,0.0,0.0,0.0,0.6816,0.6594,0.6154,0.5596,0.4704,0.4484,0.3474,0.1567,0.0568,-0.0686,-0.2059,-0.3491,-0.4133,-0.4182,-0.4554,-0.484,-0.5276,-0.5647,0.0,-0.7383,-0.8352,-0.9447,-1.0547,-1.1872,-1.2599,-1.2964,-1.3684,-1.4282,-1.4634,-1.4525,-1.4644,-1.4821,-1.4877,-1.476,-1.4435,-1.3649,-1.3237,-1.2881,-1.2332,-1.2114,-1.1891,-1.1345,-1.1021,-1.0802,-1.0472,-1.0036,-0.9596,-0.9489,-0.9044,-0.8706,-0.8706,-0.8156,-0.7826,-0.8045,-0.7937,-0.7826,-0.8156,-0.8484,-0.8816,-0.9144,-1.0355,-1.1236,-1.1345,-1.1782,-1.2005,-1.2005,-1.2114,-1.2223,-1.1891,-1.1896,-1.1787,-1.1568,-1.1568,-1.1459,-1.1459,-1.1236,-1.0907,-1.0692,-1.0476,-1.0241,-0.9885,-0.9885,-0.987,1.4423,1.4635,1.4714,1.4797,1.4478,1.3992,1.3318,0.0,0.0,0.0,0.0,0.9537,0.9426,0.0,0.0,0.0,0.0,0.0,0.0,0.0,0.0,0.0,0.0,0.0,0.0,0.0,0.0,0.0,0.0,0.5933,0.6042,0.5599,0.5041,0.4258,0.3586,0.2362,0.0567,-0.0686,-0.1961,-0.3142,-0.414,-0.4667,-0.4579,-0.4979,-0.5264,-0.5669,-0.6037,0.0,-0.7508,-0.8233,-0.9086,-0.994,-1.1031,-1.1635,-1.1997,-1.2719,-1.32,-1.3555,-1.3444,-1.3564,-1.3904,-1.3684,-1.3669,-1.3359,-1.2926,-1.2496,-1.2114,-1.1678,-1.1459,-1.124,-1.0802,-1.0363,-0.9923,-0.9588,-0.9151,-0.8602,-0.8494,-0.8269,-0.8045,-0.8045,-0.7715,-0.7379,-0.7601,-0.749,-0.7493,-0.7715,-0.7934,-0.8156,-0.8374,-0.9254,-1.0029,-1.0582,-1.1021,-1.1345,-1.1568,-1.1782,-1.2005,-1.2005,-1.2114,-1.2114,-1.2001,-1.1896,-1.1787,-1.1568,-1.1131,-1.0692,-1.0253,-0.9926,-0.9702,-0.9368,-0.9368,-0.9368,1.3698,1.3848,1.385,1.3765,1.3227,1.2543,1.1755,1.0779,0.0,0.0,0.8528,0.8079,0.8021,0.0,0.0,0.0,0.0,0.0,0.0,0.0,0.0,0.0,0.0,0.0,0.0,0.0,0.0,0.0,0.0,0.0,0.5487,0.4929,0.4265,0.3494,0.2365,0.1021,-0.0577,-0.2085,-0.3272,-0.4025,-0.4687,-0.4965,-0.5088,-0.5393,-0.5792,-0.6162,-0.6528,0.0,0.0,-0.8236,-0.8845,-0.9335,-1.0304,-1.091,-1.1152,-1.1752,-1.2238,-1.2479,-1.2599,-1.2719,-1.284,-1.2599,-1.2456,-1.2461,-1.2199,-1.1757,-1.135,-1.1017,-1.0692,-1.0366,-1.0147,-0.9706,-0.9154,-0.8706,-0.8263,-0.7826,-0.7604,-0.7493,-0.7493,-0.7493,-0.7379,-0.7154,-0.7154,-0.7154,-0.7268,-0.7493,-0.7493,-0.7604,-0.7823,-0.8156,-0.8595,-0.9588,-1.0139,-1.0578,-1.0802,-1.1131,-1.1459,-1.1787,-1.2001,-1.2114,-1.2219,-1.2005,-1.1787,-1.1568,-1.0911,-1.0253,-0.9702,-0.9265,-0.8819,-0.8481,-0.8367,-0.8367,1.2487,1.2565,1.2538,1.2262,1.178,1.1189,1.0391,0.0,0.0,0.8233,0.7637,0.7378,0.7415,0.7446,0.0,0.0,0.0,0.0,0.0,0.0,0.0,0.0,0.0,0.0,0.0,0.0,0.0,0.0,0.0,0.0,0.4592,0.4033,0.316,0.1947,0.1147,-0.0231,-0.2113,-0.3696,-0.4447,-0.4691,-0.5129,-0.5535,-0.5782,-0.6156,-0.6528,-0.6778,-0.7143,0.0,0.0,-0.8607,-0.8973,-0.9335,-1.0065,-1.0304,-1.0425,-1.1152,-1.1635,-1.1877,-1.2118,-1.2118,-1.1877,-1.1877,-1.1984,-1.2139,-1.1778,-1.1301,-1.0692,-1.0472,-0.9926,-0.9489,-0.9489,-0.9044,-0.8488,-0.7826,-0.7718,-0.7604,-0.7268,-0.7265,-0.7265,-0.7265,-0.7265,-0.7154,-0.7154,-0.7154,-0.7154,-0.7265,-0.7265,-0.7265,-0.7265,-0.7493,-0.7715,-0.7829,-0.8816,-0.9585,-0.9923,-1.0143,-1.0582,-1.1126,-1.124,-1.135,-1.1678,-1.1678,-1.1678,-1.1568,-1.0692,-1.0029,-0.9471,-0.8257,-0.7485,-0.6935,-0.6596,-0.6485,1.1313,1.1516,1.1585,1.0988,1.04,0.9809,0.9023,0.0,0.0,0.7341,0.7003,0.6791,0.6813,0.6825,0.6727,0.0,0.0,0.0,0.0,0.0,0.0,0.0,0.0,0.0,0.0,0.0,0.0,0.0,0.0,0.0,0.2238,0.2352,0.2144,0.1376,0.023,-0.1163,-0.2743,-0.3845,-0.4845,-0.5498,-0.5774,-0.616,-0.6532,-0.6653,-0.6898,-0.7266,-0.7508,0.0,0.0,-0.8851,-0.9217,-0.9335,-0.9822,-1.0065,-1.0304,-1.0547,-1.1031,-1.1514,-1.1394,-1.1273,-1.1152,-1.091,-1.0752,-1.0658,-1.079,-1.0412,-0.9926,-0.9816,-0.9375,-0.8819,-0.8819,-0.8377,-0.7826,-0.716,-0.716,-0.7268,-0.6935,-0.7046,-0.7154,-0.7154,-0.7154,-0.7154,-0.7154,-0.7154,-0.7154,-0.7154,-0.7154,-0.7154,-0.7154,-0.7268,-0.7379,-0.7379,-0.8042,-0.8706,-0.9037,-0.9258,-0.9699,-1.0253,-1.0472,-1.0692,-1.1021,-1.1021,-1.0911,-1.0472,-1.0029,-0.9251,-0.8367,-0.7703,-0.6932,-0.6156,-0.6044,-0.5931,0.9955,1.0194,1.0105,0.9608,0.9114,0.8524,0.0,0.0,0.0,0.6742,0.6636,0.6554,0.6469,0.6365,0.6146,0.0,0.0,0.0,0.0,0.0,0.0,0.0,0.0,0.0,0.0,0.0,0.0,0.0,0.0,0.0,0.0,0.0112,0.0113,0.0116,-0.1045,-0.224,-0.3512,-0.4364,-0.5244,-0.6039,-0.6405,-0.6773,-0.7021,-0.7021,-0.7266,-0.7755,-0.7997,0.0,0.0,-0.9095,-0.9457,-0.9579,-0.9822,-1.0183,-1.0425,-1.0547,-1.0789,-1.1152,-1.091,-1.0668,-1.0304,-0.9937,-0.9473,-0.9097,-0.9469,-0.9464,-0.9224,-0.9224,-0.8745,-0.8266,-0.8152,-0.7823,-0.7382,-0.6935,-0.7043,-0.7154,-0.6935,-0.7043,-0.7154,-0.7154,-0.7154,-0.7154,-0.7154,-0.7154,-0.7154,-0.7154,-0.7154,-0.7154,-0.7154,-0.7154,-0.7154,-0.7154,-0.7487,-0.7934,-0.8156,-0.8374,-0.8816,-0.9372,-0.9588,-0.9809,-1.0139,-1.0139,-0.9919,-0.9592,-0.9144,-0.8478,-0.7485,-0.7043,-0.6265,-0.5373,-0.5264,-0.515,0.8315,0.8216,0.8124,0.8333,0.8031,0.7531,0.0,0.0,0.6742,0.6437,0.6535,0.6554,0.6469,0.6261,0.582,0.5027,0.4704,0.0,0.0,0.0,0.0,0.0,0.0,0.0,0.0,0.0,0.0,0.0,0.0,0.0,0.0,-0.2915,-0.3186,-0.2351,-0.2745,-0.3634,-0.4923,-0.5544,-0.6037,-0.6403,-0.6775,-0.7023,-0.7385,-0.7385,-0.7755,0.0,0.0,0.0,0.0,-0.9335,-0.97,-1.0304,-1.0304,-1.0547,-1.0789,-1.1152,-1.1031,-1.0789,-1.0789,-1.0183,-0.9214,-0.8961,-0.8265,-0.7687,-0.8051,-0.8344,-0.87,-0.87,-0.8152,-0.7496,-0.7268,-0.7154,-0.7154,-0.7154,-0.7154,-0.7154,-0.7154,-0.7154,-0.7154,-0.7154,-0.7154,-0.7154,-0.7154,-0.7154,-0.7154,-0.7154,-0.7154,-0.7154,-0.7154,-0.7154,-0.7154,-0.7154,-0.7154,-0.7268,-0.7607,-0.7607,-0.7826,-0.8484,-0.8484,-0.8595,-0.8923,-0.8923,-0.8923,-0.8923,-0.8374,-0.7712,-0.7154,-0.6265,-0.5373,-0.448,-0.4148,-0.3924,0.693,0.7129,0.7129,0.6836,0.6736,0.6734,0.6439,0.0,0.6242,0.6142,0.6192,0.6128,0.585,0.5667,0.5454,0.4931,0.4485,0.0,0.0,0.0,0.0,0.0,0.0,0.0,0.0,0.0,0.0,0.0,0.0,0.0,0.0,-0.3918,-0.4056,-0.4056,-0.3838,-0.4228,-0.537,-0.561,-0.612,-0.6907,-0.7027,-0.7309,-0.775,-0.8,-0.8247,0.0,0.0,0.0,0.0,-0.9579,-0.9822,-0.9943,-0.9943,-1.0183,-1.0425,-1.0547,-1.0547,-1.0425,-0.994,-0.9332,-0.8601,-0.7991,-0.7723,-0.7451,-0.7575,-0.7768,-0.7904,-0.7815,-0.7587,-0.7268,-0.7265,-0.7154,-0.7154,-0.7154,-0.7154,-0.7154,-0.7154,-0.7154,-0.7154,-0.7154,-0.7154,-0.7154,-0.7154,-0.7154,-0.7154,-0.7154,-0.7154,-0.7154,-0.7154,-0.7154,-0.7154,-0.7154,-0.7154,-0.7265,-0.7268,-0.7379,-0.749,-0.7826,-0.7937,-0.8048,-0.8263,-0.8263,-0.8156,-0.8045,-0.7826,-0.7382,-0.6606,-0.6272,-0.5599,-0.4479,-0.3923,-0.3699,0.0,0.5802,0.6034,0.5839,0.5937,0.0,0.0,0.0,0.5754,0.5694,0.5627,0.5435,0.5151,0.5166,0.4929,0.4265,0.3815,0.0,0.0,0.0,0.0,0.0,0.0,0.0,0.0,0.0,0.0,0.0,0.0,0.0,0.0,-0.4637,-0.5004,-0.5338,-0.4927,-0.5095,-0.5864,-0.6103,-0.6612,-0.7278,-0.752,-0.7804,-0.8119,-0.8488,-0.8613,0.0,0.0,0.0,0.0,-0.9579,-0.97,-0.9822,-0.97,-0.9822,-1.0061,-0.9943,-0.9819,-0.9694,-0.8967,-0.8358,-0.7744,-0.7385,-0.7266,-0.7385,-0.7385,-0.7501,-0.7551,-0.7383,-0.7282,-0.7211,-0.7057,-0.7046,-0.6935,-0.6935,-0.6826,-0.6826,-0.6826,-0.6826,-0.6826,-0.6826,-0.6935,-0.7046,-0.7046,-0.7154,-0.7154,-0.7154,-0.7154,-0.7154,-0.7154,-0.7154,-0.7154,-0.7154,-0.7154,-0.7154,-0.7154,-0.7154,-0.7268,-0.7493,-0.7493,-0.749,-0.7712,-0.7712,-0.7601,-0.7493,-0.7493,-0.7051,-0.6274,-0.5938,-0.5377,-0.4592,-0.4035,-0.3701,0.0,0.0,0.0,0.0,0.0,0.0,0.0,0.0,0.0,0.5163,0.4944,0.4605,0.4353,0.454,0.4372,0.3367,0.0,0.0,0.0,0.0,0.0,0.0,0.0,0.0,0.0,0.0,0.0,0.0,0.0,0.0,0.0,-0.5173,-0.5796,-0.6136,-0.6071,-0.6156,-0.6505,-0.7116,-0.7365,-0.7497,-0.8111,-0.836,-0.8491,-0.8732,-0.9095,0.0,0.0,0.0,0.0,-0.9335,-0.9457,-0.9697,-0.9335,-0.9335,-0.9579,-0.9335,-0.8967,-0.8596,-0.7991,-0.738,-0.6891,-0.6898,-0.7143,-0.7385,-0.7385,-0.7551,-0.7652,-0.7311,-0.7241,-0.7207,-0.6756,-0.6614,-0.6614,-0.6274,-0.6163,-0.6163,-0.6163,-0.6163,-0.6163,-0.6163,-0.6381,-0.6604,-0.6604,-0.6935,-0.7154,-0.7154,-0.7154,-0.7154,-0.7154,-0.7154,-0.7154,-0.7154,-0.7154,-0.7154,-0.7154,-0.7154,-0.7154,-0.7154,-0.7154,-0.7154,-0.7154,-0.7154,-0.7154,-0.7154,-0.7154,-0.6824,-0.6274,-0.5377,-0.4931,-0.4929,-0.426,-0.4036,0.2111,0.0,0.3929,0.4029,0.4332,0.0,0.0,0.0,0.0,0.0,0.0,0.0,0.0,0.0,0.0,0.0,0.0,0.0,0.0,0.0,0.0,0.0,0.0,0.0,0.0,0.0,0.0,0.0,0.0,0.0,0.0,-0.5731,-0.6162,-0.6701,-0.6872,-0.7059,-0.6889,-0.7125,-0.7406,-0.7979,-0.8219,-0.8395,-0.8732,-0.9095,-0.9214,0.0,0.0,0.0,-0.9335,-0.8845,-0.8601,-0.872,-0.8108,-0.8111,-0.8358,-0.7989,-0.7744,-0.7627,-0.7258,-0.7016,-0.6898,-0.69,-0.6775,-0.665,-0.6898,-0.7188,-0.7324,-0.7269,-0.6957,-0.6635,-0.6303,-0.6164,-0.603,-0.5394,-0.5266,-0.5154,-0.4929,-0.5041,-0.5266,-0.5266,-0.5599,-0.6044,-0.6044,-0.627,-0.6495,-0.6495,-0.6495,-0.6604,-0.6824,-0.6824,-0.6935,-0.7154,-0.7154,-0.7154,-0.7154,-0.7154,-0.7154,-0.7154,-0.7154,-0.7154,-0.7154,-0.7154,-0.7154,-0.7154,-0.6935,-0.6604,-0.6274,-0.5599,-0.515,-0.4929,-0.4594,-0.4369,0.0856,0.1948,0.3192,0.3624,0.4038,0.425,0.0,0.0,0.0,0.0,0.0,0.0,0.0,0.0,0.0,0.0,0.0,0.0,0.0,0.0,0.0,0.0,0.0,0.0,0.0,0.0,0.0,0.0,0.0,0.0,0.0,-0.6345,-0.6679,-0.7136,-0.7508,-0.7448,-0.7202,-0.756,-0.7954,-0.8265,-0.8624,-0.8781,-0.9095,-0.9335,-0.9457,0.0,0.0,0.0,-0.8845,-0.7989,-0.7744,-0.7622,-0.7008,-0.6888,-0.7138,-0.6891,-0.6893,-0.7143,-0.6771,-0.6773,-0.69,-0.6532,-0.6283,-0.6156,-0.616,-0.6122,-0.6071,-0.6628,-0.6336,-0.5802,-0.548,-0.5458,-0.533,-0.4712,-0.4473,-0.4243,-0.4127,-0.4102,-0.4079,-0.4307,-0.4616,-0.4925,-0.4925,-0.5264,-0.5489,-0.5603,-0.5603,-0.5824,-0.6267,-0.627,-0.649,-0.6935,-0.6935,-0.7043,-0.7154,-0.7154,-0.7154,-0.7154,-0.7154,-0.7154,-0.7154,-0.7154,-0.7154,-0.7154,-0.6824,-0.6604,-0.6495,-0.6047,-0.5599,-0.5264,-0.5039,-0.4815,-0.019,0.0966,0.2364,0.3317,0.3536,0.3653,0.0,0.0,0.0,0.0,0.0,0.0,0.0,0.0,0.0,0.0,0.0,0.0,0.0,0.0,0.0,0.0,0.0,0.0,0.0,0.0,0.0,0.0,0.0,0.0,0.0,-0.68,-0.7259,-0.7477,-0.7742,-0.7875,-0.7508,-0.8125,-0.8491,-0.8491,-0.9095,-0.9335,-0.9335,-0.97,-0.9579,-0.9335,0.0,0.0,-0.8113,-0.7136,-0.6766,-0.6644,-0.6031,-0.591,-0.6158,-0.5914,-0.6285,-0.6775,-0.6528,-0.6528,-0.653,-0.6164,-0.5914,-0.5663,-0.5297,-0.4807,-0.455,-0.5577,-0.5435,-0.5056,-0.4624,-0.4606,-0.4487,-0.4008,-0.3535,-0.3298,-0.3298,-0.3146,-0.2999,-0.3345,-0.364,-0.3933,-0.3933,-0.415,-0.4482,-0.4706,-0.4706,-0.4929,-0.5487,-0.5599,-0.5933,-0.649,-0.6604,-0.6824,-0.7154,-0.7154,-0.7154,-0.7154,-0.7154,-0.7154,-0.7154,-0.7154,-0.7154,-0.7154,-0.6935,-0.6712,-0.6715,-0.6495,-0.6161,-0.5824,-0.5596,-0.5373,-0.1233,-0.0,0.1282,0.1307,0.1615,0.1925,0.0,0.0,0.0,0.0,0.0,0.0,0.0,0.0,0.0,0.0,0.0,0.0,0.0,0.0,0.0,0.0,0.0,0.0,0.0,0.0,0.0,0.0,0.0,0.0,0.0,-0.6995,-0.7225,-0.7605,-0.8069,-0.8247,-0.8247,-0.8369,-0.861,-0.9217,-0.9217,-0.9457,-0.97,-0.9819,-0.9579,-0.9214,0.0,-0.8113,-0.7508,-0.6528,-0.5914,-0.5544,-0.5177,-0.53,-0.5544,-0.5544,-0.5912,-0.6528,-0.6775,-0.6158,-0.5297,-0.6166,-0.5673,-0.4684,-0.4313,-0.407,-0.4071,-0.4185,-0.4426,-0.4531,-0.4102,-0.3966,-0.3713,-0.2482,-0.2239,-0.2121,-0.2121,-0.2235,-0.2466,-0.2466,-0.2895,-0.3319,-0.3319,-0.3847,-0.4148,-0.3811,-0.3811,-0.4035,-0.4592,-0.4927,-0.5264,-0.5822,-0.6379,-0.6715,-0.6826,-0.7043,-0.7154,-0.7154,-0.7154,-0.7154,-0.7154,-0.7154,-0.7154,-0.7154,-0.7154,-0.6935,-0.6715,-0.6604,-0.6492,-0.6274,-0.6161,-0.5938,-0.1538,-0.0975,-0.0197,0.0302,0.101,0.1623,0.155,0.0,0.0,0.0,0.0,0.0,0.0,0.0,0.0,0.0,0.0,0.0,0.0,0.0,0.0,0.0,0.0,0.0,0.0,0.0,0.0,0.0,0.0,0.0,0.0,-0.7451,-0.7688,-0.7934,-0.8424,-0.8732,-0.8854,-0.8854,-0.8973,-0.9335,-0.9457,-0.97,-1.0061,-0.994,-0.9579,-0.9214,0.0,-0.75,-0.6771,-0.5546,-0.5053,-0.4807,-0.4685,-0.4808,-0.5177,-0.579,-0.6283,-0.6653,-0.6283,-0.5914,-0.5794,-0.5304,-0.4441,-0.3576,-0.3081,-0.259,-0.2469,-0.2717,-0.3085,-0.3201,-0.2935,-0.2931,-0.2683,-0.1817,-0.1814,-0.1934,-0.1934,-0.2042,-0.203,-0.203,-0.2356,-0.2446,-0.2446,-0.2758,-0.2956,-0.2956,-0.2933,-0.3139,-0.3473,-0.3696,-0.4257,-0.5489,-0.5712,-0.6044,-0.6604,-0.6824,-0.7046,-0.7154,-0.7154,-0.7154,-0.7154,-0.7154,-0.7154,-0.7154,-0.7154,-0.7154,-0.6935,-0.6935,-0.6824,-0.6495,-0.6495,-0.6383,-0.1656,-0.1577,-0.129,-0.0503,0.0,0.1625,0.1966,0.0,0.0,0.0,0.0,0.0,0.0,0.0,0.0,0.0,0.0,0.0,0.0,0.0,0.0,0.0,0.0,0.0,0.0,0.0,0.0,0.0,0.0,0.0,-0.7403,-0.7752,-0.7994,-0.8245,-0.8735,-0.9064,-0.9335,-0.9335,-0.9457,-0.9457,-0.97,-1.0061,-1.0304,-1.0061,-0.9697,-0.9089,-0.7864,-0.6886,-0.6035,-0.493,-0.4438,-0.4438,-0.4439,-0.4808,-0.5179,-0.6035,-0.6405,-0.6405,-0.5914,-0.5796,-0.5675,-0.4692,-0.358,-0.2591,-0.1727,-0.1234,-0.1112,-0.1853,-0.1975,-0.1974,-0.1974,-0.1975,-0.1853,-0.1606,-0.1729,-0.1977,-0.1977,-0.1958,-0.1941,-0.1941,-0.1917,-0.1896,-0.1896,-0.1871,-0.1964,-0.2302,-0.2276,-0.2366,-0.2579,-0.2577,-0.3025,-0.4594,-0.4931,-0.5489,-0.6604,-0.6715,-0.6824,-0.7154,-0.7154,-0.7154,-0.7154,-0.7154,-0.7154,-0.7154,-0.7154,-0.7154,-0.7154,-0.7154,-0.7046,-0.6824,-0.6824,-0.6715,-0.1964,-0.1791,-0.1513,-0.1111,0.0,0.0,0.2899,0.0,0.0,0.0,0.0,0.0,0.0,0.0,0.0,0.0,0.0,0.0,0.0,0.0,0.0,0.0,0.0,0.0,0.0,0.0,0.0,0.0,0.0,0.0,-0.7619,-0.7734,-0.7973,-0.8335,-0.8825,-0.92,-0.9335,-0.9579,-0.9822,-0.9822,-1.0061,-1.0304,-1.0304,-1.0304,-0.9694,-0.8839,-0.7861,-0.6641,-0.5421,-0.4684,-0.4438,-0.4439,-0.4687,-0.5302,-0.5916,-0.6283,-0.5788,-0.5172,-0.6166,-0.5181,-0.3826,-0.5315,-0.4077,-0.1853,-0.0494,-0.0494,-0.1112,-0.1853,-0.1977,-0.1976,-0.1976,-0.1977,-0.1977,-0.1977,-0.1977,-0.1977,-0.1977,-0.1975,-0.1973,-0.1973,-0.1949,-0.1928,-0.1928,-0.1902,-0.1873,-0.1844,-0.1953,-0.2055,-0.2361,-0.157,-0.1457,-0.2464,-0.4258,-0.5714,-0.6604,-0.6715,-0.6824,-0.7154,-0.7154,-0.7154,-0.7154,-0.7154,-0.7154,-0.7154,-0.7154,-0.7154,-0.7154,-0.7154,-0.7154,-0.7154,-0.7154,-0.6935,-0.1794,-0.1708,-0.1617,-0.1415,0.0,0.0,0.0,0.0,0.0,0.0,0.0,0.0,0.0,0.0,0.0,0.0,0.0,0.0,0.0,0.0,0.0,0.0,0.0,0.0,0.0,0.0,0.0,0.0,0.0,0.0,0.0,-0.806,-0.8422,-0.8678,-0.917,-0.9433,-0.9576,-0.994,-1.0061,-1.0061,-1.0183,-1.0425,-1.0547,-1.0183,-0.9572,-0.8714,-0.7375,-0.6278,-0.5298,-0.4441,-0.4195,-0.4439,-0.5053,-0.5669,-0.616,-0.5665,-0.5667,-0.5794,-0.4933,-0.4692,-0.482,-0.383,-0.2223,-0.0617,-0.0123,-0.0123,-0.037,-0.0741,-0.1359,-0.1853,-0.1482,-0.1729,-0.1977,-0.1977,-0.1977,-0.1977,-0.1977,-0.1977,-0.1977,-0.1977,-0.1967,-0.196,-0.196,-0.1934,-0.191,-0.1898,-0.1864,-0.1606,-0.1026,-0.0564,-0.0785,-0.1905,-0.4035,-0.5491,-0.5599,-0.6267,-0.6712,-0.6935,-0.7043,-0.7154,-0.7154,-0.7154,-0.7154,-0.7154,-0.7154,-0.7154,-0.7154,-0.7154,-0.7154,-0.7154,-0.7154,-0.7154,-0.2013,-0.1616,-0.1314,0.0,0.0,0.0,0.0,0.0,0.0,0.0,0.0,0.0,0.0,0.0,0.0,0.0,0.0,0.0,0.0,0.0,0.0,0.0,0.0,0.0,0.0,0.0,0.0,0.0,0.0,0.0,0.0,-0.8357,-0.8723,-0.9026,-0.9365,-0.9629,-0.994,-1.0183,-1.0425,-1.0668,-1.0547,-1.0547,-1.0789,-1.0061,-0.9332,-0.8474,-0.6888,-0.5788,-0.5053,-0.4318,-0.4318,-0.4807,-0.53,-0.579,-0.6035,-0.5421,-0.5425,-0.5554,-0.4444,-0.4324,-0.4325,-0.2099,-0.0741,-0.0,-0.0,-0.0,-0.0,-0.0,-0.0617,-0.1359,-0.1111,-0.1482,-0.1977,-0.1977,-0.1977,-0.1977,-0.1977,-0.1977,-0.1977,-0.1977,-0.1977,-0.1977,-0.1977,-0.196,-0.1942,-0.1932,-0.1896,-0.1513,-0.0461,-0.0114,-0.0338,-0.1122,-0.3026,-0.4484,-0.5043,-0.5712,-0.627,-0.6712,-0.6935,-0.7043,-0.7154,-0.7154,-0.7154,-0.7154,-0.7154,-0.7154,-0.7154,-0.7154,-0.7154,-0.7154,-0.7154,-0.7154,-0.2623,-0.1817,0.0,0.0,0.0,0.0,0.0,0.0,0.0,0.0,0.0,0.0,0.0,0.0,0.0,0.0,0.0,0.0,0.0,0.0,0.0,0.0,0.0,0.0,0.0,0.0,0.0,0.0,0.0,0.0,0.0,-0.8484,-0.8729,-0.9367,-0.9381,-0.9638,-1.0301,-1.0304,-1.0668,-1.1273,-1.091,-1.0789,-1.0789,-1.0061,-0.9089,-0.7869,-0.6519,-0.5295,-0.4438,-0.4438,-0.4807,-0.5421,-0.5794,-0.5669,-0.5421,-0.5802,-0.5061,-0.4074,-0.544,-0.4202,-0.1729,-0.037,-0.0,-0.0,-0.0,-0.0,-0.0,-0.0,-0.0,-0.0123,-0.0864,-0.1482,-0.1977,-0.1977,-0.1977,-0.1977,-0.1977,-0.1977,-0.1977,-0.1977,-0.1977,-0.1977,-0.1977,-0.1977,-0.1967,-0.1936,-0.1932,-0.179,-0.1039,-0.0345,-0.0,-0.0,-0.1121,-0.2803,-0.5156,-0.5043,-0.5375,-0.6604,-0.6715,-0.6824,-0.7154,-0.7154,-0.7154,-0.7154,-0.7154,-0.7154,-0.7154,-0.7154,-0.7154,-0.7154,-0.7154,-0.7154,-0.202,0.0,0.0,0.0,0.0,0.0,0.0,0.0,0.0,0.0,0.0,0.0,0.0,0.0,0.0,0.0,0.0,0.0,0.0,0.0,0.0,0.0,0.0,0.0,0.0,0.0,0.0,0.0,0.0,0.0,0.0,-0.8712,-0.891,-0.9215,-0.9554,-0.9941,-1.0148,-1.0733,-1.1152,-1.1273,-1.1152,-1.091,-1.0425,-0.9451,-0.8352,-0.7133,-0.6031,-0.5298,-0.481,-0.5053,-0.5176,-0.5421,-0.5544,-0.5298,-0.5049,-0.4689,-0.395,-0.3209,-0.3211,-0.1976,-0.0494,-0.0123,-0.0,-0.0,-0.0,-0.0,-0.0,-0.0,-0.0,-0.0123,-0.0864,-0.1482,-0.1977,-0.1977,-0.1977,-0.1977,-0.1977,-0.1977,-0.1977,-0.1977,-0.1977,-0.1977,-0.1977,-0.1977,-0.1973,-0.1964,-0.1945,-0.1551,-0.0462,-0.0114,-0.0,-0.0,-0.0336,-0.1121,-0.269,-0.4033,-0.5041,-0.5375,-0.5822,-0.6379,-0.7154,-0.7154,-0.7154,-0.7154,-0.7154,-0.7154,-0.7154,-0.7154,-0.7154,-0.7154,-0.7154,-0.7154,-0.1817,0.0,0.0,0.0,0.0,0.0,0.0,0.0,0.0,0.0,0.0,0.0,0.0,0.0,0.0,0.0,0.0,0.0,0.0,0.0,0.0,0.0,0.0,0.0,0.0,0.0,0.0,0.0,0.0,0.0,0.0,-0.8826,-0.9005,-0.9373,-0.9581,-0.9972,-1.0436,-1.0767,-1.1086,-1.1273,-1.091,-1.0304,-0.9694,-0.8842,-0.7742,-0.6399,-0.5419,-0.4931,-0.4933,-0.53,-0.5421,-0.5546,-0.5297,-0.5176,-0.493,-0.4196,-0.3704,-0.3211,-0.1729,-0.0617,-0.0,-0.0,-0.0,-0.0,-0.0,-0.0,-0.0,-0.0,-0.0,-0.0123,-0.0864,-0.1482,-0.1977,-0.1977,-0.1977,-0.1977,-0.1977,-0.1977,-0.1977,-0.1977,-0.1977,-0.1977,-0.1977,-0.1977,-0.1977,-0.1977,-0.1951,-0.1555,-0.0582,-0.0114,-0.0,-0.0,-0.0,-0.0336,-0.1009,-0.269,-0.3921,-0.4592,-0.5152,-0.5819,-0.6821,-0.6932,-0.7046,-0.7154,-0.7154,-0.7154,-0.7154,-0.7154,-0.7154,-0.7154,-0.7154,-0.7154,0.0,0.0,0.0,0.0,0.0,0.0,0.0,0.0,0.0,0.0,0.0,0.0,0.0,0.0,0.0,0.0,0.0,0.0,0.0,0.0,0.0,0.0,0.0,0.0,0.0,0.0,0.0,0.0,0.0,0.0,0.0,-0.8937,-0.9109,-0.9574,-0.9705,-1.0086,-1.0859,-1.0654,-1.0744,-1.1129,-1.0176,-0.9329,-0.8593,-0.8111,-0.7011,-0.5663,-0.4807,-0.4562,-0.4933,-0.53,-0.5546,-0.5794,-0.5174,-0.5054,-0.506,-0.4198,-0.383,-0.3338,-0.0864,-0.0,-0.0,-0.0,-0.0,-0.0,-0.0,-0.0,-0.0,-0.0,-0.0,-0.0123,-0.0741,-0.1482,-0.1977,-0.1977,-0.1977,-0.1977,-0.1977,-0.1977,-0.1977,-0.1977,-0.1977,-0.1977,-0.1977,-0.1977,-0.1977,-0.1977,-0.1951,-0.18,-0.1063,-0.0465,-0.0,-0.0,-0.0,-0.0,-0.0,-0.1009,-0.2354,-0.3918,-0.4592,-0.5264,-0.6262,-0.649,-0.6824,-0.7154,-0.7154,-0.7154,-0.7154,-0.7154,-0.7154,-0.7154,-0.7154,-0.7154,0.0,0.0,0.0,0.0,0.0,0.0,0.0,0.0,0.0,0.0,0.0,0.0,0.0,0.0,0.0,0.0,0.0,0.0,0.0,0.0,0.0,0.0,0.0,0.0,0.0,0.0,0.0,0.0,0.0,0.0,-0.9268,-0.9268,-0.9393,-0.9754,-1.0107,-1.0322,-1.0273,-1.0654,-1.0565,0.0,-0.9643,-0.8723,-0.7255,-0.7133,-0.6276,-0.4684,-0.4808,-0.481,-0.4933,-0.5548,-0.5669,-0.5546,-0.5302,-0.4812,-0.4198,-0.3955,-0.3213,-0.2224,-0.0617,-0.0,-0.0,-0.0,-0.0,-0.0,-0.0,-0.0,-0.0,-0.0,-0.0,-0.0,-0.0123,-0.1111,-0.1977,-0.1977,-0.1977,-0.1977,-0.1977,-0.1977,-0.1977,-0.1977,-0.1977,-0.1977,-0.1977,-0.1977,-0.1977,-0.1977,-0.1951,-0.18,-0.1063,-0.0465,-0.0,-0.0,-0.0,-0.0,-0.0,-0.0224,-0.1121,-0.2687,-0.3811,-0.4819,-0.5819,-0.6379,-0.6824,-0.7154,-0.7154,-0.7154,-0.7154,-0.7154,-0.7154,-0.7154,-0.7154,-0.7154,0.0,0.0,0.0,0.0,0.0,0.0,0.0,0.0,0.0,0.0,0.0,0.0,0.0,0.0,0.0,0.0,0.0,0.0,0.0,0.0,0.0,0.0,0.0,0.0,0.0,0.0,0.0,0.0,0.0,-0.9268,-0.9599,-0.9596,-0.9706,-1.0036,-1.0235,-1.032,-1.0284,-1.0111,-0.9803,-0.9113,-0.8471,-0.7324,-0.5906,-0.5786,-0.5174,-0.4439,-0.481,-0.4933,-0.5177,-0.5546,-0.5421,-0.5174,-0.481,-0.4196,-0.3457,-0.3089,-0.2224,-0.0988,-0.0247,-0.0,-0.0,-0.0,-0.0,-0.0,-0.0,-0.0,-0.0,-0.0,-0.0,-0.0,-0.0,-0.0494,-0.1235,-0.1853,-0.1977,-0.1977,-0.1977,-0.1977,-0.1977,-0.1977,-0.1977,-0.1977,-0.1977,-0.1977,-0.1977,-0.1977,-0.1963,-0.1821,-0.1552,-0.0588,-0.0,-0.0,-0.0,-0.0,-0.0,-0.0224,-0.0897,-0.2017,-0.3251,-0.437,-0.5596,-0.6158,-0.6715,-0.7154,-0.7154,-0.7154,-0.7154,-0.7154,-0.7154,-0.7154,-0.7154,-0.7154,0.0,0.0,0.0,0.0,0.0,0.0,0.0,0.0,0.0,0.0,0.0,0.0,0.0,0.0,0.0,0.0,0.0,0.0,0.0,0.0,0.0,0.0,0.0,0.0,0.0,0.0,0.0,0.0,0.0,-0.9596,-0.9816,-0.9926,-1.0036,-1.0363,-1.0366,-1.0327,-1.0358,-0.9479,-0.881,-0.821,-0.6948,-0.581,-0.4785,-0.4555,-0.4438,-0.4439,-0.481,-0.5056,-0.5298,-0.5297,-0.5174,-0.4803,-0.4195,-0.358,-0.3086,-0.1976,-0.0988,-0.0,-0.0,-0.0,-0.0,-0.0,-0.0,-0.0,-0.0,-0.0,-0.0,-0.0,-0.0,-0.0,-0.0,-0.0,-0.0247,-0.1359,-0.1729,-0.1853,-0.1977,-0.1977,-0.1977,-0.1977,-0.1977,-0.1977,-0.1977,-0.1977,-0.1977,-0.1977,-0.1977,-0.1966,-0.2056,-0.1074,-0.0235,-0.0,-0.0,-0.0,-0.0,-0.0785,-0.157,-0.2131,-0.3251,-0.437,-0.5373,-0.6047,-0.6606,-0.7154,-0.7154,-0.7154,-0.7154,-0.7154,-0.7154,-0.7154,-0.7154,-0.7154,0.0,0.0,0.0,0.0,0.0,0.0,0.0,0.0,0.0,0.0,0.0,0.0,0.0,0.0,0.0,0.0,0.0,0.0,0.0,0.0,0.0,0.0,0.0,0.0,0.0,0.0,0.0,0.0,-0.9599,-0.9926,-1.0257,-1.0257,-1.0363,-1.0692,-1.0476,-1.0048,-0.9521,-0.8977,-0.8034,-0.6692,-0.5345,-0.458,-0.4352,-0.4412,-0.4438,-0.4439,-0.481,-0.4933,-0.4933,-0.4928,-0.4805,-0.4562,-0.4073,-0.383,-0.3461,-0.1112,-0.0123,-0.0,-0.0,-0.0,-0.0,-0.0,-0.0,-0.0,-0.0,-0.0,-0.0,-0.0,-0.0,-0.0,-0.0,-0.0,-0.0,-0.0247,-0.0741,-0.1235,-0.1853,-0.1977,-0.1977,-0.1977,-0.1977,-0.1977,-0.1977,-0.1977,-0.1977,-0.1977,-0.1977,-0.1966,-0.2056,-0.1807,-0.1308,-0.0115,-0.0,-0.0,-0.0,-0.202,-0.3255,-0.3363,-0.4484,-0.538,-0.571,-0.6379,-0.6824,-0.7154,-0.7154,-0.7154,-0.7154,-0.7154,-0.7154,-0.7154,-0.7154,-0.7154,0.0,0.0,0.0,0.0,0.0,0.0,0.0,0.0,0.0,0.0,0.0,0.0,0.0,0.0,0.0,0.0,0.0,0.0,0.0,0.0,0.0,0.0,0.0,0.0,0.0,0.0,0.0,0.0,-1.0036,-1.0253,-1.0472,-1.0472,-1.0472,-1.0476,-1.0147,-0.9702,-0.893,-0.7985,-0.6699,-0.5054,-0.4353,-0.4063,-0.4099,-0.4246,-0.4525,-0.4687,-0.481,-0.4933,-0.4928,-0.4805,-0.4438,-0.3825,-0.3952,-0.346,-0.2595,-0.0741,-0.0,-0.0,-0.0,-0.0,-0.0,-0.0,-0.0,-0.0,-0.0,-0.0,-0.0,-0.0,-0.0,-0.0,-0.0,-0.0,-0.0,-0.0,-0.0247,-0.0617,-0.1235,-0.1482,-0.1482,-0.1482,-0.1482,-0.1482,-0.1482,-0.1482,-0.1482,-0.1482,-0.1729,-0.1972,-0.1958,-0.1335,-0.0598,-0.0117,-0.0,-0.0228,-0.0899,-0.2244,-0.3254,-0.3587,-0.4596,-0.5377,-0.5822,-0.6381,-0.6824,-0.7154,-0.7154,-0.7154,-0.7154,-0.7154,-0.7154,-0.7154,-0.7154,-0.7154,0.0,0.0,0.0,0.0,0.0,0.0,0.0,0.0,0.0,0.0,0.0,0.0,0.0,0.0,0.0,0.0,0.0,0.0,0.0,0.0,0.0,0.0,0.0,0.0,0.0,0.0,0.0,0.0,-1.0363,-1.0472,-1.0692,-1.0692,-1.0476,-1.0147,-0.9706,-0.904,-0.8152,-0.6813,-0.5404,-0.4114,-0.3833,-0.377,-0.3815,-0.4203,-0.4487,-0.4784,-0.4802,-0.4931,-0.4805,-0.4562,-0.4071,-0.3458,-0.346,-0.2595,-0.1359,-0.037,-0.0,-0.0,-0.0,-0.0,-0.0,-0.0,-0.0,-0.0,-0.0,-0.0,-0.0,-0.0,-0.0,-0.0,-0.0,-0.0,-0.0,-0.0,-0.0,-0.0123,-0.0617,-0.0741,-0.0741,-0.0741,-0.0741,-0.0741,-0.0741,-0.0741,-0.0741,-0.0741,-0.1112,-0.1482,-0.1482,-0.0611,-0.012,-0.0472,-0.0466,-0.0918,-0.191,-0.258,-0.3254,-0.4148,-0.4817,-0.5375,-0.6044,-0.649,-0.6935,-0.7154,-0.7154,-0.7154,-0.7154,-0.7154,-0.7154,-0.7154,-0.7154,-0.7154,0.0,0.0,0.0,0.0,0.0,0.0,0.0,0.0,0.0,0.0,0.0,0.0,0.0,0.0,0.0,0.0,0.0,0.0,0.0,0.0,0.0,0.0,0.0,0.0,0.0,0.0,0.0,0.0,-1.0582,-1.0692,-1.0692,-1.0472,-1.0147,-0.9816,-0.9037,-0.8152,-0.7265,-0.5483,-0.4372,-0.4044,-0.3768,-0.3684,-0.3692,-0.44,-0.458,-0.4346,-0.4779,-0.481,-0.4562,-0.4073,-0.3952,-0.371,-0.2595,-0.1235,-0.0123,-0.0,-0.0,-0.0,-0.0,-0.0,-0.0,-0.0,-0.0,-0.0,-0.0,-0.0,-0.0,-0.0,-0.0,-0.0,-0.0,-0.0,-0.0,-0.0,-0.0,-0.0,-0.0,-0.0,-0.0,-0.0,-0.0,-0.0,-0.0,-0.0,-0.0,-0.0,-0.0123,-0.0123,-0.0123,-0.0,-0.0488,-0.1537,-0.1649,-0.1976,-0.2588,-0.3253,-0.426,-0.5723,-0.5826,-0.6044,-0.6604,-0.6935,-0.7154,-0.7154,-0.7154,-0.7154,-0.7154,-0.7154,-0.7154,-0.7154,-0.7154,-0.7154,0.0,0.0,0.0,0.0,0.0,0.0,0.0,0.0,0.0,0.0,0.0,0.0,0.0,0.0,0.0,0.0,0.0,0.0,0.0,0.0,0.0,0.0,0.0,0.0,0.0,0.0,0.0,0.0,0.0,-1.0582,-1.0472,-1.0147,-0.9702,-0.9037,-0.8152,-0.693,-0.5483,-0.4594,-0.4036,-0.3701,-0.3723,-0.364,-0.3681,-0.4231,-0.4176,-0.3739,-0.441,-0.4441,-0.4073,-0.3085,-0.2716,-0.2595,-0.1235,-0.037,-0.0,-0.0,-0.0,-0.0,-0.0,-0.0,-0.0,-0.0,-0.0,-0.0,-0.0,-0.0,-0.0,-0.0,-0.0,-0.0,-0.0,-0.0,-0.0,-0.0,-0.0,-0.0,-0.0,-0.0,-0.0,-0.0,-0.0,-0.0,-0.0,-0.0,-0.0,-0.0,-0.0,-0.037,-0.1112,-0.1235,-0.147,-0.1919,-0.2489,-0.3036,-0.3312,-0.4402,-0.5158,-0.5268,-0.5935,-0.6492,-0.6715,-0.7046,-0.7154,-0.7154,-0.7154,-0.7154,-0.7154,-0.7154,-0.7154,-0.7154,-0.7154,-0.7154,0.0,0.0,0.0,0.0,0.0,0.0,0.0,0.0,0.0,0.0,0.0,0.0,0.0,0.0,0.0,0.0,0.0,0.0,0.0,0.0,0.0,0.0,0.0,0.0,0.0,0.0,0.0,0.0,0.0,0.0,-1.0147,-0.9592,-0.8816,-0.7598,-0.6707,-0.5706,-0.4369,-0.4036,-0.3813,-0.3587,-0.3475,-0.3495,-0.3535,-0.394,-0.377,-0.3352,-0.4012,-0.4052,-0.3579,-0.2962,-0.2099,-0.1235,-0.037,-0.0,-0.0,-0.0,-0.0,-0.0,-0.0,-0.0,-0.0,-0.0,-0.0,-0.0,-0.0,-0.0,-0.0,-0.0,-0.0,-0.0,-0.0,-0.0,-0.0,-0.0,-0.0,-0.0,-0.0,-0.0,-0.0,-0.0,-0.0,-0.0,-0.0,-0.0,-0.0,-0.0,-0.037,-0.1112,-0.2471,-0.2471,-0.2455,-0.2659,-0.3211,-0.3744,-0.4141,-0.5092,-0.5605,-0.5489,-0.6267,-0.6712,-0.6824,-0.7043,-0.7154,-0.7154,-0.7154,-0.7154,-0.7154,-0.7154,-0.7154,-0.7154,-0.7154,-0.7154,0.0,0.0,0.0,0.0,0.0,0.0,0.0,0.0,0.0,0.0,0.0,0.0,0.0,0.0,0.0,0.0,0.0,0.0,0.0,0.0,0.0,0.0,0.0,0.0,0.0,0.0,0.0,0.0,-1.0476,-1.0147,-0.9816,-0.893,-0.7595,-0.5822,-0.4927,-0.4369,-0.4036,-0.3699,-0.3587,-0.3587,-0.325,-0.3137,-0.3139,-0.3536,-0.348,-0.3064,-0.3713,-0.3529,-0.2961,-0.3584,-0.2347,-0.0,-0.0,-0.0,-0.0,-0.0,-0.0,-0.0,-0.0,-0.0,-0.0,-0.0,-0.0,-0.0,-0.0,-0.0,-0.0,-0.0,-0.0,-0.0,-0.0,-0.0,-0.0,-0.0,-0.0,-0.0,-0.0,-0.0,-0.0,-0.0,-0.0,-0.0,-0.0,-0.0,-0.0,-0.0,-0.1235,-0.2471,-0.371,-0.3334,-0.3313,-0.3868,-0.3808,-0.4096,-0.5056,-0.4979,-0.5491,-0.6604,-0.6715,-0.6824,-0.7154,-0.7154,-0.7154,-0.7154,-0.7154,-0.7154,-0.7154,-0.7154,-0.7154,-0.7154,-0.7154,-0.7154,-0.7842,0.0,0.0,0.0,0.0,0.0,0.0,0.0,0.0,0.0,0.0,0.0,0.0,0.0,0.0,0.0,0.0,0.0,0.0,0.0,0.0,0.0,0.0,0.0,0.0,0.0,0.0,0.0,-0.9926,-0.9375,-0.8927,-0.7374,-0.6154,-0.5152,-0.4484,-0.4036,-0.3699,-0.3587,-0.3475,-0.325,-0.3366,-0.3255,-0.3031,-0.2969,-0.2669,-0.224,-0.3358,-0.3288,-0.2346,-0.2471,-0.1482,-0.0,-0.0,-0.0,-0.0,-0.0,-0.0,-0.0,-0.0,-0.0,-0.0,-0.0,-0.0,-0.0,-0.0,-0.0,-0.0,-0.0,-0.0,-0.0,-0.0,-0.0,-0.0,-0.0,-0.0,-0.0,-0.0,-0.0,-0.0,-0.0,-0.0,-0.0,-0.0,-0.0,-0.037,-0.1359,-0.2595,-0.3337,-0.3458,-0.358,-0.3942,-0.4532,-0.4711,-0.511,-0.5725,-0.6098,-0.6463,-0.672,-0.6935,-0.7154,-0.7154,-0.7154,-0.7154,-0.7154,-0.7154,-0.7154,-0.7154,-0.7154,-0.7154,-0.7154,-0.7154,-0.7154,0.0,0.0,0.0,0.0,0.0,0.0,-0.8916,-0.894,0.0,0.0,0.0,0.0,0.0,0.0,0.0,0.0,0.0,0.0,0.0,0.0,0.0,0.0,0.0,0.0,0.0,-1.0257,-1.0033,-0.9699,-0.9151,-0.8377,-0.7376,-0.604,-0.5041,-0.4596,-0.4036,-0.3813,-0.3587,-0.3475,-0.3363,-0.3253,-0.2806,-0.2469,-0.202,-0.1927,-0.1723,-0.1518,-0.3207,-0.3137,-0.1959,-0.1355,-0.0741,-0.0,-0.0,-0.0,-0.0,-0.0,-0.0,-0.0,-0.0,-0.0,-0.0,-0.0,-0.0,-0.0,-0.0,-0.0,-0.0,-0.0,-0.0,-0.0,-0.0,-0.0,-0.0,-0.0,-0.0,-0.0,-0.0,-0.0,-0.0,-0.0,-0.0,-0.0,-0.0,-0.0494,-0.1235,-0.2595,-0.3337,-0.3706,-0.3825,-0.407,-0.4562,-0.5298,-0.5589,-0.5977,-0.6471,-0.6717,-0.6951,-0.6943,-0.7043,-0.7154,-0.7154,-0.7154,-0.7154,-0.7154,-0.7154,-0.7154,-0.7154,-0.7154,-0.7154,-0.7154,-0.7154,-0.7154,0.0,0.0,0.0,0.0,0.0,0.0,-0.894,-0.894,-0.894,0.0,0.0,0.0,0.0,0.0,0.0,0.0,0.0,0.0,0.0,0.0,0.0,0.0,0.0,0.0,-1.0257,-0.9926,-0.9372,-0.8813,-0.8149,-0.7154,-0.5822,-0.4927,-0.4258,-0.4038,-0.3699,-0.3587,-0.3589,-0.325,-0.3141,-0.3369,-0.1908,-0.1009,-0.0561,-0.0561,-0.0679,-0.0921,-0.2688,-0.2852,-0.1692,-0.049,-0.0,-0.0,-0.0,-0.0,-0.0,-0.0,-0.0,-0.0,-0.0,-0.0,-0.0,-0.0,-0.0,-0.0,-0.0,-0.0,-0.0,-0.0,-0.0,-0.0,-0.0,-0.0,-0.0,-0.0,-0.0,-0.0,-0.0,-0.0,-0.0,-0.0,-0.0,-0.0,-0.0247,-0.1482,-0.2718,-0.371,-0.3706,-0.3824,-0.4562,-0.4928,-0.5297,-0.6039,-0.6326,-0.6593,-0.7085,-0.697,-0.7082,-0.7182,-0.7163,-0.7154,-0.7154,-0.7154,-0.7154,-0.7154,-0.7154,-0.7154,-0.7154,-0.7154,-0.7154,-0.7154,-0.7154,-0.7154,0.0,0.0,0.0,0.0,0.0,0.0,-0.894,-0.894,-0.894,0.0,0.0,0.0,0.0,0.0,0.0,0.0,0.0,0.0,0.0,0.0,0.0,0.0,0.0,0.0,-0.9596,-0.904,-0.8484,-0.7925,-0.6594,-0.5706,-0.5152,-0.4482,-0.4036,-0.4038,-0.3475,-0.3365,-0.3593,-0.3255,-0.258,-0.1683,-0.1234,-0.0673,-0.0112,0.0897,0.0792,-0.023,-0.0577,-0.0587,-0.0362,-0.0121,-0.0,-0.0,-0.0,-0.0,-0.0,-0.0,-0.0,-0.0,-0.0,-0.0,-0.0,-0.0,-0.0,-0.0,-0.0,-0.0,-0.0,-0.0,-0.0,-0.0,-0.0,-0.0,-0.0,-0.0,-0.0,-0.0,-0.0,-0.0,-0.0,-0.0,-0.0,-0.037,-0.1482,-0.3584,-0.4697,-0.3581,-0.4564,-0.53,-0.5298,-0.579,-0.6403,-0.7018,-0.7121,-0.7309,-0.7557,-0.7437,-0.7316,-0.7307,-0.7209,-0.7154,-0.7154,-0.7154,-0.7154,-0.7154,-0.7154,-0.7154,-0.7154,-0.7154,-0.7154,-0.7154,-0.7154,-0.7154,0.0,0.0,0.0,-0.9258,0.0,0.0,0.0,-0.8602,-0.8491,0.0,0.0,0.0,0.0,0.0,0.0,0.0,0.0,0.0,0.0,0.0,0.0,0.0,0.0,0.0,-0.8712,-0.8039,-0.726,-0.6374,-0.526,-0.4594,-0.4484,-0.4036,-0.3699,-0.3587,-0.3365,-0.3142,-0.2693,-0.2132,-0.1458,-0.0897,-0.0336,0.0224,0.0897,0.157,0.1465,0.0909,0.0229,-0.0,-0.0,-0.0,-0.0,-0.0,-0.0,-0.0,-0.0,-0.0,-0.0,-0.0,-0.0,-0.0,-0.0,-0.0,-0.0,-0.0,-0.0,-0.0,-0.0,-0.0,-0.0,-0.0,-0.0,-0.0,-0.0,-0.0,-0.0,-0.0,-0.0,-0.0,-0.0247,-0.0864,-0.2099,-0.3211,-0.383,-0.4324,-0.4569,-0.4564,-0.5177,-0.5669,-0.5912,-0.6526,-0.7018,-0.7385,-0.7508,-0.768,-0.7625,-0.7554,-0.744,-0.7255,-0.7187,-0.7154,-0.7154,-0.7154,-0.7154,-0.7154,-0.7154,-0.7154,-0.7154,-0.7154,-0.7154,-0.7154,-0.7154,-0.7154,0.0,0.0,0.0,0.0,0.0,-0.8263,0.0,0.0,0.0,-0.7709,0.0,0.0,0.0,0.0,0.0,0.0,0.0,0.0,0.0,0.0,0.0,0.0,0.0,0.0,0.0,-0.6816,-0.5815,-0.4817,-0.426,-0.3924,-0.3924,-0.3699,-0.3475,-0.3251,-0.3254,-0.2693,-0.1683,-0.0785,-0.0336,-0.0112,0.0561,0.1121,0.1683,0.1795,0.1683,0.1347,0.0455,-0.0,-0.0,-0.0,-0.0,-0.0,-0.0,-0.0,-0.0,-0.0,-0.0,-0.0,-0.0,-0.0,-0.0,-0.0,-0.0,-0.0,-0.0,-0.0,-0.0,-0.0,-0.0,-0.0,-0.0,-0.0,-0.0,-0.0,-0.0,-0.0,-0.0,-0.0247,-0.0864,-0.2471,-0.4202,-0.544,-0.544,-0.4569,-0.4316,-0.5671,-0.5792,-0.6035,-0.6526,-0.7138,-0.7508,-0.7508,-0.775,-0.7785,-0.7573,-0.7532,-0.7423,-0.7203,-0.7168,-0.7154,-0.7154,-0.7154,-0.7154,-0.7154,-0.7154,-0.7154,-0.7154,-0.7154,-0.7154,-0.7154,-0.7154,-0.7154,0.0,0.0,0.0,0.0,-0.7931,0.0,0.0,0.0,-0.6485,-0.6485,0.0,0.0,0.0,0.0,0.0,0.0,0.0,0.0,0.0,0.0,0.0,0.0,0.0,0.0,0.0,-0.5262,-0.4592,-0.4148,-0.3813,-0.3699,-0.3699,-0.3587,-0.3589,-0.3593,-0.2581,-0.1683,-0.1009,-0.0,0.0785,0.157,0.157,0.1458,0.1009,0.157,0.1234,0.0224,0.0112,-0.0,-0.0,-0.0,-0.0,-0.0,-0.0,-0.0,-0.0,-0.0,-0.0,-0.0,-0.0,-0.0,-0.0,-0.0,-0.0,-0.0,-0.0,-0.0,-0.0,-0.0,-0.0,-0.0,-0.0,-0.0,-0.0,-0.0,-0.0,-0.0,-0.0,-0.0988,-0.2471,-0.4945,-0.4447,-0.358,-0.358,-0.5058,-0.6043,-0.5544,-0.6403,-0.7141,-0.7263,-0.7627,-0.7872,-0.7872,-0.7869,-0.7818,-0.7693,-0.7581,-0.7462,-0.7323,-0.7214,-0.7154,-0.7154,-0.7154,-0.7154,-0.7154,-0.7154,-0.7154,-0.7154,-0.7154,-0.7154,-0.7154,-0.7154,-0.7154,0.0,0.0,0.0,0.0,0.0,0.0,-0.6487,0.0,-0.5817,0.0,0.0,0.0,0.0,0.0,0.0,0.0,0.0,0.0,0.0,0.0,0.0,0.0,0.0,0.0,0.0,0.0,0.0,0.0,-0.3699,-0.3587,-0.3587,-0.3362,-0.3251,-0.3256,-0.1907,-0.0785,-0.0,0.0897,0.1458,0.1795,0.1795,0.1683,0.1458,0.1009,0.0449,-0.0,-0.0,-0.0,-0.0,-0.0,-0.0,-0.0,-0.0,-0.0,-0.0,-0.0,-0.0,-0.0,-0.0,-0.0,-0.0,-0.0,-0.0,-0.0,-0.0,-0.0,-0.0,-0.0,-0.0,-0.0,-0.0,-0.0,-0.0,-0.0,-0.0,-0.0247,-0.0988,-0.2224,-0.3337,-0.4199,-0.4566,-0.4808,-0.4561,-0.53,-0.6039,-0.6528,-0.7018,-0.7508,-0.7627,-0.7872,-0.7872,-0.7872,-0.7812,-0.7725,-0.7606,-0.7483,-0.7361,-0.7239,-0.7182,-0.7154,-0.7154,-0.7154,-0.7154,-0.7154,-0.7379,-0.7382,-0.7382,-0.7601,-0.7709,-0.7709,-0.749,-0.7382,-0.826,0.0,0.0,0.0,0.0,0.0,0.0,0.0,0.0,0.0,0.0,0.0,0.0,0.0,0.0,0.0,0.0,0.0,0.0,0.0,0.0,0.0,0.0,0.0,0.0,0.0,0.0,-0.3699,-0.3587,-0.3587,-0.3587,-0.3363,-0.3029,-0.2469,-0.1234,-0.0112,0.0897,0.1458,0.1795,0.1795,0.1683,0.1683,0.1795,0.0561,-0.0,-0.0,-0.0,-0.0,-0.0,-0.0,-0.0,-0.0,-0.0,-0.0,-0.0,-0.0,-0.0,-0.0,-0.0,-0.0,-0.0,-0.0,-0.0,-0.0,-0.0,-0.0,-0.0,-0.0,-0.0,-0.0,-0.0,-0.0,-0.0,-0.0,-0.0,-0.0494,-0.21,-0.3213,-0.3954,-0.3948,-0.4931,-0.5792,-0.5912,-0.5912,-0.628,-0.7263,-0.7508,-0.763,-0.7872,-0.7872,-0.7872,-0.7872,-0.7769,-0.7652,-0.7529,-0.7407,-0.7285,-0.7163,-0.7268,-0.7268,-0.7268,-0.7376,-0.7376,-0.7376,-0.7712,-0.7826,-0.7826,-0.8156,-0.8263,-0.8374,-0.8048,-0.7826,0.0,0.0,0.0,-0.5594,0.0,0.0,0.0,0.0,-0.3699,0.0,0.0,0.0,0.0,0.0,0.0,-0.3602,0.0,0.0,0.0,0.0,0.0,0.0,0.0,0.0,0.0,0.0,0.0,-0.4036,-0.3701,-0.3587,-0.3587,-0.3591,-0.2919,-0.1346,-0.0785,0.0112,0.1795,0.1795,0.1795,0.1795,0.1234,0.1234,0.1795,0.0561,-0.0,-0.0,-0.0,-0.0,-0.0,-0.0,-0.0,-0.0,-0.0,-0.0,-0.0,-0.0,-0.0,-0.0,-0.0,-0.0,-0.0,-0.0,-0.0,-0.0,-0.0,-0.0,-0.0,-0.0,-0.0,-0.0,-0.0,-0.0,-0.0,-0.0,-0.0,-0.0741,-0.3338,-0.383,-0.4319,-0.5548,-0.5546,-0.579,-0.7141,-0.7385,-0.7385,-0.7385,-0.7627,-0.7872,-0.7872,-0.7872,-0.7872,-0.7872,-0.7769,-0.7652,-0.7529,-0.7407,-0.7285,-0.7163,-0.7493,-0.7607,-0.7607,-0.7826,-0.7934,-0.7934,-0.8263,-0.8484,-0.8484,-0.8702,-0.903,-0.9361,-0.8702,-0.8484,0.0,0.0,-0.5822,-0.5708,0.0,0.0,0.0,0.0,0.0,0.0,0.0,0.0,0.0,0.0,-0.4044,-0.3825,-0.3771,0.0,0.0,0.0,0.0,0.0,0.0,0.0,0.0,0.0,0.0,-0.4038,-0.3701,-0.3475,-0.325,-0.3254,-0.2469,-0.0897,-0.0112,0.0673,0.1795,0.1795,0.1795,0.1795,0.157,0.1234,0.0561,0.0224,-0.0,-0.0,-0.0,-0.0,-0.0,-0.0,-0.0,-0.0,-0.0,-0.0,-0.0,-0.0,-0.0,-0.0,-0.0,-0.0,-0.0,-0.0,-0.0,-0.0,-0.0,-0.0,-0.0,-0.0,-0.0,-0.0,-0.0,-0.0,-0.0,-0.0,-0.0596,-0.1561,-0.3033,-0.3648,-0.4267,-0.5412,-0.579,-0.6403,-0.7263,-0.7627,-0.775,-0.775,-0.7872,-0.7872,-0.7872,-0.7872,-0.7842,-0.7766,-0.7652,-0.7532,-0.7407,-0.7401,-0.7539,-0.7496,-0.7934,-0.8156,-0.8156,-0.8484,-0.8702,-0.8923,-0.9258,-0.9482,-0.9588,-0.9919,-1.0139,-1.0249,-1.0249,-1.0029,-0.5826,-0.5601,0.0,-0.5375,-0.5041,0.0,-0.4706,0.0,0.0,0.0,0.0,0.0,0.0,0.0,0.0,-0.4191,-0.4152,-0.4029,0.0,-0.4007,0.0,0.0,0.0,0.0,0.0,0.0,-0.4258,-0.426,-0.3924,-0.3587,0.0,0.0,-0.2131,-0.0561,0.0449,0.1234,0.1795,0.1795,0.1795,0.1795,0.1795,0.1121,-0.0,-0.0,-0.0,-0.0,-0.0,-0.0,-0.0,-0.0,-0.0,-0.0,-0.0,-0.0,-0.0,-0.0,-0.0,-0.0,-0.0,-0.0,-0.0,-0.0,-0.0,-0.0,-0.0,-0.0,-0.0,-0.0,-0.0,-0.0,-0.0,-0.0357,-0.0715,-0.1173,-0.176,-0.2362,-0.3222,-0.4203,-0.4957,-0.561,-0.6257,-0.6893,-0.7508,-0.775,-0.7872,-0.7872,-0.7872,-0.7872,-0.7872,-0.7837,-0.7782,-0.7709,-0.7668,-0.7634,-0.7508,-0.7762,-0.7937,-0.8045,-0.8598,-0.9037,-0.9147,-0.9364,-0.9695,-0.9805,-1.0143,-1.0363,-1.0472,-1.0911,-1.1021,-1.1131,-1.135,-1.1236]},{"header":{"parameterUnit":"m.s-1","parameterCategory":1,"la1":30.6,"la2":29.2853,"lo1":-89.7004,"lo2":-87.6739,"dy":0.0162,"dx":0.0183,"nx":112,"ny":82,"refTime":"2023-08-11T18:00:00:Z","depth":0,"parameterNumber":3,"parameterNumberName":"V-component_of_WINDS"},"data":[0.0,0.0,0.0,0.0,0.0,0.0,0.0,0.0,0.0,0.0,0.0,0.0,0.0,0.0,0.0,0.0,0.0,0.0,0.0,0.0,0.0,0.0,0.0,0.0,0.0,0.0,0.0,0.0,0.0,0.0,0.0,0.0,0.0,0.0,0.0,0.0,0.0,0.0,0.0,0.0,0.0,0.0,0.0,0.0,0.0,0.0,0.0,0.0,0.0,0.0,0.0,0.0,0.0,0.0,0.0,0.0,0.0,0.0,0.0,0.0,0.0,0.0,0.0,0.0,0.0,0.0,0.0,0.0,0.0,0.0,0.0,0.0,0.0,0.0,0.0,0.0,0.0,0.0,0.0,0.0,0.0,0.0,0.0,0.0,0.0,0.0,0.0,0.0,0.0,0.0,0.0,-3.2038,-3.2249,-3.2454,-3.259,-3.2784,-3.2957,-3.3068,0.0,0.0,0.0,0.0,0.0,0.0,0.0,0.0,0.0,0.0,0.0,0.0,0.0,0.0,0.0,0.0,0.0,0.0,0.0,0.0,0.0,0.0,0.0,0.0,0.0,0.0,0.0,0.0,0.0,0.0,0.0,0.0,0.0,0.0,0.0,0.0,0.0,0.0,0.0,0.0,0.0,0.0,0.0,0.0,0.0,0.0,0.0,0.0,0.0,0.0,0.0,0.0,0.0,0.0,0.0,0.0,0.0,0.0,0.0,0.0,0.0,0.0,0.0,0.0,0.0,0.0,0.0,0.0,0.0,0.0,0.0,0.0,0.0,0.0,0.0,0.0,0.0,0.0,0.0,0.0,0.0,0.0,0.0,0.0,0.0,0.0,0.0,0.0,0.0,0.0,0.0,0.0,0.0,0.0,0.0,0.0,0.0,0.0,0.0,0.0,0.0,0.0,0.0,0.0,-3.2318,-3.257,-3.2784,-3.293,-3.2993,-3.3196,-3.3375,-3.3502,0.0,0.0,0.0,0.0,0.0,0.0,0.0,0.0,0.0,0.0,0.0,0.0,0.0,0.0,0.0,0.0,0.0,0.0,0.0,0.0,0.0,0.0,0.0,0.0,0.0,0.0,0.0,0.0,0.0,0.0,0.0,0.0,0.0,0.0,0.0,0.0,0.0,0.0,0.0,0.0,0.0,0.0,0.0,0.0,0.0,0.0,0.0,0.0,0.0,0.0,0.0,0.0,0.0,0.0,0.0,0.0,0.0,0.0,0.0,0.0,0.0,0.0,0.0,0.0,0.0,0.0,0.0,0.0,0.0,0.0,0.0,0.0,0.0,0.0,0.0,0.0,0.0,0.0,0.0,0.0,0.0,0.0,0.0,0.0,0.0,0.0,0.0,0.0,0.0,0.0,0.0,0.0,0.0,0.0,0.0,0.0,0.0,0.0,0.0,0.0,0.0,0.0,0.0,-3.2654,-3.2752,-3.2912,-3.3086,-3.3256,-3.3316,-3.3502,-3.3643,-3.3753,-3.386,0.0,0.0,0.0,0.0,0.0,0.0,0.0,0.0,0.0,0.0,0.0,0.0,0.0,0.0,0.0,0.0,0.0,0.0,0.0,0.0,0.0,0.0,0.0,0.0,0.0,0.0,0.0,0.0,0.0,0.0,0.0,0.0,0.0,0.0,0.0,0.0,0.0,0.0,0.0,0.0,0.0,0.0,0.0,0.0,0.0,0.0,0.0,0.0,0.0,0.0,0.0,0.0,0.0,0.0,0.0,0.0,0.0,0.0,0.0,0.0,0.0,0.0,0.0,0.0,0.0,0.0,0.0,0.0,0.0,0.0,0.0,0.0,0.0,0.0,0.0,0.0,0.0,0.0,0.0,0.0,0.0,0.0,0.0,0.0,0.0,0.0,0.0,0.0,0.0,0.0,0.0,0.0,0.0,0.0,0.0,0.0,0.0,0.0,0.0,0.0,0.0,0.0,-3.3147,-3.319,-3.3238,-3.3404,-3.3549,-3.3587,-3.378,-3.3895,-3.3998,-3.4173,0.0,0.0,0.0,0.0,0.0,0.0,0.0,0.0,0.0,0.0,0.0,0.0,0.0,0.0,0.0,0.0,0.0,0.0,0.0,0.0,0.0,0.0,0.0,0.0,0.0,0.0,0.0,0.0,0.0,0.0,0.0,0.0,0.0,0.0,0.0,0.0,0.0,0.0,0.0,0.0,0.0,0.0,0.0,0.0,0.0,0.0,0.0,0.0,0.0,0.0,0.0,0.0,0.0,0.0,0.0,0.0,0.0,0.0,0.0,0.0,0.0,0.0,0.0,0.0,0.0,0.0,0.0,0.0,0.0,0.0,0.0,0.0,0.0,0.0,0.0,0.0,0.0,0.0,0.0,0.0,0.0,0.0,0.0,0.0,0.0,0.0,0.0,0.0,0.0,0.0,0.0,0.0,0.0,0.0,0.0,0.0,0.0,0.0,0.0,0.0,0.0,0.0,-3.3559,-3.3643,-3.3671,-3.378,-3.3895,-3.3947,-3.4023,-3.4124,-3.4269,-3.4386,0.0,0.0,0.0,0.0,0.0,0.0,0.0,0.0,0.0,0.0,0.0,0.0,0.0,0.0,0.0,0.0,0.0,0.0,0.0,0.0,0.0,0.0,0.0,0.0,0.0,0.0,0.0,0.0,0.0,0.0,0.0,0.0,0.0,0.0,0.0,0.0,0.0,0.0,0.0,0.0,0.0,0.0,0.0,0.0,0.0,0.0,0.0,0.0,0.0,0.0,0.0,0.0,0.0,0.0,0.0,0.0,0.0,0.0,0.0,0.0,0.0,0.0,0.0,0.0,0.0,0.0,0.0,0.0,0.0,0.0,0.0,0.0,0.0,0.0,0.0,0.0,0.0,0.0,0.0,0.0,0.0,0.0,0.0,0.0,0.0,0.0,0.0,0.0,0.0,0.0,0.0,0.0,0.0,0.0,0.0,0.0,0.0,0.0,0.0,0.0,0.0,0.0,-3.3921,-3.3947,0.0,-3.4023,-3.4099,-3.4124,-3.4221,-3.4344,-3.4483,0.0,0.0,0.0,0.0,0.0,0.0,0.0,0.0,0.0,0.0,0.0,0.0,0.0,0.0,0.0,0.0,0.0,0.0,0.0,0.0,0.0,0.0,0.0,0.0,0.0,0.0,0.0,0.0,0.0,0.0,0.0,0.0,0.0,0.0,0.0,0.0,0.0,0.0,0.0,0.0,0.0,0.0,0.0,0.0,0.0,0.0,0.0,0.0,0.0,0.0,0.0,0.0,0.0,0.0,0.0,0.0,0.0,0.0,0.0,0.0,0.0,0.0,0.0,0.0,0.0,0.0,0.0,0.0,0.0,0.0,0.0,0.0,0.0,0.0,0.0,0.0,0.0,0.0,0.0,0.0,0.0,0.0,0.0,0.0,0.0,0.0,0.0,0.0,0.0,0.0,0.0,0.0,0.0,0.0,0.0,0.0,0.0,0.0,0.0,0.0,0.0,0.0,-3.4604,-3.4665,-3.4801,0.0,-3.5147,-3.5194,-3.5194,-3.5023,-3.5004,-3.5111,0.0,0.0,0.0,0.0,0.0,0.0,0.0,0.0,0.0,0.0,0.0,0.0,0.0,0.0,0.0,0.0,0.0,0.0,0.0,0.0,0.0,0.0,0.0,0.0,0.0,0.0,0.0,0.0,0.0,0.0,0.0,0.0,0.0,0.0,0.0,0.0,0.0,0.0,0.0,0.0,0.0,0.0,0.0,0.0,0.0,0.0,0.0,0.0,0.0,0.0,0.0,0.0,0.0,0.0,0.0,0.0,0.0,0.0,0.0,0.0,0.0,0.0,0.0,0.0,0.0,0.0,0.0,0.0,0.0,0.0,0.0,0.0,0.0,0.0,0.0,0.0,0.0,0.0,0.0,0.0,0.0,0.0,0.0,0.0,0.0,0.0,0.0,0.0,0.0,0.0,0.0,0.0,0.0,0.0,0.0,0.0,0.0,0.0,0.0,0.0,0.0,0.0,-3.5735,-3.5953,-3.6295,-3.7013,-3.7219,-3.7284,-3.7284,-3.6573,-3.614,0.0,0.0,0.0,0.0,0.0,0.0,0.0,0.0,0.0,0.0,0.0,0.0,0.0,0.0,0.0,0.0,0.0,0.0,0.0,0.0,0.0,0.0,0.0,0.0,0.0,0.0,0.0,0.0,0.0,0.0,0.0,0.0,0.0,0.0,0.0,0.0,0.0,0.0,0.0,0.0,0.0,0.0,0.0,0.0,0.0,0.0,0.0,0.0,0.0,0.0,0.0,0.0,0.0,0.0,0.0,0.0,0.0,0.0,0.0,0.0,0.0,0.0,0.0,0.0,0.0,0.0,0.0,0.0,0.0,0.0,0.0,0.0,0.0,0.0,0.0,0.0,0.0,0.0,0.0,0.0,0.0,0.0,0.0,0.0,0.0,0.0,0.0,0.0,0.0,0.0,0.0,0.0,0.0,0.0,0.0,0.0,0.0,0.0,0.0,0.0,0.0,0.0,0.0,-3.6976,-3.7091,-3.7205,-3.7433,-3.749,-3.7528,-3.7584,-3.741,-3.7345,-3.7392,0.0,0.0,0.0,0.0,0.0,0.0,0.0,0.0,0.0,0.0,0.0,0.0,0.0,0.0,0.0,0.0,0.0,0.0,0.0,0.0,0.0,0.0,0.0,0.0,0.0,0.0,0.0,0.0,0.0,0.0,0.0,0.0,0.0,0.0,0.0,0.0,0.0,0.0,0.0,0.0,0.0,0.0,0.0,0.0,0.0,0.0,0.0,0.0,0.0,0.0,0.0,0.0,0.0,0.0,0.0,0.0,0.0,0.0,0.0,0.0,0.0,0.0,0.0,0.0,0.0,0.0,0.0,0.0,0.0,0.0,0.0,0.0,0.0,0.0,0.0,0.0,0.0,0.0,0.0,0.0,0.0,0.0,0.0,0.0,0.0,0.0,0.0,0.0,0.0,0.0,0.0,0.0,0.0,0.0,0.0,0.0,0.0,0.0,0.0,0.0,0.0,0.0,-3.8127,-3.8242,-3.8357,-3.8663,-3.8755,-3.8772,-3.8805,-3.855,-3.8424,-3.8469,0.0,0.0,0.0,0.0,0.0,0.0,0.0,0.0,0.0,0.0,0.0,0.0,0.0,0.0,0.0,0.0,0.0,0.0,0.0,0.0,0.0,0.0,0.0,0.0,0.0,0.0,0.0,0.0,0.0,0.0,0.0,0.0,0.0,0.0,0.0,0.0,0.0,0.0,0.0,0.0,0.0,0.0,0.0,0.0,0.0,0.0,0.0,0.0,0.0,0.0,0.0,0.0,0.0,0.0,0.0,0.0,0.0,0.0,0.0,0.0,0.0,0.0,0.0,0.0,0.0,0.0,0.0,0.0,0.0,0.0,0.0,0.0,0.0,0.0,0.0,0.0,0.0,0.0,0.0,0.0,0.0,0.0,0.0,0.0,0.0,0.0,0.0,0.0,0.0,0.0,0.0,0.0,0.0,0.0,0.0,0.0,0.0,0.0,0.0,0.0,0.0,0.0,-3.923,-3.9345,-3.9619,-4.0342,-4.0489,-4.0519,-4.0534,-3.9856,-3.9441,-3.9441,0.0,0.0,0.0,0.0,0.0,0.0,0.0,0.0,0.0,0.0,0.0,0.0,0.0,0.0,0.0,0.0,0.0,0.0,0.0,0.0,0.0,0.0,0.0,0.0,0.0,0.0,0.0,0.0,0.0,0.0,0.0,0.0,0.0,0.0,0.0,0.0,0.0,0.0,0.0,0.0,0.0,0.0,0.0,0.0,0.0,0.0,0.0,0.0,0.0,0.0,0.0,0.0,0.0,0.0,0.0,0.0,0.0,0.0,0.0,0.0,-3.2755,0.0,0.0,0.0,0.0,0.0,0.0,0.0,0.0,0.0,0.0,0.0,0.0,0.0,0.0,0.0,0.0,0.0,0.0,0.0,0.0,0.0,0.0,0.0,0.0,0.0,0.0,0.0,0.0,0.0,0.0,0.0,0.0,0.0,0.0,0.0,0.0,0.0,0.0,0.0,0.0,0.0,-4.0288,-4.0378,-4.0462,-4.0623,-4.0707,-4.0745,-4.075,-4.0587,-4.049,-4.049,-4.0324,0.0,0.0,0.0,0.0,0.0,0.0,0.0,0.0,0.0,0.0,0.0,0.0,0.0,0.0,0.0,0.0,0.0,0.0,0.0,0.0,0.0,0.0,0.0,0.0,0.0,0.0,0.0,0.0,0.0,0.0,0.0,0.0,0.0,0.0,0.0,0.0,0.0,0.0,0.0,0.0,0.0,0.0,0.0,0.0,0.0,0.0,0.0,0.0,0.0,0.0,0.0,0.0,0.0,0.0,0.0,0.0,0.0,0.0,0.0,0.0,-3.3808,0.0,0.0,0.0,0.0,0.0,0.0,0.0,0.0,0.0,0.0,0.0,0.0,0.0,0.0,0.0,0.0,0.0,0.0,0.0,0.0,0.0,0.0,0.0,0.0,0.0,0.0,0.0,0.0,0.0,0.0,0.0,0.0,0.0,0.0,0.0,0.0,0.0,0.0,0.0,0.0,-4.0781,-4.0819,-4.0809,-4.0809,-4.0839,-4.0849,-4.0849,-4.0849,-4.084,-4.0849,-4.0856,0.0,0.0,0.0,0.0,0.0,0.0,0.0,0.0,0.0,0.0,0.0,0.0,0.0,0.0,0.0,0.0,0.0,0.0,0.0,0.0,0.0,0.0,0.0,0.0,0.0,0.0,0.0,0.0,0.0,0.0,0.0,0.0,0.0,0.0,0.0,0.0,0.0,0.0,0.0,0.0,0.0,0.0,0.0,0.0,0.0,0.0,0.0,0.0,0.0,0.0,0.0,0.0,0.0,-3.2773,-3.3562,-3.4715,-3.5052,-3.5806,-3.6777,-3.528,-3.508,-3.5857,0.0,0.0,0.0,0.0,0.0,0.0,0.0,0.0,0.0,0.0,0.0,0.0,0.0,0.0,0.0,0.0,0.0,0.0,0.0,0.0,0.0,0.0,0.0,0.0,0.0,-3.8944,-3.8984,0.0,0.0,0.0,0.0,0.0,0.0,0.0,0.0,0.0,0.0,0.0,0.0,-4.0991,-4.1085,-4.1146,-4.1138,-4.1291,-4.1318,-4.1163,-4.1135,-4.1088,-4.0935,-4.0927,-4.0908,0.0,0.0,0.0,0.0,0.0,0.0,0.0,0.0,0.0,0.0,0.0,0.0,0.0,0.0,0.0,0.0,0.0,0.0,0.0,0.0,0.0,0.0,0.0,0.0,0.0,0.0,0.0,0.0,0.0,0.0,0.0,0.0,-2.4381,-2.4781,0.0,0.0,0.0,0.0,0.0,0.0,0.0,0.0,0.0,0.0,0.0,0.0,0.0,-3.1767,-3.2275,-3.323,-3.4001,-3.4606,-3.4866,-3.5299,-3.5912,-3.6276,-3.6683,-3.7077,-3.7107,0.0,-3.7181,-3.7357,0.0,0.0,0.0,0.0,0.0,0.0,0.0,0.0,0.0,0.0,0.0,0.0,0.0,0.0,0.0,0.0,0.0,0.0,0.0,0.0,0.0,0.0,-4.0666,-4.0666,-4.0666,-4.0891,0.0,-4.015,-3.8788,-3.9491,-3.9627,0.0,0.0,0.0,0.0,0.0,0.0,0.0,-4.1003,-4.165,-4.2116,-4.2111,-4.2782,-4.2942,-4.2176,-4.2128,-4.1789,-4.1032,-4.0999,-4.0984,-4.0991,-4.0921,0.0,0.0,0.0,0.0,0.0,0.0,0.0,0.0,0.0,0.0,0.0,0.0,0.0,0.0,0.0,0.0,0.0,0.0,0.0,0.0,0.0,0.0,0.0,0.0,0.0,0.0,0.0,0.0,0.0,-2.4824,-2.5481,-2.5906,-2.604,-2.6254,0.0,0.0,0.0,0.0,0.0,0.0,0.0,0.0,0.0,-3.1926,-3.2785,-3.3451,-3.3816,-3.446,-3.496,-3.5339,-3.5648,-3.6225,-3.7091,-3.748,-3.8041,-3.8776,-3.9509,-3.9881,-3.9852,-3.9012,-3.9012,-3.9533,0.0,0.0,0.0,0.0,-4.0164,-4.0545,-4.0584,-4.092,0.0,-4.1319,0.0,0.0,0.0,0.0,0.0,0.0,0.0,0.0,0.0,0.0,-4.2358,-4.2358,-4.2349,-4.2466,-4.2868,-4.2117,-4.1476,0.0,-4.1997,-4.2109,-4.25,0.0,0.0,0.0,0.0,-4.2558,-4.2513,-4.2851,-4.3088,-4.3088,-4.3434,-4.3481,-4.3073,-4.3066,-4.29,-4.2487,-4.2461,-4.246,-4.2467,-4.1993,-4.1746,0.0,0.0,0.0,0.0,0.0,0.0,0.0,0.0,0.0,0.0,0.0,0.0,0.0,0.0,0.0,0.0,0.0,0.0,0.0,0.0,0.0,0.0,0.0,0.0,0.0,0.0,0.0,0.0,-2.5879,-2.6383,-2.7074,-2.7269,-2.7536,0.0,0.0,0.0,0.0,0.0,0.0,-3.1882,-3.2541,-3.3067,-3.3588,-3.4354,-3.4896,-3.519,-3.5704,-3.6067,-3.6327,-3.6839,-3.7616,-3.8561,-3.9137,-3.9914,-4.0788,-4.1658,-4.2121,-4.2189,-4.0951,-4.0851,-4.15,-4.1643,-4.1719,-4.1777,-4.1777,-4.2128,-4.2635,-4.2695,-4.3085,-4.3572,-4.3598,0.0,-4.3567,-4.3563,0.0,0.0,0.0,0.0,-4.3422,-4.3421,-4.3372,-4.3322,-4.3322,-4.333,-4.3377,-4.3635,-4.3714,-4.3722,0.0,-4.3656,-4.3665,-4.3665,0.0,0.0,0.0,0.0,-4.3696,-4.3706,-4.3884,-4.4021,-4.4038,-4.4212,-4.4247,-4.3989,-4.3993,-4.3922,-4.3632,-4.3624,-4.3629,-4.363,-4.3041,-4.2719,-4.266,0.0,0.0,0.0,0.0,0.0,0.0,0.0,0.0,0.0,0.0,0.0,0.0,0.0,0.0,0.0,0.0,0.0,0.0,0.0,0.0,0.0,0.0,0.0,0.0,0.0,0.0,0.0,0.0,0.0,-2.8195,-2.8412,0.0,0.0,0.0,0.0,-3.1438,-3.1835,-3.2315,-3.2823,-3.3186,-3.3581,-3.4042,-3.5147,-3.5892,-3.6221,-3.7255,-3.7928,-3.8273,-3.9294,-4.0073,-4.0589,-4.1699,-4.2408,-4.2753,-4.3072,-4.3264,-4.3316,-4.3237,-4.3258,-4.3369,-4.3517,-4.3574,-4.3562,-4.3562,-4.3542,-4.3537,-4.3548,-4.3528,-4.3526,-4.3577,-4.3568,-4.3507,-4.351,-4.3451,0.0,0.0,-4.3312,-4.3211,-4.3231,-4.3183,-4.3134,-4.3134,-4.3134,-4.3361,-4.4239,-4.4459,-4.4253,0.0,-4.3565,-4.361,-4.361,0.0,-4.3709,-4.369,-4.37,-4.3704,-4.3704,-4.4421,-4.4924,-4.4924,-4.5624,-4.5754,-4.4994,-4.4936,-4.4582,-4.3757,-4.3685,-4.369,-4.369,-4.3657,-4.3629,-4.3629,-4.3597,0.0,0.0,0.0,0.0,0.0,0.0,0.0,0.0,0.0,0.0,0.0,0.0,0.0,0.0,0.0,0.0,0.0,0.0,0.0,0.0,0.0,0.0,0.0,0.0,0.0,0.0,0.0,0.0,-2.9463,-2.9843,0.0,0.0,-3.1389,-3.1967,-3.2705,-3.3146,-3.3727,-3.46,-3.5053,-3.5514,-3.6011,-3.6695,-3.7167,-3.7466,-3.8482,-3.9148,-3.9454,-4.06,-4.1343,-4.1701,-4.2402,-4.2849,-4.3138,-4.3872,-4.4268,-4.4401,-4.4975,-4.4577,-4.3636,-4.3685,-4.3707,-4.3693,-4.3645,-4.3983,-4.4415,-4.4338,-4.4651,-4.5113,-4.5087,-4.5028,-4.497,-4.4937,-4.4863,-4.4804,-4.4828,-4.4781,-4.4749,-4.4749,-4.4696,-4.4643,-4.4643,-4.4608,-4.4685,-4.5062,-4.5173,-4.514,-4.4891,-4.5013,-4.5168,-4.5207,-4.526,-4.5313,-4.5312,-4.5318,-4.5304,-4.5314,-4.5582,-4.5772,-4.5766,-4.6034,-4.6079,-4.5806,-4.5767,-4.5644,-4.5323,-4.5308,-4.5308,-4.5302,-4.4819,-4.4511,-4.4471,-4.3917,-4.3615,0.0,0.0,0.0,0.0,0.0,0.0,0.0,0.0,0.0,0.0,0.0,0.0,0.0,0.0,0.0,0.0,0.0,0.0,0.0,0.0,0.0,0.0,0.0,0.0,0.0,0.0,-2.9879,-3.0658,-3.1138,-3.1702,-3.2336,-3.2819,-3.3346,-3.3994,-3.4339,-3.4919,-3.581,-3.6457,-3.7039,-3.7612,-3.8238,-3.8689,-3.9018,-3.9794,-4.0325,-4.0607,-4.1764,-4.2479,-4.2749,-4.3465,-4.3885,-4.4117,-4.4846,-4.5248,-4.541,-4.6284,-4.5971,-4.494,-4.4666,-4.4524,-4.4494,-4.4435,-4.4756,-4.522,-4.5071,-4.5413,-4.5861,-4.5819,-4.5761,-4.5712,-4.5684,-4.5616,-4.5565,-4.5531,-4.5514,-4.5495,-4.5477,-4.5419,-4.538,-4.538,-4.5321,-4.5321,-4.538,-4.5419,-4.5476,-4.551,-4.5747,-4.5944,-4.6018,-4.6084,-4.613,-4.615,-4.6176,-4.6164,-4.6177,-4.6177,-4.617,-4.6176,-4.6169,-4.6181,-4.6181,-4.6181,-4.6162,-4.6169,-4.6177,-4.6181,-4.6201,-4.5689,-4.5371,-4.5336,-4.4776,-4.4333,-4.4043,0.0,0.0,0.0,0.0,0.0,0.0,0.0,0.0,0.0,0.0,0.0,0.0,0.0,0.0,0.0,0.0,0.0,0.0,0.0,0.0,0.0,0.0,0.0,-2.9256,-2.9726,-3.0501,-3.1727,-3.2371,-3.3176,-3.4267,-3.4724,-3.5091,-3.5358,-3.5571,-3.5912,-3.637,-3.7314,-3.8088,-3.864,-3.9675,-4.0402,-4.0805,-4.1167,-4.1494,-4.1763,-4.293,-4.3583,-4.389,-4.4997,-4.5623,-4.5848,-4.6061,-4.6197,-4.6351,-4.7186,-4.7532,-4.7448,-4.6608,-4.6248,-4.6163,-4.6095,-4.6033,-4.5958,-4.5804,-4.5726,-4.5657,-4.5643,-4.5663,-4.5663,-4.5645,-4.5627,-4.5553,-4.5477,-4.5417,-4.5352,-4.529,-4.5224,-4.5179,-4.5179,-4.5179,-4.5201,-4.5246,-4.5268,-4.5311,-4.5438,-4.5673,-4.5872,-4.5893,-4.5983,-4.6056,-4.6123,-4.6152,0.0,-4.6132,-4.6132,-4.6132,-4.6093,-4.6093,-4.6093,-4.6093,-4.6093,-4.6102,-4.6107,-4.6107,-4.6135,-4.6196,-4.6196,-4.6196,-4.6196,-4.6196,-4.5777,-4.493,0.0,0.0,0.0,0.0,0.0,0.0,0.0,0.0,0.0,0.0,0.0,0.0,0.0,0.0,0.0,0.0,0.0,0.0,0.0,0.0,0.0,0.0,-3.1362,-3.1181,-3.1649,-3.232,-3.3101,-3.3693,-3.4415,-3.5432,-3.5966,-3.6595,-3.7276,-3.7598,-3.7922,-3.831,-3.8796,-3.9323,-3.9747,-4.0275,-4.0755,-4.118,-4.1989,-4.2555,-4.287,-4.402,-4.4703,-4.4978,-4.5445,-4.6098,-4.689,-4.7048,-4.747,-4.8098,-4.8338,-4.842,-4.8351,-4.8113,-4.7961,-4.7913,-4.7772,-4.7622,-4.7411,-4.7319,-4.7182,-4.7038,-4.7057,-4.7013,-4.6969,-4.6904,-4.6881,-4.69,-4.6915,-4.691,-4.6906,-4.6934,-4.6934,-4.691,-4.691,-4.691,-4.691,-4.6934,-4.6934,-4.6957,-4.7003,-4.7138,-4.6953,-4.5979,-4.6409,-4.6899,-4.6951,-4.7563,0.0,-4.7125,-4.7047,-4.6794,-4.6171,-4.6104,-4.6095,-4.6093,-4.6104,-4.6104,-4.6102,-4.6102,-4.6111,-4.613,-4.6138,-4.6119,-4.6135,-4.6176,-4.6079,0.0,0.0,0.0,0.0,0.0,0.0,0.0,0.0,0.0,0.0,0.0,0.0,0.0,0.0,0.0,0.0,0.0,0.0,0.0,0.0,0.0,0.0,-3.1823,-3.2419,-3.3044,-3.3152,-3.3461,-3.4285,-3.4889,-3.5611,-3.6699,-3.7148,-3.7631,-3.8242,-3.8577,-3.8912,-3.9276,-3.9881,-4.0456,-4.0908,-4.1523,-4.2066,-4.2477,-4.3189,-4.3699,-4.4039,-4.5156,-4.5818,-4.605,-4.6596,-4.7236,0.0,-4.7988,-4.8322,-4.8828,-4.9157,-4.9257,0.0,0.0,0.0,0.0,0.0,-4.8048,-4.7867,-4.7723,-4.7586,-4.7422,-4.7416,-4.734,-4.7288,-4.7288,-4.7261,-4.7235,-4.7307,-4.7326,-4.7352,-4.7448,-4.7473,-4.7473,-4.7498,-4.7498,-4.7473,-4.7473,-4.7448,-4.7467,-4.7517,-4.7619,0.0,-4.6812,-4.7206,-4.7649,-4.7757,-4.8239,-4.8436,-4.793,-4.7872,-4.7678,-4.7153,-4.6773,-4.656,-4.6551,-4.623,0.0,0.0,0.0,-4.6017,-4.6017,-4.6017,0.0,0.0,0.0,-4.6084,-4.6113,0.0,0.0,0.0,-4.4289,-4.3697,0.0,0.0,0.0,0.0,0.0,0.0,0.0,0.0,0.0,0.0,0.0,0.0,0.0,0.0,0.0,0.0,-3.2545,-3.3341,-3.4782,-3.4438,-3.4468,-3.5493,-3.6075,-3.6812,-3.7953,-3.8257,-3.8551,-3.8918,-3.919,-3.9491,-3.9926,0.0,0.0,0.0,0.0,-4.3767,-4.43,-4.4608,-4.4959,-4.5342,-4.6353,-4.6934,-4.7111,-4.8081,-4.8627,-4.8855,-4.8928,-4.8994,-4.9159,-4.9867,-5.0091,-4.992,-4.9143,-4.8716,-4.8511,-4.824,-4.807,-4.7905,-4.7682,0.0,0.0,-4.7297,-4.7229,-4.7199,-4.7239,-4.7258,-4.721,-4.7325,-4.7354,-4.7382,-4.7521,-4.7567,-4.7594,-4.7655,-4.7602,-4.7567,-4.7567,-4.7513,-4.7513,-4.7647,-4.7777,-4.7933,-4.8156,-4.8279,-4.8395,-4.8537,-4.869,-4.8774,-4.8658,-4.8658,-4.8619,-4.8522,0.0,0.0,-4.7327,-4.6532,-4.6028,-4.6028,-4.5963,-4.5905,-4.5905,-4.5905,-4.5905,-4.5905,-4.5905,-4.5929,-4.5991,-4.5994,-4.6026,-4.6066,-4.536,-4.4566,0.0,0.0,0.0,0.0,0.0,0.0,0.0,0.0,0.0,0.0,0.0,0.0,0.0,0.0,0.0,-3.3346,-3.4006,-3.4729,-3.5861,-3.6263,-3.6537,-3.6736,-3.725,-3.797,-3.8952,-3.9365,-3.9988,-4.1025,-4.1329,-4.1641,-4.2024,-4.2405,-4.2795,-4.319,-4.3656,-4.4426,-4.5472,-4.5689,-4.6326,-4.7324,0.0,0.0,-4.813,-4.8444,-4.9041,-4.9839,-4.9835,-5.0249,-5.0906,-5.1011,-5.0884,-5.0596,-5.0397,-5.0163,-4.9963,-4.9809,-4.9524,-4.9211,-4.9012,-4.8759,-4.8543,-4.8438,-4.8336,-4.832,-4.837,-4.8404,0.0,-4.8771,-4.8865,-4.8945,-4.9173,-4.9249,-4.9249,-4.923,-4.9249,-4.9249,-4.9249,-4.9221,-4.9249,-4.9315,-4.9451,-4.9588,-4.9805,-4.9509,-4.9283,-4.9436,-5.0109,-5.0344,-4.9647,-4.955,-4.9278,-4.858,-4.8302,-4.8172,-4.8172,-4.7356,-4.6878,-4.6878,-4.6261,-4.5899,-4.5905,-4.5905,-4.5905,-4.5905,-4.5905,-4.5917,-4.5917,-4.5929,-4.5929,-4.5941,-4.5891,-4.5437,0.0,0.0,0.0,0.0,0.0,0.0,0.0,0.0,0.0,0.0,0.0,-3.167,0.0,0.0,-3.3512,-3.466,-3.517,-3.5856,-3.7085,-3.7599,-3.787,-3.797,-3.8331,-3.9003,-4.007,-4.0555,-4.113,-4.1821,-4.2169,-4.2472,-4.2768,-4.3488,-4.4013,-4.4321,-4.5034,-4.5779,-4.6584,-4.6809,-4.7277,-4.801,-4.8582,-4.8937,-4.9123,-4.9698,-5.0246,-5.0756,-5.0744,-5.0976,-5.1332,-5.1162,-5.0928,-5.0681,-5.0546,-5.044,-5.0325,-5.0163,-4.986,-4.951,-4.9246,-4.8971,-4.8714,-4.855,-4.8439,-4.842,-4.8569,-4.8605,-4.8678,-4.9061,-4.9193,-4.9308,-4.9574,-4.9634,-4.9663,-4.9692,-4.9663,-4.9634,-4.9634,-4.9634,-4.9663,-4.9778,-4.9925,-5.0108,-5.0302,-5.018,-5.0064,-5.0192,-5.0626,-5.079,-5.0364,-5.0306,-5.0132,-4.9707,-4.9231,-4.8961,-4.8961,-4.777,-4.704,-4.704,-4.6259,-4.5805,-4.58,-4.58,-4.58,-4.58,-4.58,-4.5814,-4.5847,-4.5847,-4.5874,-4.5912,-4.5972,-4.5783,0.0,0.0,0.0,0.0,0.0,0.0,0.0,0.0,-3.1218,-3.1649,-3.2206,-3.2872,-3.3834,-3.4344,-3.4934,-3.6072,-3.6432,-3.7065,-3.8349,-3.8807,-3.9058,-3.9223,-3.9464,-4.0018,-4.1076,-4.1534,-4.1899,-4.221,-4.2656,-4.3041,-4.3324,-4.4416,-4.5204,-4.5512,-4.6424,-4.7174,-4.7682,-4.7918,-4.8236,-4.8622,-4.9482,-4.9957,-5.0106,-5.0928,-5.1335,-5.1402,-5.1387,-5.1346,-5.1239,-5.1005,-5.0771,-5.0567,-5.0374,-5.0278,-5.0207,-5.0005,-4.9693,-4.9346,-4.9005,-4.8713,-4.842,-4.8229,-4.813,-4.8148,-4.8343,-4.8419,-4.8532,-4.889,-4.9061,-4.9211,-4.9483,-4.9544,-4.9544,-4.9604,-4.9574,-4.9544,-4.9544,-4.9574,-4.9663,-4.9807,-4.9978,-5.0182,-5.0371,-5.0525,-5.0606,-5.0682,-5.0757,-5.0793,-5.0793,-5.0793,-5.0793,-5.0793,-5.0158,-4.9676,-4.9485,-4.8232,-4.7326,-4.7014,-4.632,-4.5873,-4.57,-4.57,-4.57,-4.57,-4.57,-4.5715,-4.5781,-4.5781,-4.581,-4.5866,-4.5866,-4.5874,-2.8984,-2.9915,-3.091,-3.1145,-3.1306,-3.1349,0.0,0.0,-3.2321,-3.2864,-3.3725,-3.4574,-3.5104,-3.5864,-3.6689,-3.76,-3.8065,-3.8673,-3.9632,-4.015,-4.0491,-4.0886,-4.0839,-4.1087,-4.1735,-4.1941,-4.2251,-4.2768,-4.3609,-4.4272,-4.4577,-4.5697,-4.6406,-4.6618,-4.7089,-4.7777,-4.8715,-4.9043,-4.9643,-5.0497,-5.0801,-5.0972,-5.1058,-5.1218,-5.1332,-5.1398,-5.1347,-5.1237,-5.1109,-5.0956,-5.0756,-5.05,-5.0348,-5.0139,-4.9925,-4.9807,-4.9415,-4.8925,-4.8569,-4.8267,-4.7966,-4.7824,-4.7741,-4.7783,-4.7992,-4.813,-4.8343,-4.8785,-4.8959,-4.9061,-4.9257,-4.934,-4.934,-4.9276,-4.9308,-4.9371,-4.9415,-4.9555,-4.975,-4.9952,-5.0089,-5.0236,-5.0438,-5.0542,-5.0624,-5.0682,-5.0757,-5.0793,-5.0793,-5.0793,-5.0793,-5.0793,-5.0661,-5.024,-4.9471,-4.924,-4.8508,-4.7022,-4.6829,-4.6442,-4.5719,-4.57,-4.57,-4.57,-4.57,-4.5715,-4.5715,-4.5715,-4.5715,-4.5731,-4.5731,-4.5786,-3.1364,-3.1855,0.0,0.0,-3.2296,-3.2446,-3.2703,-3.3338,-3.4027,-3.46,-3.5475,-3.6317,-3.7135,-3.7585,-3.8119,0.0,-3.9312,-3.9665,-4.0366,-4.0707,-4.1036,-4.1552,-4.2115,-4.2369,-4.2037,-4.2785,-4.3394,-4.3683,-4.4729,-4.5459,-4.5666,-4.6797,-4.7517,-4.7701,-4.8545,-4.9243,-4.9822,-5.0048,-5.0422,-5.0913,-5.1081,-5.1189,-5.1259,-5.1333,-5.1366,-5.1385,-5.1296,-5.1161,-5.103,-5.0855,-5.0645,-5.0416,-5.0255,-5.0057,-4.9816,-4.975,-4.9371,-4.8855,-4.8514,-4.819,-4.7861,-4.7759,-4.7759,-4.7842,-4.8068,-4.8226,-4.8457,-4.8804,-4.8996,-4.9098,-4.9211,-4.9244,-4.9244,-4.9244,-4.9276,-4.934,-4.9495,-4.9644,-4.9807,-4.9978,-5.0158,-5.0302,-5.0435,-5.05,-5.0542,-5.0585,-5.0664,-5.074,-5.074,-5.074,-5.074,-5.074,-5.0721,-5.0548,-5.0183,-4.9683,-4.9086,-4.8393,-4.7874,-4.7237,-4.6427,-4.6388,-4.6157,-4.5654,-4.5654,-4.5654,-4.5654,-4.5654,-4.5671,-4.5706,-4.5706,-4.5715,-3.3339,0.0,0.0,-3.3266,-3.3319,-3.3523,-3.4008,-3.4783,-3.5594,-3.6289,-3.7151,-3.8066,-3.8836,-3.9156,0.0,-4.0266,-4.04,-4.0594,-4.1065,-4.1293,-4.1631,-4.2376,-4.322,-4.3576,-4.3176,-4.396,-4.4576,-4.4783,-4.5864,-4.6588,-4.6787,-4.7928,-4.8652,-4.887,-4.9746,-5.0313,-5.0548,-5.0715,-5.0863,-5.103,-5.115,-5.1249,-5.1295,-5.1377,-5.1389,-5.1375,-5.1248,-5.1128,-5.099,-5.0771,-5.0545,-5.0348,-5.0158,-4.9952,-4.9778,-4.9692,-4.9321,-4.8802,-4.8514,-4.8208,-4.7925,-4.7824,-4.7866,-4.8006,-4.8187,-4.8381,-4.8606,-4.8839,-4.9015,-4.9135,-4.9197,-4.9197,-4.9211,-4.9276,-4.9308,-4.9384,-4.9574,-4.975,-4.9898,-5.0038,-5.0231,-5.0348,-5.0412,-5.0478,-5.05,-5.05,-5.0584,-5.0643,-5.0643,-5.0643,-5.0643,-5.0643,-5.0643,-5.0643,-5.0643,-5.0067,-4.9606,-4.9356,-4.876,-4.803,-4.7242,-4.6954,-4.655,-4.5915,-4.5666,-4.5568,-4.5568,-4.5568,-4.5622,-4.5657,-4.5657,-4.5673,0.0,0.0,-3.4448,-3.4448,-3.4448,-3.4726,-3.5712,-3.6169,-3.6673,-3.7793,-3.8883,-3.9675,-3.9818,-4.0561,-4.1174,-4.1328,-4.1453,-4.1657,-4.1948,-4.2198,-4.2745,-4.37,-4.4157,-4.4729,0.0,-4.5606,-4.5699,-4.6027,-4.6995,-4.7698,-4.8022,-4.9085,-4.9778,-5.0044,-5.0336,-5.0548,-5.0696,-5.0898,-5.103,-5.1105,-5.123,-5.1295,-5.1308,-5.1363,-5.1349,-5.131,-5.1219,-5.1128,-5.0976,-5.0717,-5.0485,-5.0278,-5.0082,-4.9871,-4.9692,-4.9623,-4.9206,-4.8677,-4.8569,-4.8286,-4.7992,-4.7992,-4.809,-4.8187,-4.8286,-4.8458,-4.8623,-4.882,-4.9015,-4.9135,-4.9197,-4.9197,-4.9197,-4.9179,-4.9289,-4.9446,-4.9663,-4.9843,-5.0038,-5.0255,-5.0348,-5.0412,-5.0478,-5.05,-5.05,-5.05,-5.05,-5.05,-5.05,-5.05,-5.05,-5.05,-5.05,-5.05,-5.05,-5.0481,-5.0097,-4.9254,-4.9177,-4.8813,-4.8008,-4.7164,-4.6685,-4.6666,-4.5841,-4.5438,-4.5495,-4.5495,-4.555,-4.5603,-4.5603,-4.5603,0.0,0.0,-3.5295,-3.5671,-3.5866,-3.6223,-3.7185,-3.798,-3.8704,-3.933,-4.0197,-4.0926,-4.1192,-4.1515,-4.1778,-4.2008,-4.2115,-4.2279,-4.2537,-4.3165,-4.3792,-4.4364,-4.5535,0.0,0.0,0.0,0.0,-4.712,-4.8118,-4.8814,-4.9013,-4.9617,-5.0063,-5.0225,-5.0489,-5.0715,-5.0906,-5.1009,-5.1088,-5.1178,-5.1257,-5.1312,-5.1361,-5.1394,-5.1356,-5.1291,-5.1191,-5.1411,-5.1848,-5.1529,-5.1631,-5.1882,-5.1147,-5.0732,-5.0468,-4.9841,-4.9402,-4.9042,-4.8768,-4.8476,-4.819,-4.819,-4.8286,-4.8419,-4.8495,-4.8605,-4.8768,-4.8874,-4.9015,-4.9101,-4.9135,-4.9197,-4.9276,-4.9321,-4.9434,-4.9585,-4.9788,-4.9925,-5.0057,-5.0188,-5.0278,-5.0325,-5.0348,-5.0371,-5.0371,-5.0371,-5.0438,-5.05,-5.05,-5.05,-5.05,-5.05,-5.05,-5.05,-5.05,-5.05,-5.0366,-5.0078,-5.0059,-4.9676,-4.8832,-4.8525,-4.8123,-4.7566,-4.6723,-4.6263,-4.6282,-4.5726,-4.5457,-4.5476,-4.5476,-4.5476,-3.5941,-3.6103,-3.6338,-3.6712,-3.7138,-3.7695,-3.862,-3.9416,-4.0103,-4.0692,-4.1374,-4.1966,-4.2216,-4.2338,-4.248,-4.2714,-4.3063,-4.3358,-4.3652,-4.44,-4.5149,-4.5711,-4.6775,0.0,0.0,0.0,0.0,-4.8278,-4.8939,-4.9488,-4.9703,-5.0,-5.0249,-5.0429,-5.0678,-5.0887,-5.1029,-5.1095,-5.1169,-5.1237,-5.1308,-5.1366,-5.1394,-5.14,-5.1537,-5.1764,-5.1638,-5.202,-5.27,-5.2358,-5.2452,-5.2723,-5.195,-5.1547,-5.1355,-5.0708,-5.0366,-5.0081,-4.9182,-4.8697,-4.8476,-4.8476,-4.8532,-4.8606,-4.866,-4.8768,-4.8911,-4.8962,-4.9064,-4.9183,-4.9197,-4.9327,-4.9434,-4.9506,-4.9615,-4.9778,-4.9925,-5.0012,-5.0089,-5.0212,-5.0278,-5.0302,-5.0325,-5.0344,-5.0344,-5.0344,-5.0371,-5.0393,-5.0393,-5.0393,-5.0371,-5.0348,-5.0371,-5.0393,-5.0393,-5.0416,-5.0416,-5.0416,-5.0416,-5.0186,-4.963,-4.9324,-4.8922,-4.8405,-4.7543,-4.7103,-4.7124,-4.6568,-4.6147,-4.586,-4.586,-4.5688,-3.6579,-3.7092,-3.7577,-3.7664,-3.8304,-3.9147,-4.0,-4.0463,-4.0972,-4.1943,-4.2436,-4.2788,0.0,0.0,-4.3304,-4.3461,-4.4175,-4.4831,-4.5138,-4.5875,-4.6706,0.0,0.0,0.0,0.0,0.0,0.0,-4.9352,0.0,-4.9703,-5.0089,-5.0249,-5.0429,-5.0696,-5.0887,-5.1029,-5.1108,-5.1167,-5.1237,-5.1303,-5.1363,-5.1421,-5.1468,-5.1453,-5.1904,-5.2656,-5.2582,-5.2938,-5.3533,-5.3205,-5.3012,-5.2895,-5.2513,-5.2349,-5.2258,-5.2059,-5.1912,-5.1555,-4.9765,-4.9055,-4.8933,-4.8896,-4.8896,-4.8878,-4.8841,-4.8946,-4.9101,-4.9101,-4.9197,-4.9321,-4.9384,-4.9525,-4.9634,-4.9778,-4.9871,-4.9952,-5.0082,-5.0158,-5.0212,-5.0302,-5.0302,-5.0325,-5.039,-5.0412,-5.0412,-5.0412,-5.0302,-5.0212,-5.0188,-5.0188,-5.0163,-5.0108,-5.0158,-5.0188,-5.0188,-5.0255,-5.0302,-5.0302,-5.0302,-5.0302,-5.0302,-4.9576,-4.9156,-4.9156,-4.8315,-4.7898,-4.796,-4.7922,-4.7505,-4.6761,-4.6761,-4.632,-3.7931,-3.8174,-3.8576,-3.9658,-4.02,-4.0636,-4.1505,-4.1872,-4.2127,-4.2598,-4.2939,-4.3196,0.0,0.0,0.0,-4.4624,-4.5018,0.0,-4.6113,-4.701,0.0,0.0,0.0,-4.9171,-4.9625,-4.9712,0.0,0.0,-4.9959,-5.007,-5.0313,-5.0509,-5.0698,-5.0921,-5.1029,-5.1108,-5.1167,-5.124,-5.1277,-5.1307,-5.1367,-5.1717,-5.2285,-5.2278,-5.2731,-5.3487,-5.3408,-5.3799,-5.4436,-5.4169,-5.43,-5.4575,-5.3623,-5.3221,-5.3074,-5.2278,-5.1957,-5.1823,-5.1326,-5.1009,-5.0708,-5.0112,-4.9926,-4.9815,-4.9284,-4.9131,-4.9197,-4.9211,-4.9308,-4.9415,-4.9585,-4.9731,-4.9843,-4.9925,-5.0005,-5.0082,-5.0158,-5.0188,-5.0236,-5.0348,-5.0457,-5.05,-5.0478,-5.0521,-5.0521,-5.0478,-5.0393,-5.0302,-5.0212,-5.0158,-5.0133,-5.0108,-5.0108,-5.0133,-5.0133,-5.0133,-5.0182,-5.0212,-5.0231,-5.0255,-5.0302,-5.0092,-4.9996,-4.9996,-4.9194,-4.8774,-4.8796,-4.8146,-4.7726,-4.7518,-4.7518,-4.7403,-3.8579,-3.9044,-3.9578,-4.0753,-4.1461,-4.1956,-4.2429,-4.2772,-4.3014,-4.3283,-4.3542,0.0,0.0,0.0,0.0,0.0,0.0,0.0,-4.7357,-4.8213,-4.8829,0.0,-4.9372,0.0,-4.9952,-5.0044,-5.0174,0.0,-5.031,-5.0336,-5.0529,-5.0715,-5.0902,-5.1029,-5.1108,-5.1189,-5.1237,-5.1284,-5.1308,-5.1347,-5.1732,-5.2167,-5.2621,-5.2964,-5.3591,-5.4382,0.0,-5.4692,-5.5343,-5.5113,-5.5157,-5.5301,-5.4505,-5.4181,-5.4035,-5.3346,-5.308,-5.3048,-5.3001,-5.29,-5.2501,-5.0953,-5.0396,-5.0228,-4.9473,-4.9327,-4.939,-4.9464,-4.9555,-4.9655,-4.9788,-4.9898,-5.0012,-5.0108,-5.0158,-5.0207,-5.0325,-5.0325,-5.0371,-5.0457,-5.0584,-5.0625,-5.0605,-5.0605,-5.0625,-5.0545,-5.0481,-5.0412,-5.0302,-5.0182,-5.0082,-5.0031,-5.0031,-5.0057,-5.0057,-5.0082,-5.0108,-5.0139,-5.0158,-5.0163,-5.0207,-5.0255,-5.0255,-5.0255,-4.9843,-4.9633,-4.9633,-4.9137,-4.8716,-4.8372,-4.8372,-4.8181,-3.9066,-3.986,-4.0653,-4.1484,-4.2357,-4.3032,-4.3105,-4.3387,-4.367,-4.3924,0.0,-4.443,-4.4546,0.0,-4.5911,-4.6105,0.0,-4.8456,-4.868,-4.937,-4.9871,-4.9933,-4.9986,-5.0089,-5.0236,-5.0294,-5.0467,-5.072,-5.0567,-5.0548,-5.0731,-5.0902,-5.1042,-5.112,-5.1178,-5.1248,-5.1302,-5.1421,-5.1503,-5.157,-5.2381,-5.2831,-5.296,-5.3652,-5.4431,-5.5269,-5.5197,0.0,-5.6087,-5.5864,-5.5688,-5.548,-5.5149,-5.4971,-5.4901,-5.4635,-5.4538,-5.4505,-5.4458,-5.4424,-5.4048,-5.1715,-5.0839,-5.0558,-4.9765,-4.9589,-4.9634,-4.9721,-4.9816,-4.9933,-5.0005,-5.0082,-5.0158,-5.0278,-5.0325,-5.0371,-5.05,-5.0521,-5.0542,-5.0584,-5.0664,-5.072,-5.072,-5.072,-5.0701,-5.0644,-5.0566,-5.0502,-5.0438,-5.0255,-5.0082,-4.9933,-4.9978,-5.0005,-5.0005,-5.0057,-5.0082,-5.0082,-5.0082,-5.0082,-5.0108,-5.0158,-5.0207,-5.0207,-5.0255,-5.0302,-5.0302,-5.0302,-4.9962,-4.9274,-4.9274,-4.8872,-4.0504,-4.1342,-4.213,-4.2986,-4.3332,-4.3545,-4.3777,-4.4011,0.0,0.0,0.0,-4.48,-4.4825,-4.5575,0.0,-4.7181,0.0,0.0,0.0,0.0,-5.0063,0.0,0.0,0.0,0.0,0.0,0.0,0.0,0.0,-5.0913,-5.0942,-5.1037,-5.1101,-5.119,-5.1249,-5.1289,-5.1304,-5.2067,-5.2437,-5.2401,-5.3264,-5.4022,-5.4664,-5.4811,-5.5316,-5.608,-5.6083,0.0,-5.6078,-5.5883,-5.5708,-5.5551,-5.5262,-5.5121,-5.5057,-5.4882,-5.473,-5.4616,-5.4686,-5.4654,-5.4363,-5.3193,-5.2333,-5.1613,-5.0937,-5.0279,-4.9807,-4.9925,-4.9978,-5.0012,-5.0139,-5.0231,-5.0278,-5.0348,-5.0457,-5.0542,-5.0582,-5.0644,-5.0664,-5.0664,-5.0775,-5.0846,-5.0793,-5.0829,-5.0846,-5.0775,-5.0701,-5.0645,-5.0567,-5.0333,-5.0163,-5.0139,-5.0038,-5.0005,-5.0005,-4.9978,-4.9952,-5.0012,-5.0031,-5.0057,-5.0108,-5.0108,-5.0133,-5.0133,-5.0163,-5.0236,-5.0302,-5.0367,-5.0336,-5.0268,-5.0268,-5.0191,-4.1594,-4.2202,-4.2733,-4.3592,-4.3905,-4.4042,-4.425,0.0,0.0,0.0,0.0,-4.5356,-4.5818,0.0,0.0,0.0,0.0,0.0,0.0,0.0,0.0,0.0,0.0,0.0,0.0,0.0,0.0,0.0,0.0,-5.1082,-5.105,-5.112,-5.1178,-5.1249,-5.1281,-5.1528,-5.1969,-5.2417,-5.2854,-5.3286,-5.4119,-5.4723,-5.5103,-5.5519,-5.5944,-5.6297,-5.6259,0.0,-5.6082,-5.5921,-5.5788,-5.5662,-5.5456,-5.5333,-5.5255,-5.5094,-5.4981,-5.4874,-5.4941,-5.4912,-5.4746,-5.4379,-5.3335,-5.2124,-5.1367,-5.0589,-4.9978,-5.0082,-5.0133,-5.0182,-5.0278,-5.0371,-5.0459,-5.0504,-5.0605,-5.0721,-5.0759,-5.0776,-5.0793,-5.0793,-5.0863,-5.0893,-5.0861,-5.0877,-5.0897,-5.0863,-5.081,-5.0775,-5.072,-5.0546,-5.0418,-5.0325,-5.0231,-5.0139,-5.0108,-5.0038,-5.0005,-5.0005,-4.9978,-4.9978,-4.9986,-5.0031,-5.0057,-5.0108,-5.0207,-5.0302,-5.0393,-5.0478,-5.0502,-5.0545,-5.0545,-5.0545,-4.2474,-4.2939,-4.3267,-4.399,-4.4298,-4.4476,-4.465,-4.4896,0.0,0.0,-4.5457,-4.5817,-4.6679,0.0,0.0,0.0,0.0,0.0,0.0,0.0,0.0,0.0,0.0,0.0,0.0,0.0,0.0,0.0,0.0,0.0,-5.1132,-5.1189,-5.1327,-5.1581,-5.1586,-5.2002,-5.2868,-5.3064,-5.3494,-5.4167,-5.4957,-5.5364,-5.5372,-5.601,-5.6285,-5.6265,-5.6204,0.0,0.0,-5.594,-5.5847,-5.5787,-5.5596,-5.548,-5.5432,-5.5288,-5.5203,-5.5149,-5.5121,-5.5094,-5.5066,-5.5121,-5.3952,-5.2406,-5.1806,-5.0926,-5.0158,-5.0212,-5.0302,-5.039,-5.0435,-5.0521,-5.0624,-5.0664,-5.0738,-5.0846,-5.088,-5.0897,-5.0897,-5.0897,-5.0893,-5.0906,-5.0906,-5.0906,-5.0909,-5.0897,-5.0897,-5.088,-5.0827,-5.0775,-5.0682,-5.0504,-5.0396,-5.0306,-5.0278,-5.0207,-5.0133,-5.0057,-4.9986,-4.9978,-4.9933,-5.0005,-5.0057,-5.0108,-5.0255,-5.0393,-5.0502,-5.0604,-5.0664,-5.0682,-5.0681,-5.0681,-4.3192,-4.382,-4.4457,-4.4595,-4.4745,-4.4876,-4.5007,0.0,0.0,-4.5531,-4.5635,-4.5935,-4.6819,-4.7684,0.0,0.0,0.0,0.0,0.0,0.0,0.0,0.0,0.0,0.0,0.0,0.0,0.0,0.0,0.0,0.0,-5.1201,-5.1248,-5.1661,-5.2464,-5.2546,-5.2968,-5.3767,-5.4562,-5.4977,-5.4996,-5.5819,-5.6193,-5.6188,-5.6207,-5.6204,-5.6214,-5.6149,0.0,0.0,-5.5923,-5.5866,-5.5787,-5.566,-5.5596,-5.5573,-5.5432,-5.5333,-5.5281,-5.5229,-5.5229,-5.5281,-5.5281,-5.4058,-5.2582,-5.2584,-5.1509,-5.0302,-5.0348,-5.0478,-5.0582,-5.0582,-5.0644,-5.072,-5.0846,-5.0883,-5.088,-5.0909,-5.089,-5.089,-5.089,-5.089,-5.0906,-5.0906,-5.0906,-5.0906,-5.089,-5.089,-5.089,-5.089,-5.0897,-5.0863,-5.0866,-5.0645,-5.0485,-5.0459,-5.0416,-5.0325,-5.0188,-5.0182,-5.0158,-5.0082,-5.0082,-5.0082,-5.0108,-5.0302,-5.0418,-5.0486,-5.0699,-5.0839,-5.0956,-5.0961,-5.0976,-4.414,-4.4531,-4.4796,-4.4905,-4.5045,-4.5178,-4.5361,0.0,0.0,-4.5703,-4.6171,-4.6834,-4.7719,-4.8566,-4.9427,0.0,0.0,0.0,0.0,0.0,0.0,0.0,0.0,0.0,0.0,0.0,0.0,0.0,0.0,0.0,-5.126,-5.1294,-5.1694,-5.256,-5.2636,-5.3288,-5.4619,-5.4983,-5.5374,-5.5824,-5.611,-5.6246,-5.6243,-5.6209,-5.618,-5.6133,-5.6082,0.0,0.0,-5.5885,-5.5826,-5.5787,-5.5703,-5.566,-5.5596,-5.5551,-5.5456,-5.5358,-5.5383,-5.5408,-5.5432,-5.548,-5.4675,-5.3579,-5.3034,-5.1756,-5.0478,-5.05,-5.0584,-5.0664,-5.0664,-5.0739,-5.0846,-5.0945,-5.0945,-5.0909,-5.0956,-5.0941,-5.0906,-5.0906,-5.0906,-5.0906,-5.0906,-5.0906,-5.0906,-5.0906,-5.0906,-5.0906,-5.0906,-5.0909,-5.0893,-5.0893,-5.0773,-5.0664,-5.0606,-5.0566,-5.0483,-5.0393,-5.0348,-5.0302,-5.0231,-5.0231,-5.0255,-5.0348,-5.0418,-5.0527,-5.0681,-5.0786,-5.0937,-5.1056,-5.1069,-5.1063,-4.4906,-4.5052,-4.5113,-4.5201,-4.5303,-4.5438,0.0,0.0,0.0,-4.5795,-4.6482,-4.7381,-4.8319,-4.9179,-5.0054,0.0,0.0,0.0,0.0,0.0,0.0,0.0,0.0,0.0,0.0,0.0,0.0,0.0,0.0,0.0,0.0,-5.1308,-5.1816,-5.2949,-5.3212,-5.4016,-5.5436,-5.5453,-5.573,-5.6278,-5.6218,-5.6175,-5.6164,-5.6164,-5.6133,-5.6068,-5.6014,0.0,0.0,-5.5846,-5.5766,-5.5745,-5.5703,-5.5618,-5.5573,-5.5551,-5.5504,-5.5432,-5.548,-5.5527,-5.5596,-5.5643,-5.5129,-5.4361,-5.3703,-5.2335,-5.1009,-5.1009,-5.0895,-5.0757,-5.0756,-5.0827,-5.0913,-5.0956,-5.0921,-5.0906,-5.0956,-5.0921,-5.0906,-5.0906,-5.0906,-5.0906,-5.0906,-5.0906,-5.0906,-5.0906,-5.0906,-5.0906,-5.0906,-5.0906,-5.0906,-5.0906,-5.0858,-5.081,-5.0775,-5.072,-5.0645,-5.0565,-5.0504,-5.0462,-5.0396,-5.0396,-5.044,-5.0523,-5.0567,-5.0663,-5.0839,-5.0921,-5.1023,-5.1125,-5.1156,-5.1147,-4.5417,-4.5435,-4.5491,-4.5513,-4.5547,-4.5613,0.0,0.0,-4.5795,-4.58,-4.6496,-4.7381,-4.8319,-4.9213,-5.0112,-5.1042,-5.119,0.0,0.0,0.0,0.0,0.0,0.0,0.0,0.0,0.0,0.0,0.0,0.0,0.0,0.0,-5.1343,-5.209,-5.3835,-5.4658,-5.5447,-5.6269,-5.629,-5.6259,-5.6199,-5.6194,-5.6184,-5.6098,-5.6098,-5.6068,0.0,0.0,0.0,0.0,-5.5787,-5.5724,-5.5596,-5.5596,-5.5551,-5.5504,-5.5432,-5.5456,-5.5504,-5.5504,-5.5618,-5.5807,-5.5789,-5.5304,-5.4697,-5.4684,-5.3434,-5.1992,-5.1992,-5.1468,-5.0916,-5.0909,-5.0906,-5.0906,-5.0906,-5.0906,-5.0906,-5.0906,-5.0906,-5.0906,-5.0906,-5.0906,-5.0906,-5.0906,-5.0906,-5.0906,-5.0906,-5.0906,-5.0906,-5.0906,-5.0906,-5.0906,-5.0906,-5.0906,-5.0909,-5.0899,-5.0899,-5.0846,-5.0701,-5.0701,-5.0682,-5.0606,-5.0606,-5.0606,-5.0606,-5.072,-5.0844,-5.0906,-5.1023,-5.1125,-5.1211,-5.1278,-5.1295,-4.5688,-4.5658,-4.5658,-4.5742,-4.5757,-4.5737,-4.5819,0.0,-4.5866,-4.588,-4.7035,-4.8166,-4.8516,-4.9737,-5.0821,-5.1208,-5.1269,0.0,0.0,0.0,0.0,0.0,0.0,0.0,0.0,0.0,0.0,0.0,0.0,0.0,0.0,-5.2726,-5.3009,-5.3009,-5.3221,-5.372,-5.4521,-5.4517,-5.4776,-5.5253,-5.5238,-5.5517,-5.6029,-5.6033,-5.6017,0.0,0.0,0.0,0.0,-5.5745,-5.5703,-5.5682,-5.5682,-5.5618,-5.5573,-5.5551,-5.5551,-5.5573,-5.5662,-5.5767,-5.5885,-5.5975,-5.5835,-5.5656,-5.5659,-5.4409,-5.2889,-5.229,-5.1534,-5.0909,-5.089,-5.0906,-5.0906,-5.0906,-5.0906,-5.0906,-5.0906,-5.0906,-5.0906,-5.0906,-5.0906,-5.0906,-5.0906,-5.0906,-5.0906,-5.0906,-5.0906,-5.0906,-5.0906,-5.0906,-5.0906,-5.0906,-5.0906,-5.089,-5.0909,-5.0893,-5.0877,-5.0846,-5.0829,-5.0812,-5.0738,-5.0738,-5.0775,-5.0793,-5.0846,-5.0913,-5.1039,-5.1081,-5.112,-5.1191,-5.1276,-5.1292,0.0,-4.5609,-4.5835,-4.5899,-4.5867,0.0,0.0,0.0,-4.6028,-4.637,-4.7539,-4.8643,-4.9007,-5.0204,-5.1189,-5.1327,-5.1343,0.0,0.0,0.0,0.0,0.0,0.0,0.0,0.0,0.0,0.0,0.0,0.0,0.0,0.0,-5.3001,-5.3183,-5.3013,-5.3622,-5.4155,-5.4647,-5.4621,-5.4837,-5.5285,-5.5252,-5.5528,-5.5996,-5.5961,-5.5962,0.0,0.0,0.0,0.0,-5.5745,-5.5724,-5.5703,-5.5724,-5.5703,-5.564,-5.5682,-5.5684,-5.5686,-5.5827,-5.5922,-5.599,-5.6098,-5.6133,-5.6098,-5.6098,-5.5117,-5.373,-5.2531,-5.1815,-5.1312,-5.1018,-5.0941,-5.0956,-5.0956,-5.099,-5.099,-5.099,-5.099,-5.099,-5.099,-5.0956,-5.0941,-5.0941,-5.0906,-5.0906,-5.0906,-5.0906,-5.0906,-5.0906,-5.0906,-5.0906,-5.0906,-5.0906,-5.0906,-5.0906,-5.0906,-5.0909,-5.0897,-5.0897,-5.0877,-5.0844,-5.0844,-5.0861,-5.0897,-5.0897,-5.0979,-5.1101,-5.1121,-5.1163,-5.1201,-5.1267,-5.1312,0.0,0.0,0.0,0.0,0.0,0.0,0.0,0.0,0.0,-4.714,-4.8047,-4.8944,-4.9751,-5.0617,-5.1259,-5.1374,0.0,0.0,0.0,0.0,0.0,0.0,0.0,0.0,0.0,0.0,0.0,0.0,0.0,0.0,0.0,-5.2519,-5.2926,-5.3851,-5.543,-5.6207,-5.601,-5.5936,-5.5943,-5.6004,-5.5938,-5.5941,-5.5981,-5.5924,-5.5846,0.0,0.0,0.0,0.0,-5.5787,-5.5766,-5.5705,-5.5787,-5.5787,-5.5745,-5.5787,-5.5827,-5.5846,-5.5975,-5.6059,-5.6121,-5.618,-5.6149,-5.6098,-5.6098,-5.5484,-5.4445,-5.2856,-5.2353,-5.2102,-5.1315,-5.1097,-5.1097,-5.1101,-5.1114,-5.1114,-5.1114,-5.1114,-5.1114,-5.1114,-5.1048,-5.102,-5.102,-5.0956,-5.0906,-5.0906,-5.0906,-5.0906,-5.0906,-5.0906,-5.0906,-5.0906,-5.0906,-5.0906,-5.0906,-5.0906,-5.0906,-5.0906,-5.0906,-5.0906,-5.0906,-5.0906,-5.0906,-5.0906,-5.0906,-5.0971,-5.1101,-5.1163,-5.1208,-5.1189,-5.1269,-5.1287,-4.3953,0.0,-4.6063,-4.6054,-4.6047,0.0,0.0,0.0,0.0,0.0,0.0,0.0,0.0,0.0,0.0,0.0,0.0,0.0,0.0,0.0,0.0,0.0,0.0,0.0,0.0,0.0,0.0,0.0,0.0,0.0,0.0,-5.3404,-5.4084,-5.5574,-5.5966,-5.549,-5.4153,-5.4123,-5.442,-5.503,-5.4995,-5.5343,-5.5924,-5.5846,-5.5807,0.0,0.0,0.0,-5.5787,-5.5847,-5.5885,-5.5847,-5.5919,-5.5938,-5.5922,-5.5956,-5.599,-5.6046,-5.6075,-5.6126,-5.618,-5.6199,-5.6194,-5.619,-5.618,-5.5533,-5.4707,-5.4301,-5.3751,-5.3083,-5.2278,-5.2078,-5.1917,-5.1319,-5.1175,-5.1186,-5.1189,-5.1178,-5.1175,-5.1175,-5.112,-5.1069,-5.1069,-5.1062,-5.1053,-5.1053,-5.1053,-5.102,-5.0971,-5.0971,-5.0956,-5.0906,-5.0906,-5.0906,-5.0906,-5.0906,-5.0906,-5.0906,-5.0906,-5.0906,-5.0906,-5.0906,-5.0906,-5.0906,-5.0956,-5.102,-5.1101,-5.112,-5.1147,-5.1189,-5.122,-5.122,-4.3585,-4.4606,-4.565,-4.6049,-4.6152,-4.625,0.0,0.0,0.0,0.0,0.0,0.0,0.0,0.0,0.0,0.0,0.0,0.0,0.0,0.0,0.0,0.0,0.0,0.0,0.0,0.0,0.0,0.0,0.0,0.0,0.0,-5.361,-5.4396,-5.6091,-5.6082,-5.5636,-5.4704,-5.4655,-5.4856,-5.5304,-5.5229,-5.5442,-5.5846,-5.5787,-5.5766,0.0,0.0,0.0,-5.5847,-5.5956,-5.599,-5.6007,-5.6067,-5.6102,-5.611,-5.6121,-5.6141,-5.6149,-5.6156,-5.6175,-5.6199,-5.6243,-5.6232,-5.6207,-5.6246,-5.5896,-5.543,-5.4973,-5.4555,-5.4064,-5.3254,-5.304,-5.2935,-5.2543,-5.2446,-5.2446,-5.2435,-5.2124,-5.1832,-5.1833,-5.1473,-5.115,-5.115,-5.1156,-5.1152,-5.1159,-5.1159,-5.1114,-5.1042,-5.1062,-5.1015,-5.0956,-5.0956,-5.0921,-5.0906,-5.0906,-5.0906,-5.0906,-5.0906,-5.0906,-5.0906,-5.0906,-5.0906,-5.0906,-5.0971,-5.102,-5.1053,-5.1089,-5.112,-5.1156,-5.1159,-5.118,-4.3457,-4.4286,-4.5114,-4.5994,-4.6212,-4.6419,0.0,0.0,0.0,0.0,0.0,0.0,0.0,0.0,0.0,0.0,0.0,0.0,0.0,0.0,0.0,0.0,0.0,0.0,0.0,0.0,0.0,0.0,0.0,0.0,0.0,-5.3456,-5.4223,-5.5849,-5.5971,-5.6031,-5.6082,-5.6035,-5.5981,-5.5981,-5.5846,-5.5787,-5.5787,-5.5724,-5.5745,-5.5787,0.0,0.0,-5.5958,-5.6091,-5.6117,-5.6132,-5.6201,-5.6233,-5.6226,-5.6272,-5.6251,-5.6194,-5.6204,-5.6204,-5.6223,-5.6284,-5.6272,-5.6239,-5.6294,-5.6358,-5.6242,-5.5384,-5.5182,-5.5022,-5.4217,-5.4003,-5.3993,-5.3933,-5.3927,-5.3923,-5.3923,-5.3345,-5.2805,-5.2804,-5.206,-5.1412,-5.1412,-5.1297,-5.123,-5.121,-5.121,-5.1189,-5.1132,-5.112,-5.1082,-5.1015,-5.102,-5.0971,-5.0906,-5.0906,-5.0906,-5.0906,-5.0906,-5.0906,-5.0906,-5.0906,-5.0906,-5.0906,-5.0956,-5.0986,-5.1005,-5.1053,-5.1095,-5.1114,-5.1101,-5.1125,-4.3459,-4.4336,-4.5197,-4.6075,-4.6241,-4.6425,0.0,0.0,0.0,0.0,0.0,0.0,0.0,0.0,0.0,0.0,0.0,0.0,0.0,0.0,0.0,0.0,0.0,0.0,0.0,0.0,0.0,0.0,0.0,0.0,0.0,-5.3135,-5.3972,-5.4984,-5.5648,-5.6017,-5.6017,-5.5999,-5.5943,-5.5826,-5.5826,-5.5766,-5.5724,-5.5684,-5.5745,-5.5807,0.0,-5.5958,-5.6082,-5.6204,-5.6272,-5.629,-5.6345,-5.6333,-5.629,-5.629,-5.6253,-5.6204,-5.6194,-5.6226,-5.6294,-5.6304,-5.6336,-5.6368,-5.6378,-5.6435,-5.6455,-5.6309,-5.6232,-5.6008,-5.5199,-5.4994,-5.4816,-5.4142,-5.3977,-5.3982,-5.3982,-5.3879,-5.3791,-5.3791,-5.3026,-5.2395,-5.2395,-5.1771,-5.1278,-5.1284,-5.1284,-5.1267,-5.1201,-5.1169,-5.1156,-5.1095,-5.1029,-5.1005,-5.099,-5.0921,-5.0906,-5.0906,-5.0906,-5.0906,-5.0906,-5.0906,-5.0906,-5.0906,-5.0906,-5.0956,-5.1005,-5.102,-5.1034,-5.1101,-5.1095,-5.1121,-4.4036,-4.4696,-4.5214,-4.6073,-4.6278,-4.6475,-4.7357,0.0,0.0,0.0,0.0,0.0,0.0,0.0,0.0,0.0,0.0,0.0,0.0,0.0,0.0,0.0,0.0,0.0,0.0,0.0,0.0,0.0,0.0,0.0,0.0,-5.3014,-5.3848,-5.4721,-5.5537,-5.5924,-5.5905,-5.5905,-5.5866,-5.5787,-5.5766,-5.5724,-5.564,-5.5662,-5.5745,-5.5807,0.0,-5.6024,-5.6156,-5.6309,-5.6336,-5.6358,-5.6388,-5.6377,-5.6345,-5.6265,-5.6232,-5.6209,-5.6232,-5.6272,-5.6304,-5.6372,-5.6427,-5.6449,-5.6439,-5.6503,-5.6548,-5.6556,-5.6498,-5.6374,-5.5997,-5.5919,-5.5853,-5.5497,-5.54,-5.5396,-5.5396,-5.5021,-5.4708,-5.4708,-5.3972,-5.3362,-5.3362,-5.2623,-5.2064,-5.2064,-5.1655,-5.133,-5.1269,-5.1253,-5.123,-5.1152,-5.1127,-5.1069,-5.102,-5.0971,-5.0941,-5.0906,-5.0906,-5.0906,-5.0906,-5.0906,-5.0906,-5.0906,-5.0906,-5.0906,-5.0956,-5.0956,-5.0971,-5.1053,-5.1053,-5.1067,-4.4637,-4.5148,-4.547,-4.613,0.0,-4.6534,-4.7401,0.0,0.0,0.0,0.0,0.0,0.0,0.0,0.0,0.0,0.0,0.0,0.0,0.0,0.0,0.0,0.0,0.0,0.0,0.0,0.0,0.0,0.0,0.0,-5.1857,-5.2655,-5.3488,-5.4359,-5.5152,-5.5653,-5.5787,-5.5787,-5.5766,-5.5766,-5.5724,-5.564,-5.5596,-5.564,-5.5705,-5.5808,-5.5954,-5.6083,-5.6239,-5.6347,-5.6388,-5.6388,-5.6407,-5.6377,-5.6364,-5.6239,-5.6218,-5.6218,-5.6272,-5.6324,-5.6356,-5.6465,-5.6508,-5.6523,-5.6516,-5.6568,-5.661,-5.6591,-5.6567,-5.6528,-5.6528,-5.6567,-5.661,-5.6598,-5.6595,-5.6606,-5.6606,-5.6079,-5.5591,-5.5591,-5.4908,-5.4303,-5.4303,-5.358,-5.2932,-5.2723,-5.2138,-5.1606,-5.1361,-5.1322,-5.1297,-5.122,-5.1208,-5.1152,-5.102,-5.1005,-5.0971,-5.0906,-5.0906,-5.0906,-5.0906,-5.0906,-5.0906,-5.0906,-5.0906,-5.0906,-5.0906,-5.0906,-5.0941,-5.0971,-5.0971,-5.1005,-4.4977,-4.559,-4.6225,-4.6276,0.0,0.0,-4.7392,0.0,0.0,0.0,0.0,0.0,0.0,0.0,0.0,0.0,0.0,0.0,0.0,0.0,0.0,0.0,0.0,0.0,0.0,0.0,0.0,0.0,0.0,0.0,-5.0977,-5.1749,-5.2563,-5.3377,-5.4188,-5.4978,-5.5787,-5.5745,-5.5703,-5.5703,-5.564,-5.5596,-5.5596,-5.5596,-5.5686,-5.5808,-5.5935,-5.6112,-5.6302,-5.6368,-5.6388,-5.6407,-5.6407,-5.6353,-5.6291,-5.6232,-5.6246,-5.6286,-5.6304,-5.6383,-5.6492,-5.6489,-5.6533,-5.6591,-5.6599,-5.6599,-5.661,-5.6591,-5.6606,-5.6586,-5.6586,-5.6606,-5.6606,-5.6606,-5.6606,-5.6606,-5.6606,-5.6547,-5.6508,-5.6508,-5.5806,-5.5201,-5.5201,-5.4478,-5.3639,-5.2819,-5.2639,-5.2303,-5.1508,-5.1382,-5.1366,-5.1308,-5.1249,-5.1146,-5.102,-5.1005,-5.0971,-5.0906,-5.0906,-5.0906,-5.0906,-5.0906,-5.0906,-5.0906,-5.0906,-5.0906,-5.0906,-5.0906,-5.0906,-5.0906,-5.0906,-5.0956,-4.5668,-4.6042,-4.63,-4.6306,0.0,0.0,0.0,0.0,0.0,0.0,0.0,0.0,0.0,0.0,0.0,0.0,0.0,0.0,0.0,0.0,0.0,0.0,0.0,0.0,0.0,0.0,0.0,0.0,0.0,0.0,0.0,-5.162,-5.2433,-5.3282,-5.4072,-5.4898,-5.5726,-5.5662,-5.564,-5.564,-5.5618,-5.5573,-5.5551,-5.5618,-5.5707,-5.5808,-5.602,-5.6193,-5.6314,-5.6427,-5.6446,-5.6407,-5.6336,-5.6297,-5.6246,-5.6258,-5.6278,-5.6304,-5.6386,-5.6465,-5.6513,-5.655,-5.6577,-5.6598,-5.6601,-5.6601,-5.66,-5.6597,-5.6605,-5.661,-5.6602,-5.6595,-5.6606,-5.6606,-5.6606,-5.6606,-5.6606,-5.6606,-5.6606,-5.6606,-5.6333,-5.6118,-5.6118,-5.5396,-5.4693,-5.4361,-5.3385,-5.2573,-5.2255,-5.1735,-5.1381,-5.1351,-5.1267,-5.1171,-5.112,-5.1042,-5.0986,-5.0956,-5.0921,-5.0906,-5.0906,-5.0906,-5.0906,-5.0906,-5.0906,-5.0906,-5.0906,-5.0906,-5.0906,-5.0906,-5.0906,-5.0906,-4.6108,-4.628,-4.6309,0.0,0.0,0.0,0.0,0.0,0.0,0.0,0.0,0.0,0.0,0.0,0.0,0.0,0.0,0.0,0.0,0.0,0.0,0.0,0.0,0.0,0.0,0.0,0.0,0.0,0.0,0.0,0.0,-5.1316,-5.2127,-5.3224,-5.38,-5.4607,-5.5662,-5.5618,-5.5573,-5.5527,-5.5551,-5.5551,-5.5504,-5.564,-5.5767,-5.5865,-5.6102,-5.6246,-5.6336,-5.6437,-5.6437,-5.6358,-5.6333,-5.6265,-5.6239,-5.6302,-5.6341,-5.6387,-5.6466,-5.6514,-5.6534,-5.6582,-5.6597,-5.6601,-5.6601,-5.6601,-5.6601,-5.6601,-5.6598,-5.6605,-5.6591,-5.6602,-5.6606,-5.6606,-5.6606,-5.6606,-5.6606,-5.6606,-5.6606,-5.6606,-5.6606,-5.6606,-5.6606,-5.6118,-5.5611,-5.5337,-5.4283,-5.3318,-5.2771,-5.2187,-5.1718,-5.1433,-5.1317,-5.1249,-5.1197,-5.1127,-5.1062,-5.0986,-5.0956,-5.0921,-5.0906,-5.0906,-5.0906,-5.0906,-5.0906,-5.0906,-5.0906,-5.0906,-5.0906,-5.0906,-5.0906,-5.0906,-4.6195,-4.6253,0.0,0.0,0.0,0.0,0.0,0.0,0.0,0.0,0.0,0.0,0.0,0.0,0.0,0.0,0.0,0.0,0.0,0.0,0.0,0.0,0.0,0.0,0.0,0.0,0.0,0.0,0.0,0.0,0.0,-5.0701,-5.1472,-5.3126,-5.3203,-5.397,-5.5577,-5.5596,-5.5527,-5.5408,-5.548,-5.5504,-5.5504,-5.564,-5.5808,-5.5993,-5.6126,-5.6275,-5.6388,-5.6388,-5.6358,-5.6302,-5.6304,-5.6297,-5.6302,-5.6382,-5.6434,-5.6494,-5.6496,-5.6543,-5.6595,-5.66,-5.6601,-5.6601,-5.6601,-5.6601,-5.6601,-5.6601,-5.6601,-5.6601,-5.6595,-5.6602,-5.6606,-5.6606,-5.6606,-5.6606,-5.6606,-5.6606,-5.6606,-5.6606,-5.6606,-5.6606,-5.6606,-5.6606,-5.6313,-5.5435,-5.5318,-5.4678,-5.2919,-5.2694,-5.2363,-5.1484,-5.1394,-5.1349,-5.1206,-5.1197,-5.1144,-5.102,-5.1005,-5.0971,-5.0906,-5.0906,-5.0906,-5.0906,-5.0906,-5.0906,-5.0906,-5.0906,-5.0906,-5.0906,-5.0906,-5.0906,-4.6264,0.0,0.0,0.0,0.0,0.0,0.0,0.0,0.0,0.0,0.0,0.0,0.0,0.0,0.0,0.0,0.0,0.0,0.0,0.0,0.0,0.0,0.0,0.0,0.0,0.0,0.0,0.0,0.0,0.0,0.0,-5.0702,-5.1183,-5.226,-5.2834,-5.3637,-5.4751,-5.5216,-5.5432,-5.5408,-5.5432,-5.548,-5.5573,-5.5728,-5.5883,-5.6071,-5.6201,-5.6314,-5.6397,-5.6336,-5.6325,-5.6302,-5.629,-5.6314,-5.6297,-5.6427,-5.6483,-5.651,-5.6549,-5.6586,-5.6599,-5.6601,-5.6601,-5.6601,-5.6601,-5.6601,-5.6601,-5.6601,-5.6601,-5.6601,-5.6595,-5.6602,-5.6606,-5.6606,-5.6606,-5.6606,-5.6606,-5.6606,-5.6606,-5.6606,-5.6606,-5.6606,-5.6606,-5.6606,-5.6508,-5.6255,-5.5689,-5.4665,-5.2928,-5.2168,-5.1699,-5.1426,-5.1405,-5.1374,-5.1336,-5.1248,-5.1178,-5.1144,-5.1095,-5.1029,-5.0906,-5.0906,-5.0906,-5.0906,-5.0906,-5.0906,-5.0906,-5.0906,-5.0906,-5.0906,-5.0906,-5.0906,-4.6253,0.0,0.0,0.0,0.0,0.0,0.0,0.0,0.0,0.0,0.0,0.0,0.0,0.0,0.0,0.0,0.0,0.0,0.0,0.0,0.0,0.0,0.0,0.0,0.0,0.0,0.0,0.0,0.0,0.0,0.0,-5.0702,-5.1068,-5.1835,-5.2333,-5.3155,-5.4319,-5.4752,-5.5107,-5.5408,-5.548,-5.5596,-5.5686,-5.5827,-5.5971,-5.616,-5.6283,-5.6367,-5.6386,-5.6333,-5.6302,-5.6309,-5.6294,-5.6325,-5.6347,-5.6465,-5.6519,-5.6549,-5.6595,-5.6598,-5.6601,-5.6601,-5.6601,-5.6601,-5.6601,-5.6601,-5.6601,-5.6601,-5.6601,-5.6601,-5.6595,-5.6602,-5.6606,-5.6606,-5.6606,-5.6606,-5.6606,-5.6606,-5.6606,-5.6606,-5.6606,-5.6606,-5.6606,-5.6606,-5.6606,-5.6606,-5.5864,-5.4802,-5.3395,-5.2461,-5.1777,-5.1445,-5.1406,-5.1405,-5.1396,-5.1336,-5.1256,-5.1201,-5.1167,-5.1076,-5.0952,-5.0937,-5.0941,-5.0906,-5.0906,-5.0906,-5.0906,-5.0906,-5.0906,-5.0906,-5.0906,-5.0906,0.0,0.0,0.0,0.0,0.0,0.0,0.0,0.0,0.0,0.0,0.0,0.0,0.0,0.0,0.0,0.0,0.0,0.0,0.0,0.0,0.0,0.0,0.0,0.0,0.0,0.0,0.0,0.0,0.0,0.0,0.0,-5.0683,-5.1009,-5.1659,-5.1734,-5.2497,-5.3977,-5.4177,-5.4637,-5.5317,-5.558,-5.5748,-5.5827,-5.5938,-5.6087,-5.6239,-5.6358,-5.6398,-5.6386,-5.6333,-5.6309,-5.6304,-5.6306,-5.6356,-5.6414,-5.6485,-5.655,-5.6601,-5.6595,-5.6601,-5.6601,-5.6601,-5.6601,-5.6601,-5.6601,-5.6601,-5.6601,-5.6601,-5.6601,-5.6601,-5.6597,-5.6602,-5.6606,-5.6606,-5.6606,-5.6606,-5.6606,-5.6606,-5.6606,-5.6606,-5.6606,-5.6606,-5.6606,-5.6606,-5.6606,-5.6606,-5.5864,-5.499,-5.4111,-5.324,-5.2363,-5.1484,-5.1406,-5.1406,-5.1406,-5.1396,-5.1352,-5.1217,-5.1201,-5.1156,-5.1004,-5.1015,-5.0971,-5.0906,-5.0906,-5.0906,-5.0906,-5.0906,-5.0906,-5.0906,-5.0906,-5.0906,0.0,0.0,0.0,0.0,0.0,0.0,0.0,0.0,0.0,0.0,0.0,0.0,0.0,0.0,0.0,0.0,0.0,0.0,0.0,0.0,0.0,0.0,0.0,0.0,0.0,0.0,0.0,0.0,0.0,0.0,-5.0623,-5.0623,-5.068,-5.0771,-5.1398,-5.1893,-5.2242,-5.356,-5.4354,0.0,-5.5397,-5.5866,-5.6056,-5.6071,-5.6174,-5.6368,-5.6377,-5.6397,-5.6386,-5.6329,-5.6297,-5.6309,-5.6353,-5.6416,-5.6485,-5.6561,-5.6588,-5.6597,-5.6598,-5.6601,-5.6601,-5.6601,-5.6601,-5.6601,-5.6601,-5.6601,-5.6601,-5.6601,-5.6601,-5.6601,-5.6601,-5.6591,-5.6606,-5.6606,-5.6606,-5.6606,-5.6606,-5.6606,-5.6606,-5.6606,-5.6606,-5.6606,-5.6606,-5.6606,-5.6606,-5.6606,-5.5864,-5.499,-5.4111,-5.324,-5.2363,-5.1484,-5.1406,-5.1406,-5.1406,-5.1406,-5.1374,-5.1277,-5.1284,-5.1219,-5.1076,-5.1029,-5.0971,-5.0906,-5.0906,-5.0906,-5.0906,-5.0906,-5.0906,-5.0906,-5.0906,-5.0906,0.0,0.0,0.0,0.0,0.0,0.0,0.0,0.0,0.0,0.0,0.0,0.0,0.0,0.0,0.0,0.0,0.0,0.0,0.0,0.0,0.0,0.0,0.0,0.0,0.0,0.0,0.0,0.0,0.0,-5.0623,-5.0562,-5.0542,-5.0521,-5.0457,-5.0875,-5.1296,-5.1702,-5.2631,-5.3543,-5.4457,-5.5035,-5.5633,-5.6194,-5.6226,-5.6306,-5.6407,-5.6397,-5.6386,-5.6345,-5.6309,-5.6302,-5.6306,-5.6397,-5.6465,-5.6515,-5.6576,-5.6597,-5.6593,-5.6601,-5.6601,-5.6601,-5.6601,-5.6601,-5.6601,-5.6601,-5.6601,-5.6601,-5.6601,-5.6601,-5.6601,-5.6601,-5.6599,-5.6607,-5.6591,-5.6606,-5.6606,-5.6606,-5.6606,-5.6606,-5.6606,-5.6606,-5.6606,-5.6606,-5.6606,-5.6606,-5.6606,-5.6216,-5.5615,-5.4724,-5.3864,-5.2988,-5.2129,-5.1641,-5.1406,-5.1406,-5.1406,-5.1398,-5.1347,-5.1323,-5.124,-5.1101,-5.1075,-5.1005,-5.0906,-5.0906,-5.0906,-5.0906,-5.0906,-5.0906,-5.0906,-5.0906,-5.0906,0.0,0.0,0.0,0.0,0.0,0.0,0.0,0.0,0.0,0.0,0.0,0.0,0.0,0.0,0.0,0.0,0.0,0.0,0.0,0.0,0.0,0.0,0.0,0.0,0.0,0.0,0.0,0.0,0.0,-5.0542,-5.05,-5.0478,-5.0457,-5.0371,-5.039,-5.0757,-5.1488,-5.1776,-5.2647,-5.4127,-5.4618,-5.5281,-5.6105,-5.63,-5.6388,-5.6407,-5.6397,-5.6375,-5.6314,-5.6294,-5.6306,-5.6319,-5.6446,-5.6508,-5.6517,-5.6586,-5.6593,-5.6601,-5.6601,-5.6601,-5.6601,-5.6601,-5.6601,-5.6601,-5.6601,-5.6601,-5.6601,-5.6601,-5.6601,-5.6601,-5.6601,-5.6601,-5.6601,-5.6605,-5.6595,-5.6591,-5.6606,-5.6606,-5.6606,-5.6606,-5.6606,-5.6606,-5.6606,-5.6606,-5.6606,-5.6606,-5.6606,-5.6294,-5.5411,-5.4677,-5.3827,-5.2812,-5.2051,-5.1562,-5.1406,-5.14,-5.1402,-5.1381,-5.1323,-5.124,-5.1125,-5.1089,-5.1039,-5.0906,-5.0906,-5.0906,-5.0906,-5.0906,-5.0906,-5.0906,-5.0906,-5.0906,0.0,0.0,0.0,0.0,0.0,0.0,0.0,0.0,0.0,0.0,0.0,0.0,0.0,0.0,0.0,0.0,0.0,0.0,0.0,0.0,0.0,0.0,0.0,0.0,0.0,0.0,0.0,0.0,-5.0562,-5.0478,-5.0412,-5.0412,-5.0371,-5.0302,-5.0367,-5.0514,-5.0755,-5.1568,-5.2198,-5.2603,-5.4269,-5.5122,-5.5298,-5.6057,-5.6388,-5.6407,-5.6397,-5.6386,-5.6386,-5.6328,-5.6338,-5.6398,-5.6474,-5.655,-5.6593,-5.661,-5.6601,-5.6601,-5.6601,-5.6601,-5.6601,-5.6601,-5.6601,-5.6601,-5.6601,-5.6601,-5.6601,-5.6601,-5.6601,-5.6601,-5.6601,-5.6601,-5.6601,-5.6601,-5.6597,-5.6607,-5.661,-5.6606,-5.6606,-5.6606,-5.6606,-5.6606,-5.6606,-5.6606,-5.6606,-5.6606,-5.6606,-5.6294,-5.5411,-5.5205,-5.4496,-5.2871,-5.2598,-5.2226,-5.1465,-5.1406,-5.1381,-5.1316,-5.1249,-5.1183,-5.1108,-5.1029,-5.0971,-5.0906,-5.0906,-5.0906,-5.0906,-5.0906,-5.0906,-5.0906,-5.0906,-5.0906,0.0,0.0,0.0,0.0,0.0,0.0,0.0,0.0,0.0,0.0,0.0,0.0,0.0,0.0,0.0,0.0,0.0,0.0,0.0,0.0,0.0,0.0,0.0,0.0,0.0,0.0,0.0,0.0,-5.0457,-5.0393,-5.0348,-5.0348,-5.0348,-5.0367,-5.0435,-5.0502,-5.0644,-5.1138,-5.1756,-5.2491,-5.3808,-5.4673,-5.516,-5.5502,-5.593,-5.6407,-5.6397,-5.6386,-5.6328,-5.6338,-5.6388,-5.6472,-5.6522,-5.6574,-5.6601,-5.6597,-5.6601,-5.6601,-5.6601,-5.6601,-5.6601,-5.6601,-5.6601,-5.6601,-5.6601,-5.6601,-5.6601,-5.6601,-5.6601,-5.6601,-5.6601,-5.6601,-5.6601,-5.6601,-5.6601,-5.6598,-5.6607,-5.6602,-5.6602,-5.6602,-5.6602,-5.6602,-5.6602,-5.6602,-5.6602,-5.6602,-5.6595,-5.6469,-5.6079,-5.5609,-5.4821,-5.3554,-5.2988,-5.2343,-5.1476,-5.1396,-5.1362,-5.13,-5.124,-5.1163,-5.1095,-5.1048,-5.0971,-5.0906,-5.0906,-5.0906,-5.0906,-5.0906,-5.0906,-5.0906,-5.0906,-5.0906,0.0,0.0,0.0,0.0,0.0,0.0,0.0,0.0,0.0,0.0,0.0,0.0,0.0,0.0,0.0,0.0,0.0,0.0,0.0,0.0,0.0,0.0,0.0,0.0,0.0,0.0,0.0,0.0,-5.0371,-5.0348,-5.0302,-5.0302,-5.0367,-5.0435,-5.0521,-5.0625,-5.0756,-5.0894,-5.1416,-5.228,-5.3143,-5.3911,-5.4554,-5.4937,-5.5463,-5.6085,-5.6299,-5.6367,-5.6338,-5.6398,-5.6455,-5.6535,-5.6574,-5.6601,-5.6605,-5.66,-5.6601,-5.6601,-5.6601,-5.6601,-5.6601,-5.6601,-5.6601,-5.6601,-5.6601,-5.6601,-5.6601,-5.6601,-5.6601,-5.6601,-5.6601,-5.6601,-5.6601,-5.6601,-5.6601,-5.6601,-5.6598,-5.6597,-5.6597,-5.6597,-5.6597,-5.6597,-5.6597,-5.6597,-5.6597,-5.6597,-5.661,-5.6602,-5.6602,-5.6032,-5.5215,-5.4119,-5.3416,-5.259,-5.1488,-5.138,-5.1362,-5.1278,-5.12,-5.1144,-5.1069,-5.1015,-5.0956,-5.0906,-5.0906,-5.0906,-5.0906,-5.0906,-5.0906,-5.0906,-5.0906,-5.0906,0.0,0.0,0.0,0.0,0.0,0.0,0.0,0.0,0.0,0.0,0.0,0.0,0.0,0.0,0.0,0.0,0.0,0.0,0.0,0.0,0.0,0.0,0.0,0.0,0.0,0.0,0.0,0.0,-5.0325,-5.0302,-5.0302,-5.0348,-5.0435,-5.05,-5.0606,-5.0756,-5.089,-5.1093,-5.1259,-5.1384,-5.2247,-5.2684,-5.2801,-5.4392,-5.5122,-5.522,-5.6027,-5.6397,-5.6398,-5.6474,-5.6522,-5.6597,-5.6601,-5.6607,-5.6601,-5.6601,-5.6601,-5.6601,-5.6601,-5.6601,-5.6601,-5.6601,-5.6601,-5.6601,-5.6601,-5.6601,-5.6601,-5.6601,-5.6601,-5.6601,-5.6601,-5.6601,-5.6601,-5.6601,-5.6601,-5.6601,-5.6601,-5.6601,-5.6601,-5.6601,-5.6601,-5.6601,-5.6601,-5.6601,-5.6601,-5.6601,-5.6601,-5.6601,-5.6601,-5.6562,-5.5877,-5.4177,-5.3959,-5.3244,-5.1536,-5.1342,-5.1269,-5.1224,-5.1134,-5.1069,-5.102,-5.0956,-5.0906,-5.0906,-5.0906,-5.0906,-5.0906,-5.0906,-5.0906,-5.0906,-5.0906,-5.0906,0.0,0.0,0.0,0.0,0.0,0.0,0.0,0.0,0.0,0.0,0.0,0.0,0.0,0.0,0.0,0.0,0.0,0.0,0.0,0.0,0.0,0.0,0.0,0.0,0.0,0.0,0.0,0.0,0.0,-5.0325,-5.0348,-5.0435,-5.0502,-5.0606,-5.0756,-5.0917,-5.1093,-5.122,-5.1287,-5.1312,-5.1624,-5.206,-5.2645,-5.3759,-5.4586,-5.5205,-5.6038,-5.6427,-5.6474,-5.6498,-5.6536,-5.6601,-5.6607,-5.66,-5.6601,-5.6601,-5.6601,-5.6601,-5.6601,-5.6601,-5.6601,-5.6601,-5.6601,-5.6601,-5.6601,-5.6601,-5.6601,-5.6601,-5.6601,-5.6601,-5.6601,-5.6601,-5.6601,-5.6601,-5.6601,-5.6601,-5.6601,-5.6601,-5.6601,-5.6601,-5.6601,-5.6601,-5.6601,-5.6601,-5.6601,-5.6601,-5.6601,-5.66,-5.661,-5.6607,-5.6152,-5.4966,-5.4298,-5.3468,-5.2278,-5.1609,-5.1225,-5.1194,-5.1102,-5.1034,-5.1005,-5.0941,-5.0906,-5.0906,-5.0906,-5.0906,-5.0906,-5.0906,-5.0906,-5.0906,-5.0906,-5.0906,0.0,0.0,0.0,0.0,0.0,0.0,0.0,0.0,0.0,0.0,0.0,0.0,0.0,0.0,0.0,0.0,0.0,0.0,0.0,0.0,0.0,0.0,0.0,0.0,0.0,0.0,0.0,0.0,0.0,0.0,-5.0435,-5.0523,-5.0645,-5.0841,-5.0947,-5.1069,-5.122,-5.1287,-5.1304,-5.13,-5.1308,-5.16,-5.2185,-5.3018,-5.3911,-5.48,-5.5637,-5.6182,-5.6488,-5.6524,-5.6563,-5.6607,-5.66,-5.6601,-5.6601,-5.6601,-5.6601,-5.6601,-5.6601,-5.6601,-5.6601,-5.6601,-5.6601,-5.6601,-5.6601,-5.6601,-5.6601,-5.6601,-5.6601,-5.6601,-5.6601,-5.6601,-5.6601,-5.6601,-5.6601,-5.6601,-5.6601,-5.6601,-5.6601,-5.6601,-5.6601,-5.6601,-5.6601,-5.6601,-5.6601,-5.6601,-5.66,-5.661,-5.6606,-5.6587,-5.6235,-5.5366,-5.4456,-5.3541,-5.2611,-5.1703,-5.1178,-5.1152,-5.1042,-5.0986,-5.0971,-5.0921,-5.0906,-5.0906,-5.0906,-5.0906,-5.0906,-5.0906,-5.0906,-5.0906,-5.0906,-5.0906,0.0,0.0,0.0,0.0,0.0,0.0,0.0,0.0,0.0,0.0,0.0,0.0,0.0,0.0,0.0,0.0,0.0,0.0,0.0,0.0,0.0,0.0,0.0,0.0,0.0,0.0,0.0,0.0,-5.0367,-5.0435,-5.05,-5.0644,-5.0822,-5.1095,-5.1169,-5.122,-5.1287,-5.1292,-5.13,-5.13,-5.1303,-5.1291,-5.133,-5.2204,-5.3089,-5.3956,-5.4816,-5.5708,-5.6504,-5.6566,-5.6592,-5.6601,-5.6601,-5.6601,-5.6601,-5.6601,-5.6601,-5.6601,-5.6601,-5.6601,-5.6601,-5.6601,-5.6601,-5.6601,-5.6601,-5.6601,-5.6601,-5.6601,-5.6601,-5.6601,-5.6601,-5.6601,-5.6601,-5.6601,-5.6601,-5.6601,-5.6601,-5.6601,-5.6601,-5.6601,-5.6601,-5.6601,-5.6601,-5.6601,-5.6601,-5.6601,-5.6607,-5.6606,-5.6597,-5.6542,-5.6172,-5.5314,-5.4457,-5.3535,-5.2511,-5.1714,-5.1171,-5.102,-5.1005,-5.0971,-5.0906,-5.0906,-5.0906,-5.0906,-5.0906,-5.0906,-5.0906,-5.0906,-5.0906,-5.0906,-5.0906,-5.0906,-4.564,0.0,0.0,0.0,0.0,0.0,0.0,0.0,0.0,0.0,0.0,0.0,0.0,0.0,0.0,0.0,0.0,0.0,0.0,0.0,0.0,0.0,0.0,0.0,0.0,0.0,0.0,0.0,-5.0478,-5.0584,-5.0625,-5.0855,-5.1037,-5.1167,-5.1249,-5.1287,-5.1292,-5.13,-5.1308,-5.1303,-5.1355,-5.1381,-5.1395,-5.2279,-5.3156,-5.4016,-5.4897,-5.5762,-5.6572,-5.6587,-5.6602,-5.6601,-5.6601,-5.6601,-5.6601,-5.6601,-5.6601,-5.6601,-5.6601,-5.6601,-5.6601,-5.6601,-5.6601,-5.6601,-5.6601,-5.6601,-5.6601,-5.6601,-5.6601,-5.6601,-5.6601,-5.6601,-5.6601,-5.6601,-5.6601,-5.6601,-5.6601,-5.6601,-5.6601,-5.6601,-5.6601,-5.6601,-5.6601,-5.6601,-5.66,-5.6605,-5.6601,-5.6581,-5.6535,-5.6508,-5.6366,-5.6028,-5.5229,-5.4311,-5.3346,-5.2499,-5.1707,-5.1044,-5.0956,-5.0906,-5.0906,-5.0906,-5.0906,-5.0906,-5.0906,-5.0906,-5.0906,-5.0906,-5.0906,-5.0906,-5.0906,-5.0906,0.0,0.0,0.0,0.0,0.0,0.0,-5.0567,-5.0702,0.0,0.0,0.0,0.0,0.0,0.0,0.0,0.0,0.0,0.0,0.0,0.0,0.0,0.0,0.0,0.0,0.0,-5.0412,-5.0438,-5.0483,-5.0605,-5.0739,-5.0874,-5.103,-5.1178,-5.124,-5.1287,-5.1304,-5.13,-5.1308,-5.1316,-5.1342,-5.1388,-5.1405,-5.1425,-5.1937,-5.2628,-5.3514,-5.4378,-5.5243,-5.6098,-5.6448,-5.6597,-5.6601,-5.6601,-5.6601,-5.6601,-5.6601,-5.6601,-5.6601,-5.6601,-5.6601,-5.6601,-5.6601,-5.6601,-5.6601,-5.6601,-5.6601,-5.6601,-5.6601,-5.6601,-5.6601,-5.6601,-5.6601,-5.6601,-5.6601,-5.6601,-5.6601,-5.6601,-5.6601,-5.6601,-5.6601,-5.6601,-5.6601,-5.6601,-5.6599,-5.6607,-5.6601,-5.6581,-5.6539,-5.6472,-5.6435,-5.6398,-5.6314,-5.55,-5.4576,-5.3674,-5.2797,-5.192,-5.1014,-5.0921,-5.0906,-5.0906,-5.0906,-5.0906,-5.0906,-5.0906,-5.0906,-5.0906,-5.0906,-5.0906,-5.0906,-5.0906,-5.0906,0.0,0.0,0.0,0.0,0.0,0.0,-5.0702,-5.0702,-5.0702,0.0,0.0,0.0,0.0,0.0,0.0,0.0,0.0,0.0,0.0,0.0,0.0,0.0,0.0,0.0,-5.0412,-5.0478,-5.0565,-5.0625,-5.0736,-5.0906,-5.1095,-5.1169,-5.1249,-5.1306,-5.1292,-5.13,-5.132,-5.1303,-5.1349,-5.1394,-5.141,-5.1396,-5.1403,-5.1403,-5.187,-5.2746,-5.3526,-5.4417,-5.5365,-5.6131,-5.6504,-5.6601,-5.6601,-5.6601,-5.6601,-5.6601,-5.6601,-5.6601,-5.6601,-5.6601,-5.6601,-5.6601,-5.6601,-5.6601,-5.6601,-5.6601,-5.6601,-5.6601,-5.6601,-5.6601,-5.6601,-5.6601,-5.6601,-5.6601,-5.6601,-5.6601,-5.6601,-5.6601,-5.6601,-5.6601,-5.6601,-5.6601,-5.6601,-5.6582,-5.6595,-5.6597,-5.6539,-5.6453,-5.6398,-5.6328,-5.6294,-5.6278,-5.552,-5.4682,-5.3813,-5.2941,-5.204,-5.1099,-5.0964,-5.0906,-5.0906,-5.0906,-5.0906,-5.0906,-5.0906,-5.0906,-5.0906,-5.0906,-5.0906,-5.0906,-5.0906,-5.0906,0.0,0.0,0.0,0.0,0.0,0.0,-5.0702,-5.0702,-5.0702,0.0,0.0,0.0,0.0,0.0,0.0,0.0,0.0,0.0,0.0,0.0,0.0,0.0,0.0,0.0,-5.0542,-5.0625,-5.0701,-5.0752,-5.0942,-5.1069,-5.1167,-5.123,-5.1287,-5.1306,-5.1308,-5.1335,-5.1378,-5.1381,-5.138,-5.1398,-5.1391,-5.1402,-5.1406,-5.1398,-5.1888,-5.2714,-5.2887,-5.3844,-5.5311,-5.5488,-5.5976,-5.6601,-5.6601,-5.6601,-5.6601,-5.6601,-5.6601,-5.6601,-5.6601,-5.6601,-5.6601,-5.6601,-5.6601,-5.6601,-5.6601,-5.6601,-5.6601,-5.6601,-5.6601,-5.6601,-5.6601,-5.6601,-5.6601,-5.6601,-5.6601,-5.6601,-5.6601,-5.6601,-5.6601,-5.6601,-5.6601,-5.66,-5.6602,-5.6566,-5.6524,-5.6527,-5.6417,-5.6333,-5.6314,-5.6265,-5.6199,-5.6145,-5.5975,-5.5517,-5.4636,-5.3765,-5.2895,-5.1989,-5.1293,-5.0906,-5.0906,-5.0906,-5.0906,-5.0906,-5.0906,-5.0906,-5.0906,-5.0906,-5.0906,-5.0906,-5.0906,-5.0906,0.0,0.0,0.0,-4.995,0.0,0.0,0.0,-5.0721,-5.074,0.0,0.0,0.0,0.0,0.0,0.0,0.0,0.0,0.0,0.0,0.0,0.0,0.0,0.0,0.0,-5.0702,-5.0754,-5.0851,-5.099,-5.1117,-5.122,-5.1249,-5.1287,-5.1292,-5.13,-5.1335,-5.1369,-5.1394,-5.1401,-5.1405,-5.1398,-5.1405,-5.1406,-5.1398,-5.1402,-5.1639,-5.2082,-5.2519,-5.3203,-5.4062,-5.4941,-5.5566,-5.5996,-5.6426,-5.6601,-5.6601,-5.6601,-5.6601,-5.6601,-5.6601,-5.6601,-5.6601,-5.6601,-5.6601,-5.6601,-5.6601,-5.6601,-5.6601,-5.6601,-5.6601,-5.6601,-5.6601,-5.6601,-5.6601,-5.6601,-5.6601,-5.6601,-5.6601,-5.6601,-5.6601,-5.6595,-5.6563,-5.6549,-5.655,-5.6514,-5.6476,-5.6417,-5.6345,-5.6297,-5.6253,-5.6185,-5.6145,-5.6098,-5.6082,-5.5526,-5.4252,-5.3749,-5.2937,-5.1621,-5.1138,-5.0906,-5.0906,-5.0906,-5.0906,-5.0906,-5.0906,-5.0906,-5.0906,-5.0906,-5.0906,-5.0906,-5.0906,-5.0906,0.0,0.0,0.0,0.0,0.0,-5.0738,0.0,0.0,0.0,-5.0825,0.0,0.0,0.0,0.0,0.0,0.0,0.0,0.0,0.0,0.0,0.0,0.0,0.0,0.0,0.0,-5.0913,-5.1037,-5.12,-5.1269,-5.1295,-5.1295,-5.1292,-5.1308,-5.1323,-5.1362,-5.1394,-5.1398,-5.14,-5.1405,-5.1406,-5.1403,-5.1394,-5.1398,-5.1394,-5.1398,-5.1447,-5.2146,-5.2539,-5.2812,-5.4219,-5.5,-5.539,-5.6269,-5.6601,-5.6601,-5.6601,-5.6601,-5.6601,-5.6601,-5.6601,-5.6601,-5.6601,-5.6601,-5.6601,-5.6601,-5.6601,-5.6601,-5.6601,-5.6601,-5.6601,-5.6601,-5.6601,-5.6601,-5.6601,-5.6601,-5.6601,-5.6601,-5.6601,-5.6595,-5.6587,-5.6543,-5.6496,-5.6496,-5.6476,-5.6417,-5.6317,-5.6285,-5.6239,-5.6185,-5.611,-5.6082,-5.6082,-5.6029,-5.5393,-5.3884,-5.3594,-5.2821,-5.1254,-5.1003,-5.0906,-5.0906,-5.0906,-5.0906,-5.0906,-5.0906,-5.0906,-5.0906,-5.0906,-5.0906,-5.0906,-5.0906,-5.0906,0.0,0.0,0.0,0.0,-5.0791,0.0,0.0,0.0,-5.0976,-5.0976,0.0,0.0,0.0,0.0,0.0,0.0,0.0,0.0,0.0,0.0,0.0,0.0,0.0,0.0,0.0,-5.1136,-5.1201,-5.1278,-5.1304,-5.1292,-5.1292,-5.13,-5.132,-5.1378,-5.14,-5.1398,-5.1396,-5.1406,-5.14,-5.1402,-5.1402,-5.1405,-5.1396,-5.1402,-5.1391,-5.1406,-5.1504,-5.1992,-5.2715,-5.291,-5.3906,-5.539,-5.6269,-5.6601,-5.6601,-5.6601,-5.6601,-5.6601,-5.6601,-5.6601,-5.6601,-5.6601,-5.6601,-5.6601,-5.6601,-5.6601,-5.6601,-5.6601,-5.6601,-5.6601,-5.6601,-5.6601,-5.6601,-5.6601,-5.6601,-5.6601,-5.6601,-5.6593,-5.6587,-5.6522,-5.6505,-5.6508,-5.6508,-5.6395,-5.6317,-5.629,-5.6199,-5.613,-5.6114,-5.6046,-5.6012,-5.6012,-5.5993,-5.5625,-5.4735,-5.3942,-5.3091,-5.2105,-5.1331,-5.0906,-5.0906,-5.0906,-5.0906,-5.0906,-5.0906,-5.0906,-5.0906,-5.0906,-5.0906,-5.0906,-5.0906,-5.0906,0.0,0.0,0.0,0.0,0.0,0.0,-5.0995,0.0,-5.1056,0.0,0.0,0.0,0.0,0.0,0.0,0.0,0.0,0.0,0.0,0.0,0.0,0.0,0.0,0.0,0.0,0.0,0.0,0.0,-5.1292,-5.13,-5.13,-5.1296,-5.1323,-5.1401,-5.139,-5.14,-5.1406,-5.1398,-5.1405,-5.1394,-5.1394,-5.1398,-5.1405,-5.1396,-5.1404,-5.1406,-5.1406,-5.1601,-5.1973,-5.248,-5.3125,-5.3887,-5.4746,-5.5703,-5.6601,-5.6601,-5.6601,-5.6601,-5.6601,-5.6601,-5.6601,-5.6601,-5.6601,-5.6601,-5.6601,-5.6601,-5.6601,-5.6601,-5.6601,-5.6601,-5.6601,-5.6601,-5.6601,-5.6601,-5.6601,-5.6601,-5.6593,-5.6597,-5.6581,-5.6504,-5.6437,-5.6377,-5.6378,-5.6333,-5.6278,-5.6204,-5.6145,-5.6082,-5.6046,-5.6012,-5.6012,-5.6012,-5.5586,-5.4967,-5.4116,-5.3246,-5.2376,-5.1505,-5.1099,-5.0906,-5.0906,-5.0906,-5.0906,-5.0906,-5.0893,-5.0913,-5.0913,-5.0861,-5.0825,-5.0825,-5.0877,-5.0913,-5.0718,0.0,0.0,0.0,0.0,0.0,0.0,0.0,0.0,0.0,0.0,0.0,0.0,0.0,0.0,0.0,0.0,0.0,0.0,0.0,0.0,0.0,0.0,0.0,0.0,0.0,0.0,-5.1292,-5.13,-5.13,-5.13,-5.1316,-5.1356,-5.1405,-5.1391,-5.1406,-5.1398,-5.1405,-5.1394,-5.1394,-5.1398,-5.1398,-5.1394,-5.1403,-5.1406,-5.1406,-5.1406,-5.1406,-5.1445,-5.207,-5.248,-5.2754,-5.3398,-5.4551,-5.5918,-5.6152,-5.6387,-5.6601,-5.6601,-5.6445,-5.623,-5.623,-5.6074,-5.5898,-5.5898,-5.5898,-5.5898,-5.5898,-5.5898,-5.5898,-5.5898,-5.6055,-5.623,-5.623,-5.6426,-5.6599,-5.6602,-5.6588,-5.6541,-5.6464,-5.6367,-5.6285,-5.6253,-5.6253,-5.6213,-5.6114,-5.6082,-5.6065,-5.6012,-5.6012,-5.6012,-5.6012,-5.5277,-5.4445,-5.3575,-5.2705,-5.1834,-5.0964,-5.0909,-5.0909,-5.0909,-5.0874,-5.0874,-5.0874,-5.0844,-5.0846,-5.0846,-5.0775,-5.0738,-5.072,-5.0812,-5.0846,0.0,0.0,0.0,-5.1081,0.0,0.0,0.0,0.0,-5.1292,0.0,0.0,0.0,0.0,0.0,0.0,-4.9948,0.0,0.0,0.0,0.0,0.0,0.0,0.0,0.0,0.0,0.0,0.0,-5.1287,-5.1312,-5.13,-5.13,-5.1359,-5.1401,-5.1408,-5.14,-5.1406,-5.1394,-5.1394,-5.1394,-5.1394,-5.1391,-5.1391,-5.1394,-5.1403,-5.1406,-5.1406,-5.1406,-5.1406,-5.1406,-5.1426,-5.1933,-5.2695,-5.2734,-5.3281,-5.4199,-5.5039,-5.5879,-5.6601,-5.6601,-5.6055,-5.5332,-5.5332,-5.4765,-5.4082,-5.4082,-5.4082,-5.4082,-5.4082,-5.4082,-5.4082,-5.4082,-5.4707,-5.5332,-5.5332,-5.5996,-5.6597,-5.6601,-5.655,-5.6456,-5.6329,-5.6309,-5.6265,-5.613,-5.6098,-5.6098,-5.6098,-5.6046,-5.6012,-5.6012,-5.6012,-5.6012,-5.6012,-5.5277,-5.4445,-5.3575,-5.2705,-5.1834,-5.0964,-5.0897,-5.0899,-5.0899,-5.0846,-5.081,-5.081,-5.0738,-5.0701,-5.0701,-5.0644,-5.0567,-5.0507,-5.0644,-5.0701,0.0,0.0,-5.1095,-5.1088,0.0,0.0,0.0,0.0,0.0,0.0,0.0,0.0,0.0,0.0,-4.9993,-4.9991,-4.9289,0.0,0.0,0.0,0.0,0.0,0.0,0.0,0.0,0.0,0.0,-5.1306,-5.1312,-5.1308,-5.1303,-5.1362,-5.1405,-5.1398,-5.1406,-5.1402,-5.1394,-5.1394,-5.1394,-5.1394,-5.1402,-5.1391,-5.1403,-5.1406,-5.1406,-5.1406,-5.1406,-5.1406,-5.1406,-5.1406,-5.1562,-5.1836,-5.1836,-5.2363,-5.3242,-5.4121,-5.4629,-5.4883,-5.4883,-5.4687,-5.4433,-5.4433,-5.4238,-5.4004,-5.4004,-5.4394,-5.4863,-5.4863,-5.5273,-5.5586,-5.5019,-5.5078,-5.5156,-5.457,-5.4665,-5.5036,-5.5562,-5.5662,-5.5774,-5.6205,-5.6265,-5.6199,-5.6114,-5.6046,-5.6029,-5.6029,-5.6012,-5.6012,-5.6012,-5.6012,-5.5799,-5.5258,-5.4445,-5.3594,-5.2705,-5.1838,-5.1206,-5.0916,-5.081,-5.0775,-5.0775,-5.0701,-5.0644,-5.0606,-5.0566,-5.0544,-5.0504,-5.044,-5.0396,-5.0374,-5.0374,-5.0418,-5.1134,-5.1139,0.0,-5.1144,-5.1178,0.0,-5.121,0.0,0.0,0.0,0.0,0.0,0.0,0.0,0.0,-5.0432,-4.9964,-4.9798,0.0,-5.0917,0.0,0.0,0.0,0.0,0.0,0.0,-5.1249,-5.1269,-5.1295,-5.13,0.0,0.0,-5.1381,-5.1403,-5.1404,-5.1391,-5.1394,-5.1394,-5.1394,-5.1394,-5.1394,-5.1394,-5.1406,-5.1406,-5.1406,-5.1406,-5.1406,-5.1406,-5.1406,-5.1406,-5.1406,-5.1406,-5.1406,-5.1738,-5.2344,-5.3223,-5.373,-5.4004,-5.4004,-5.3808,-5.3535,-5.3535,-5.332,-5.3086,-5.3086,-5.3672,-5.4375,-5.4375,-5.5,-5.5469,-5.4609,-5.4608,-5.4624,-5.3737,-5.376,-5.4108,-5.4632,-5.4937,-5.5266,-5.5714,-5.5999,-5.6141,-5.6082,-5.6029,-5.6012,-5.6012,-5.6012,-5.6012,-5.6012,-5.576,-5.5374,-5.4851,-5.3713,-5.2652,-5.1783,-5.1172,-5.0829,-5.0793,-5.0702,-5.0606,-5.0586,-5.0526,-5.0464,-5.0442,-5.0416,-5.0371,-5.0348,-5.0255,-5.0231,-5.0207,-5.0158,-5.0163]}]]